<?xml version='1.0' encoding='UTF-8'?><gpx version="1.1" creator="JPX - https://github.com/jenetics/jpx" xmlns="http://www.topografix.com/GPX/1/1"><trk><trkseg><trkpt lat="42.2459358" lon="12.6149784"><ele>212.00000000000003</ele><time>2026-04-04T15:05:59.798Z</time></trkpt><trkpt lat="42.2458975" lon="12.6149053"><ele>212.0</ele><time>2026-04-04T15:07:54.778Z</time></trkpt><trkpt lat="42.2458167" lon="12.6148067"><ele>212.0</ele><time>2026-04-04T15:11:11.723Z</time></trkpt><trkpt lat="42.2458617" lon="12.6147467"><ele>212.0</ele><time>2026-04-04T15:11:14.722Z</time></trkpt><trkpt lat="42.2459383" lon="12.6146683"><ele>212.00000000000003</ele><time>2026-04-04T15:11:16.728Z</time></trkpt><trkpt lat="42.2459967" lon="12.61462"><ele>212.0</ele><time>2026-04-04T15:11:17.723Z</time></trkpt><trkpt lat="42.24606" lon="12.6145667"><ele>212.0</ele><time>2026-04-04T15:11:18.723Z</time></trkpt><trkpt lat="42.246115" lon="12.6145183"><ele>212.0</ele><time>2026-04-04T15:11:19.723Z</time></trkpt><trkpt lat="42.2462233" lon="12.6144567"><ele>212.0</ele><time>2026-04-04T15:11:21.722Z</time></trkpt><trkpt lat="42.2463267" lon="12.6144417"><ele>212.0</ele><time>2026-04-04T15:11:23.727Z</time></trkpt><trkpt lat="42.2464283" lon="12.6144383"><ele>212.0</ele><time>2026-04-04T15:11:25.726Z</time></trkpt><trkpt lat="42.246495" lon="12.6145033"><ele>212.57142857142858</ele><time>2026-04-04T15:11:27.724Z</time></trkpt><trkpt lat="42.2465633" lon="12.614535"><ele>213.14285714285714</ele><time>2026-04-04T15:11:31.724Z</time></trkpt><trkpt lat="42.2465217" lon="12.6144517"><ele>213.71428571428572</ele><time>2026-04-04T15:11:35.724Z</time></trkpt><trkpt lat="42.2464517" lon="12.6144317"><ele>214.28571428571428</ele><time>2026-04-04T15:11:39.724Z</time></trkpt><trkpt lat="42.2463833" lon="12.6144233"><ele>214.85714285714283</ele><time>2026-04-04T15:11:43.728Z</time></trkpt><trkpt lat="42.2463183" lon="12.6144317"><ele>215.42857142857142</ele><time>2026-04-04T15:11:46.731Z</time></trkpt><trkpt lat="42.246255" lon="12.614445"><ele>216.0</ele><time>2026-04-04T15:11:49.726Z</time></trkpt><trkpt lat="42.2461933" lon="12.6144717"><ele>215.33333333333334</ele><time>2026-04-04T15:11:52.724Z</time></trkpt><trkpt lat="42.24613" lon="12.6145067"><ele>214.66666666666669</ele><time>2026-04-04T15:11:55.723Z</time></trkpt><trkpt lat="42.2460667" lon="12.6145417"><ele>214.0</ele><time>2026-04-04T15:11:58.723Z</time></trkpt><trkpt lat="42.245995" lon="12.6146033"><ele>213.33333333333334</ele><time>2026-04-04T15:12:01.722Z</time></trkpt><trkpt lat="42.245925" lon="12.6146767"><ele>212.66666666666669</ele><time>2026-04-04T15:12:04.723Z</time></trkpt><trkpt lat="42.2458683" lon="12.6147517"><ele>212.0</ele><time>2026-04-04T15:12:07.73Z</time></trkpt><trkpt lat="42.2458353" lon="12.6148459"><ele>212.0</ele><time>2026-04-04T15:12:11.759Z</time></trkpt><trkpt lat="42.245755" lon="12.61487"><ele>212.0</ele><time>2026-04-04T15:13:09.722Z</time></trkpt><trkpt lat="42.2456633" lon="12.6149833"><ele>212.0</ele><time>2026-04-04T15:13:11.73Z</time></trkpt><trkpt lat="42.2455767" lon="12.61508"><ele>212.0</ele><time>2026-04-04T15:13:13.723Z</time></trkpt><trkpt lat="42.2454617" lon="12.615145"><ele>212.0</ele><time>2026-04-04T15:13:15.723Z</time></trkpt><trkpt lat="42.2453983" lon="12.615175"><ele>212.0</ele><time>2026-04-04T15:13:16.723Z</time></trkpt><trkpt lat="42.24533" lon="12.6151933"><ele>212.0</ele><time>2026-04-04T15:13:17.724Z</time></trkpt><trkpt lat="42.2452567" lon="12.615205"><ele>212.0</ele><time>2026-04-04T15:13:18.724Z</time></trkpt><trkpt lat="42.2451883" lon="12.6152017"><ele>212.0</ele><time>2026-04-04T15:13:19.724Z</time></trkpt><trkpt lat="42.2451183" lon="12.61518"><ele>212.0</ele><time>2026-04-04T15:13:20.727Z</time></trkpt><trkpt lat="42.2450517" lon="12.6151517"><ele>212.0</ele><time>2026-04-04T15:13:21.724Z</time></trkpt><trkpt lat="42.2449917" lon="12.615125"><ele>212.0</ele><time>2026-04-04T15:13:22.724Z</time></trkpt><trkpt lat="42.2448867" lon="12.6150633"><ele>212.0</ele><time>2026-04-04T15:13:24.723Z</time></trkpt><trkpt lat="42.2447967" lon="12.6149917"><ele>212.0</ele><time>2026-04-04T15:13:26.723Z</time></trkpt><trkpt lat="42.244715" lon="12.6148983"><ele>212.0</ele><time>2026-04-04T15:13:28.722Z</time></trkpt><trkpt lat="42.2446483" lon="12.6147667"><ele>212.0</ele><time>2026-04-04T15:13:30.723Z</time></trkpt><trkpt lat="42.2445883" lon="12.6146183"><ele>210.0</ele><time>2026-04-04T15:13:32.728Z</time></trkpt><trkpt lat="42.244555" lon="12.6144733"><ele>208.0</ele><time>2026-04-04T15:13:34.724Z</time></trkpt><trkpt lat="42.244545" lon="12.6143833"><ele>206.0</ele><time>2026-04-04T15:13:36.723Z</time></trkpt><trkpt lat="42.2444817" lon="12.6143267"><ele>204.0</ele><time>2026-04-04T15:14:46.721Z</time></trkpt><trkpt lat="42.2443683" lon="12.6142833"><ele>202.0</ele><time>2026-04-04T15:14:48.721Z</time></trkpt><trkpt lat="42.24429" lon="12.6142667"><ele>201.99999999999997</ele><time>2026-04-04T15:14:49.722Z</time></trkpt><trkpt lat="42.2442067" lon="12.6142467"><ele>202.0</ele><time>2026-04-04T15:14:50.727Z</time></trkpt><trkpt lat="42.244125" lon="12.6142217"><ele>202.0</ele><time>2026-04-04T15:14:51.721Z</time></trkpt><trkpt lat="42.2440483" lon="12.6141917"><ele>202.0</ele><time>2026-04-04T15:14:52.723Z</time></trkpt><trkpt lat="42.2439833" lon="12.6141683"><ele>201.99999999999997</ele><time>2026-04-04T15:14:53.723Z</time></trkpt><trkpt lat="42.243875" lon="12.61414"><ele>202.0</ele><time>2026-04-04T15:14:55.724Z</time></trkpt><trkpt lat="42.2438117" lon="12.614125"><ele>202.25</ele><time>2026-04-04T15:14:56.723Z</time></trkpt><trkpt lat="42.24373" lon="12.6141"><ele>202.5</ele><time>2026-04-04T15:14:57.721Z</time></trkpt><trkpt lat="42.24362" lon="12.61407"><ele>202.75</ele><time>2026-04-04T15:14:58.724Z</time></trkpt><trkpt lat="42.2434983" lon="12.6140267"><ele>203.0</ele><time>2026-04-04T15:14:59.722Z</time></trkpt><trkpt lat="42.24337" lon="12.6139667"><ele>203.0</ele><time>2026-04-04T15:15:00.723Z</time></trkpt><trkpt lat="42.2432417" lon="12.6139067"><ele>203.0</ele><time>2026-04-04T15:15:01.728Z</time></trkpt><trkpt lat="42.243115" lon="12.613845"><ele>203.0</ele><time>2026-04-04T15:15:02.723Z</time></trkpt><trkpt lat="42.2429917" lon="12.6138133"><ele>203.0</ele><time>2026-04-04T15:15:03.724Z</time></trkpt><trkpt lat="42.2428683" lon="12.6138167"><ele>204.0</ele><time>2026-04-04T15:15:04.723Z</time></trkpt><trkpt lat="42.2427467" lon="12.6138683"><ele>205.0</ele><time>2026-04-04T15:15:05.724Z</time></trkpt><trkpt lat="42.2426183" lon="12.6139417"><ele>206.0</ele><time>2026-04-04T15:15:06.722Z</time></trkpt><trkpt lat="42.24249" lon="12.61403"><ele>207.0</ele><time>2026-04-04T15:15:07.723Z</time></trkpt><trkpt lat="42.242365" lon="12.6141267"><ele>206.75</ele><time>2026-04-04T15:15:08.73Z</time></trkpt><trkpt lat="42.2422383" lon="12.6142"><ele>206.5</ele><time>2026-04-04T15:15:09.724Z</time></trkpt><trkpt lat="42.2421017" lon="12.614245"><ele>206.25</ele><time>2026-04-04T15:15:10.726Z</time></trkpt><trkpt lat="42.24196" lon="12.6142533"><ele>206.0</ele><time>2026-04-04T15:15:11.725Z</time></trkpt><trkpt lat="42.24182" lon="12.6142383"><ele>206.0</ele><time>2026-04-04T15:15:12.725Z</time></trkpt><trkpt lat="42.2416883" lon="12.614205"><ele>206.0</ele><time>2026-04-04T15:15:13.731Z</time></trkpt><trkpt lat="42.2415667" lon="12.6141867"><ele>206.0</ele><time>2026-04-04T15:15:14.728Z</time></trkpt><trkpt lat="42.2414583" lon="12.6142067"><ele>206.0</ele><time>2026-04-04T15:15:15.723Z</time></trkpt><trkpt lat="42.241365" lon="12.6142533"><ele>203.60000000000002</ele><time>2026-04-04T15:15:16.724Z</time></trkpt><trkpt lat="42.24128" lon="12.614315"><ele>201.2</ele><time>2026-04-04T15:15:17.723Z</time></trkpt><trkpt lat="42.2411933" lon="12.6143917"><ele>198.8</ele><time>2026-04-04T15:15:18.722Z</time></trkpt><trkpt lat="42.2411" lon="12.6144833"><ele>196.39999999999998</ele><time>2026-04-04T15:15:19.722Z</time></trkpt><trkpt lat="42.2409933" lon="12.6145833"><ele>194.0</ele><time>2026-04-04T15:15:20.724Z</time></trkpt><trkpt lat="42.2408933" lon="12.6146667"><ele>193.33333333333334</ele><time>2026-04-04T15:15:21.726Z</time></trkpt><trkpt lat="42.2408133" lon="12.6147317"><ele>192.66666666666669</ele><time>2026-04-04T15:15:22.724Z</time></trkpt><trkpt lat="42.2407567" lon="12.6147867"><ele>192.0</ele><time>2026-04-04T15:15:23.723Z</time></trkpt><trkpt lat="42.2406733" lon="12.6148617"><ele>191.33333333333334</ele><time>2026-04-04T15:15:25.724Z</time></trkpt><trkpt lat="42.240615" lon="12.6149183"><ele>190.66666666666669</ele><time>2026-04-04T15:15:26.723Z</time></trkpt><trkpt lat="42.2405467" lon="12.6149867"><ele>190.0</ele><time>2026-04-04T15:15:27.723Z</time></trkpt><trkpt lat="42.2404717" lon="12.6150633"><ele>189.4</ele><time>2026-04-04T15:15:28.723Z</time></trkpt><trkpt lat="42.2403933" lon="12.6151433"><ele>188.8</ele><time>2026-04-04T15:15:29.725Z</time></trkpt><trkpt lat="42.2403083" lon="12.615225"><ele>188.2</ele><time>2026-04-04T15:15:30.723Z</time></trkpt><trkpt lat="42.2402183" lon="12.6153117"><ele>187.6</ele><time>2026-04-04T15:15:31.723Z</time></trkpt><trkpt lat="42.2401183" lon="12.6153867"><ele>187.0</ele><time>2026-04-04T15:15:32.727Z</time></trkpt><trkpt lat="42.24002" lon="12.61544"><ele>187.0</ele><time>2026-04-04T15:15:33.723Z</time></trkpt><trkpt lat="42.2399333" lon="12.61548"><ele>187.0</ele><time>2026-04-04T15:15:34.721Z</time></trkpt><trkpt lat="42.2398667" lon="12.6155067"><ele>187.0</ele><time>2026-04-04T15:15:35.726Z</time></trkpt><trkpt lat="42.23978" lon="12.6155283"><ele>187.0</ele><time>2026-04-04T15:15:37.723Z</time></trkpt><trkpt lat="42.2397433" lon="12.6156183"><ele>187.0</ele><time>2026-04-04T15:15:40.725Z</time></trkpt><trkpt lat="42.2397" lon="12.615715"><ele>187.0</ele><time>2026-04-04T15:15:42.724Z</time></trkpt><trkpt lat="42.2395767" lon="12.615745"><ele>187.83333333333334</ele><time>2026-04-04T15:15:44.728Z</time></trkpt><trkpt lat="42.2395" lon="12.6157617"><ele>188.66666666666669</ele><time>2026-04-04T15:15:45.728Z</time></trkpt><trkpt lat="42.239425" lon="12.615795"><ele>189.5</ele><time>2026-04-04T15:15:46.727Z</time></trkpt><trkpt lat="42.2393533" lon="12.6158417"><ele>190.33333333333334</ele><time>2026-04-04T15:15:47.725Z</time></trkpt><trkpt lat="42.239285" lon="12.615895"><ele>191.16666666666666</ele><time>2026-04-04T15:15:48.723Z</time></trkpt><trkpt lat="42.239215" lon="12.615945"><ele>192.0</ele><time>2026-04-04T15:15:49.723Z</time></trkpt><trkpt lat="42.2391517" lon="12.61598"><ele>192.0</ele><time>2026-04-04T15:15:50.724Z</time></trkpt><trkpt lat="42.2390583" lon="12.6159567"><ele>192.0</ele><time>2026-04-04T15:15:52.723Z</time></trkpt><trkpt lat="42.23901" lon="12.6158367"><ele>192.0</ele><time>2026-04-04T15:15:54.726Z</time></trkpt><trkpt lat="42.2388967" lon="12.61577"><ele>192.0</ele><time>2026-04-04T15:15:56.727Z</time></trkpt><trkpt lat="42.238825" lon="12.615775"><ele>192.0</ele><time>2026-04-04T15:15:57.728Z</time></trkpt><trkpt lat="42.2387567" lon="12.61579"><ele>192.5</ele><time>2026-04-04T15:15:58.724Z</time></trkpt><trkpt lat="42.23865" lon="12.6158167"><ele>193.0</ele><time>2026-04-04T15:16:00.729Z</time></trkpt><trkpt lat="42.2385867" lon="12.6158367"><ele>193.5</ele><time>2026-04-04T15:16:01.724Z</time></trkpt><trkpt lat="42.23851" lon="12.6158583"><ele>194.0</ele><time>2026-04-04T15:16:02.723Z</time></trkpt><trkpt lat="42.238425" lon="12.6158767"><ele>194.5</ele><time>2026-04-04T15:16:03.723Z</time></trkpt><trkpt lat="42.2383383" lon="12.6159"><ele>195.0</ele><time>2026-04-04T15:16:04.726Z</time></trkpt><trkpt lat="42.2382517" lon="12.6159283"><ele>195.0</ele><time>2026-04-04T15:16:05.725Z</time></trkpt><trkpt lat="42.2381667" lon="12.615955"><ele>195.0</ele><time>2026-04-04T15:16:06.723Z</time></trkpt><trkpt lat="42.2380867" lon="12.61599"><ele>195.0</ele><time>2026-04-04T15:16:07.723Z</time></trkpt><trkpt lat="42.2380183" lon="12.6160317"><ele>195.0</ele><time>2026-04-04T15:16:08.724Z</time></trkpt><trkpt lat="42.2379567" lon="12.6160833"><ele>195.0</ele><time>2026-04-04T15:16:09.723Z</time></trkpt><trkpt lat="42.2379" lon="12.6161383"><ele>195.0</ele><time>2026-04-04T15:16:10.723Z</time></trkpt><trkpt lat="42.2378467" lon="12.6161883"><ele>194.8</ele><time>2026-04-04T15:16:11.722Z</time></trkpt><trkpt lat="42.237755" lon="12.616255"><ele>194.6</ele><time>2026-04-04T15:16:13.726Z</time></trkpt><trkpt lat="42.237645" lon="12.616245"><ele>194.39999999999998</ele><time>2026-04-04T15:16:15.722Z</time></trkpt><trkpt lat="42.23753" lon="12.6162017"><ele>194.2</ele><time>2026-04-04T15:16:17.725Z</time></trkpt><trkpt lat="42.237465" lon="12.6161867"><ele>194.0</ele><time>2026-04-04T15:16:18.721Z</time></trkpt><trkpt lat="42.237395" lon="12.6161667"><ele>193.57142857142856</ele><time>2026-04-04T15:16:19.722Z</time></trkpt><trkpt lat="42.2373267" lon="12.616145"><ele>193.14285714285717</ele><time>2026-04-04T15:16:20.726Z</time></trkpt><trkpt lat="42.23726" lon="12.6161367"><ele>192.71428571428572</ele><time>2026-04-04T15:16:21.722Z</time></trkpt><trkpt lat="42.2371917" lon="12.616145"><ele>192.28571428571428</ele><time>2026-04-04T15:16:22.725Z</time></trkpt><trkpt lat="42.237125" lon="12.6161633"><ele>191.85714285714283</ele><time>2026-04-04T15:16:23.722Z</time></trkpt><trkpt lat="42.2370633" lon="12.6161817"><ele>191.42857142857144</ele><time>2026-04-04T15:16:24.723Z</time></trkpt><trkpt lat="42.2369583" lon="12.61621"><ele>191.0</ele><time>2026-04-04T15:16:26.723Z</time></trkpt><trkpt lat="42.2368833" lon="12.6162433"><ele>189.14285714285714</ele><time>2026-04-04T15:16:28.725Z</time></trkpt><trkpt lat="42.236895" lon="12.616345"><ele>187.28571428571428</ele><time>2026-04-04T15:16:30.723Z</time></trkpt><trkpt lat="42.2369433" lon="12.6164117"><ele>185.42857142857142</ele><time>2026-04-04T15:16:31.723Z</time></trkpt><trkpt lat="42.2369917" lon="12.616485"><ele>183.57142857142856</ele><time>2026-04-04T15:16:32.723Z</time></trkpt><trkpt lat="42.2370467" lon="12.616565"><ele>181.71428571428572</ele><time>2026-04-04T15:16:33.724Z</time></trkpt><trkpt lat="42.2370967" lon="12.6166417"><ele>179.85714285714283</ele><time>2026-04-04T15:16:34.721Z</time></trkpt><trkpt lat="42.2371367" lon="12.6167217"><ele>178.0</ele><time>2026-04-04T15:16:35.724Z</time></trkpt><trkpt lat="42.237165" lon="12.6168067"><ele>178.0</ele><time>2026-04-04T15:16:36.722Z</time></trkpt><trkpt lat="42.237175" lon="12.6169033"><ele>178.0</ele><time>2026-04-04T15:16:37.722Z</time></trkpt><trkpt lat="42.2371683" lon="12.616995"><ele>178.0</ele><time>2026-04-04T15:16:38.724Z</time></trkpt><trkpt lat="42.2371617" lon="12.6170817"><ele>178.0</ele><time>2026-04-04T15:16:39.722Z</time></trkpt><trkpt lat="42.2371567" lon="12.6171683"><ele>178.0</ele><time>2026-04-04T15:16:40.721Z</time></trkpt><trkpt lat="42.2371367" lon="12.6173067"><ele>178.0</ele><time>2026-04-04T15:16:42.724Z</time></trkpt><trkpt lat="42.2371017" lon="12.6173983"><ele>176.25</ele><time>2026-04-04T15:16:44.724Z</time></trkpt><trkpt lat="42.2370433" lon="12.6175317"><ele>174.5</ele><time>2026-04-04T15:16:46.723Z</time></trkpt><trkpt lat="42.23695" lon="12.6176183"><ele>172.75</ele><time>2026-04-04T15:16:48.723Z</time></trkpt><trkpt lat="42.2368567" lon="12.6175833"><ele>171.0</ele><time>2026-04-04T15:16:50.725Z</time></trkpt><trkpt lat="42.2368" lon="12.6173817"><ele>171.0</ele><time>2026-04-04T15:16:52.725Z</time></trkpt><trkpt lat="42.23677" lon="12.617245"><ele>171.0</ele><time>2026-04-04T15:16:53.723Z</time></trkpt><trkpt lat="42.23674" lon="12.6171017"><ele>171.0</ele><time>2026-04-04T15:16:54.729Z</time></trkpt><trkpt lat="42.23671" lon="12.61695"><ele>171.0</ele><time>2026-04-04T15:16:55.722Z</time></trkpt><trkpt lat="42.2366783" lon="12.6167917"><ele>172.75</ele><time>2026-04-04T15:16:56.722Z</time></trkpt><trkpt lat="42.23664" lon="12.61663"><ele>174.5</ele><time>2026-04-04T15:16:57.725Z</time></trkpt><trkpt lat="42.2366" lon="12.6164667"><ele>176.25</ele><time>2026-04-04T15:16:58.722Z</time></trkpt><trkpt lat="42.2365567" lon="12.6163017"><ele>178.0</ele><time>2026-04-04T15:16:59.721Z</time></trkpt><trkpt lat="42.2365167" lon="12.6161367"><ele>178.25</ele><time>2026-04-04T15:17:00.722Z</time></trkpt><trkpt lat="42.2364783" lon="12.6159733"><ele>178.5</ele><time>2026-04-04T15:17:01.723Z</time></trkpt><trkpt lat="42.236455" lon="12.615805"><ele>178.75</ele><time>2026-04-04T15:17:02.724Z</time></trkpt><trkpt lat="42.23646" lon="12.615635"><ele>179.0</ele><time>2026-04-04T15:17:03.722Z</time></trkpt><trkpt lat="42.236505" lon="12.6154767"><ele>179.0</ele><time>2026-04-04T15:17:04.721Z</time></trkpt><trkpt lat="42.236585" lon="12.6153417"><ele>179.0</ele><time>2026-04-04T15:17:05.722Z</time></trkpt><trkpt lat="42.2366867" lon="12.6152383"><ele>179.0</ele><time>2026-04-04T15:17:06.725Z</time></trkpt><trkpt lat="42.2367967" lon="12.6151717"><ele>179.0</ele><time>2026-04-04T15:17:07.723Z</time></trkpt><trkpt lat="42.2369133" lon="12.615135"><ele>176.0</ele><time>2026-04-04T15:17:08.723Z</time></trkpt><trkpt lat="42.2370367" lon="12.6151133"><ele>173.0</ele><time>2026-04-04T15:17:09.726Z</time></trkpt><trkpt lat="42.2371617" lon="12.6150967"><ele>170.0</ele><time>2026-04-04T15:17:10.724Z</time></trkpt><trkpt lat="42.2372833" lon="12.6150817"><ele>167.0</ele><time>2026-04-04T15:17:11.731Z</time></trkpt><trkpt lat="42.2374033" lon="12.6150617"><ele>167.0</ele><time>2026-04-04T15:17:12.725Z</time></trkpt><trkpt lat="42.2375217" lon="12.61505"><ele>167.0</ele><time>2026-04-04T15:17:13.722Z</time></trkpt><trkpt lat="42.2376383" lon="12.6150283"><ele>167.0</ele><time>2026-04-04T15:17:14.723Z</time></trkpt><trkpt lat="42.237755" lon="12.6150117"><ele>167.0</ele><time>2026-04-04T15:17:15.722Z</time></trkpt><trkpt lat="42.2378733" lon="12.614995"><ele>167.0</ele><time>2026-04-04T15:17:16.726Z</time></trkpt><trkpt lat="42.23799" lon="12.6149817"><ele>167.0</ele><time>2026-04-04T15:17:17.724Z</time></trkpt><trkpt lat="42.238105" lon="12.6149683"><ele>167.0</ele><time>2026-04-04T15:17:18.721Z</time></trkpt><trkpt lat="42.2382217" lon="12.6149483"><ele>167.0</ele><time>2026-04-04T15:17:19.721Z</time></trkpt><trkpt lat="42.238335" lon="12.6149317"><ele>168.25</ele><time>2026-04-04T15:17:20.723Z</time></trkpt><trkpt lat="42.2384517" lon="12.6149133"><ele>169.5</ele><time>2026-04-04T15:17:21.722Z</time></trkpt><trkpt lat="42.2385667" lon="12.6148967"><ele>170.75</ele><time>2026-04-04T15:17:22.721Z</time></trkpt><trkpt lat="42.2386783" lon="12.6148733"><ele>172.0</ele><time>2026-04-04T15:17:23.723Z</time></trkpt><trkpt lat="42.23888" lon="12.614765"><ele>172.5</ele><time>2026-04-04T15:17:25.727Z</time></trkpt><trkpt lat="42.2389683" lon="12.6146767"><ele>173.0</ele><time>2026-04-04T15:17:26.725Z</time></trkpt><trkpt lat="42.23905" lon="12.6145617"><ele>173.5</ele><time>2026-04-04T15:17:27.722Z</time></trkpt><trkpt lat="42.2391217" lon="12.6144383"><ele>174.0</ele><time>2026-04-04T15:17:28.721Z</time></trkpt><trkpt lat="42.23918" lon="12.6143"><ele>171.75</ele><time>2026-04-04T15:17:29.722Z</time></trkpt><trkpt lat="42.23922" lon="12.6141533"><ele>169.5</ele><time>2026-04-04T15:17:30.722Z</time></trkpt><trkpt lat="42.2392367" lon="12.6139883"><ele>167.25</ele><time>2026-04-04T15:17:31.721Z</time></trkpt><trkpt lat="42.239235" lon="12.6138267"><ele>165.0</ele><time>2026-04-04T15:17:32.725Z</time></trkpt><trkpt lat="42.239215" lon="12.6136767"><ele>166.0</ele><time>2026-04-04T15:17:33.721Z</time></trkpt><trkpt lat="42.2391767" lon="12.6135367"><ele>167.0</ele><time>2026-04-04T15:17:34.725Z</time></trkpt><trkpt lat="42.2391267" lon="12.613405"><ele>168.0</ele><time>2026-04-04T15:17:35.721Z</time></trkpt><trkpt lat="42.2390667" lon="12.6132867"><ele>169.0</ele><time>2026-04-04T15:17:36.722Z</time></trkpt><trkpt lat="42.23899" lon="12.613175"><ele>170.0</ele><time>2026-04-04T15:17:37.722Z</time></trkpt><trkpt lat="42.2388917" lon="12.6130767"><ele>165.0</ele><time>2026-04-04T15:17:38.722Z</time></trkpt><trkpt lat="42.238755" lon="12.613"><ele>160.0</ele><time>2026-04-04T15:17:39.722Z</time></trkpt><trkpt lat="42.23859" lon="12.6129483"><ele>155.0</ele><time>2026-04-04T15:17:40.724Z</time></trkpt><trkpt lat="42.2384133" lon="12.61289"><ele>156.33333333333331</ele><time>2026-04-04T15:17:41.721Z</time></trkpt><trkpt lat="42.23822" lon="12.6128217"><ele>157.66666666666666</ele><time>2026-04-04T15:17:42.725Z</time></trkpt><trkpt lat="42.2380167" lon="12.6127433"><ele>159.0</ele><time>2026-04-04T15:17:43.727Z</time></trkpt><trkpt lat="42.237815" lon="12.6126683"><ele>159.0</ele><time>2026-04-04T15:17:44.722Z</time></trkpt><trkpt lat="42.237625" lon="12.6126"><ele>159.0</ele><time>2026-04-04T15:17:45.721Z</time></trkpt><trkpt lat="42.2374467" lon="12.612525"><ele>159.0</ele><time>2026-04-04T15:17:46.722Z</time></trkpt><trkpt lat="42.2372833" lon="12.612425"><ele>158.66666666666666</ele><time>2026-04-04T15:17:47.723Z</time></trkpt><trkpt lat="42.2371417" lon="12.6123"><ele>158.33333333333331</ele><time>2026-04-04T15:17:48.725Z</time></trkpt><trkpt lat="42.2370183" lon="12.6121433"><ele>158.0</ele><time>2026-04-04T15:17:49.725Z</time></trkpt><trkpt lat="42.2369267" lon="12.6119583"><ele>158.0</ele><time>2026-04-04T15:17:50.725Z</time></trkpt><trkpt lat="42.2368667" lon="12.6117567"><ele>158.0</ele><time>2026-04-04T15:17:51.724Z</time></trkpt><trkpt lat="42.2368367" lon="12.6115383"><ele>158.0</ele><time>2026-04-04T15:17:52.723Z</time></trkpt><trkpt lat="42.2368367" lon="12.6113067"><ele>155.0</ele><time>2026-04-04T15:17:53.725Z</time></trkpt><trkpt lat="42.2368617" lon="12.6110583"><ele>152.0</ele><time>2026-04-04T15:17:54.728Z</time></trkpt><trkpt lat="42.2369083" lon="12.6107983"><ele>149.0</ele><time>2026-04-04T15:17:55.721Z</time></trkpt><trkpt lat="42.2369667" lon="12.61055"><ele>146.66666666666666</ele><time>2026-04-04T15:17:56.726Z</time></trkpt><trkpt lat="42.2370267" lon="12.6103083"><ele>144.33333333333334</ele><time>2026-04-04T15:17:57.721Z</time></trkpt><trkpt lat="42.2370833" lon="12.6100767"><ele>142.0</ele><time>2026-04-04T15:17:58.722Z</time></trkpt><trkpt lat="42.2371333" lon="12.609855"><ele>142.0</ele><time>2026-04-04T15:17:59.722Z</time></trkpt><trkpt lat="42.23718" lon="12.60964"><ele>142.0</ele><time>2026-04-04T15:18:00.724Z</time></trkpt><trkpt lat="42.2372167" lon="12.60942"><ele>142.0</ele><time>2026-04-04T15:18:01.724Z</time></trkpt><trkpt lat="42.2372483" lon="12.609195"><ele>141.0</ele><time>2026-04-04T15:18:02.721Z</time></trkpt><trkpt lat="42.2372617" lon="12.6089517"><ele>140.0</ele><time>2026-04-04T15:18:03.725Z</time></trkpt><trkpt lat="42.2372467" lon="12.6087"><ele>139.0</ele><time>2026-04-04T15:18:04.723Z</time></trkpt><trkpt lat="42.2372083" lon="12.60845"><ele>139.0</ele><time>2026-04-04T15:18:05.722Z</time></trkpt><trkpt lat="42.2371583" lon="12.608205"><ele>139.0</ele><time>2026-04-04T15:18:06.723Z</time></trkpt><trkpt lat="42.23709" lon="12.607945"><ele>139.0</ele><time>2026-04-04T15:18:07.724Z</time></trkpt><trkpt lat="42.2370217" lon="12.6076583"><ele>145.0</ele><time>2026-04-04T15:18:08.724Z</time></trkpt><trkpt lat="42.23695" lon="12.6073617"><ele>151.0</ele><time>2026-04-04T15:18:09.722Z</time></trkpt><trkpt lat="42.2368783" lon="12.6070733"><ele>154.0</ele><time>2026-04-04T15:18:10.728Z</time></trkpt><trkpt lat="42.2368133" lon="12.606795"><ele>157.0</ele><time>2026-04-04T15:18:11.724Z</time></trkpt><trkpt lat="42.236755" lon="12.6065283"><ele>160.0</ele><time>2026-04-04T15:18:12.725Z</time></trkpt><trkpt lat="42.2366917" lon="12.6062633"><ele>162.0</ele><time>2026-04-04T15:18:13.724Z</time></trkpt><trkpt lat="42.236615" lon="12.6059983"><ele>164.0</ele><time>2026-04-04T15:18:14.725Z</time></trkpt><trkpt lat="42.2365183" lon="12.605735"><ele>166.0</ele><time>2026-04-04T15:18:15.724Z</time></trkpt><trkpt lat="42.23641" lon="12.6054767"><ele>161.33333333333334</ele><time>2026-04-04T15:18:16.721Z</time></trkpt><trkpt lat="42.236295" lon="12.6052433"><ele>156.66666666666666</ele><time>2026-04-04T15:18:17.722Z</time></trkpt><trkpt lat="42.2361867" lon="12.6050283"><ele>152.0</ele><time>2026-04-04T15:18:18.723Z</time></trkpt><trkpt lat="42.2360967" lon="12.60481"><ele>152.0</ele><time>2026-04-04T15:18:19.728Z</time></trkpt><trkpt lat="42.2360433" lon="12.6045833"><ele>152.0</ele><time>2026-04-04T15:18:20.727Z</time></trkpt><trkpt lat="42.236025" lon="12.604335"><ele>152.0</ele><time>2026-04-04T15:18:21.725Z</time></trkpt><trkpt lat="42.2360233" lon="12.604075"><ele>153.66666666666666</ele><time>2026-04-04T15:18:22.724Z</time></trkpt><trkpt lat="42.2360183" lon="12.6038017"><ele>155.33333333333334</ele><time>2026-04-04T15:18:23.723Z</time></trkpt><trkpt lat="42.2360133" lon="12.6035133"><ele>157.0</ele><time>2026-04-04T15:18:24.726Z</time></trkpt><trkpt lat="42.236005" lon="12.6032183"><ele>160.0</ele><time>2026-04-04T15:18:25.725Z</time></trkpt><trkpt lat="42.235995" lon="12.6029333"><ele>163.0</ele><time>2026-04-04T15:18:26.721Z</time></trkpt><trkpt lat="42.23597" lon="12.60267"><ele>166.0</ele><time>2026-04-04T15:18:27.722Z</time></trkpt><trkpt lat="42.2359283" lon="12.6024483"><ele>168.20000000000002</ele><time>2026-04-04T15:18:28.726Z</time></trkpt><trkpt lat="42.2358867" lon="12.6022717"><ele>170.4</ele><time>2026-04-04T15:18:29.723Z</time></trkpt><trkpt lat="42.23585" lon="12.6021383"><ele>172.6</ele><time>2026-04-04T15:18:30.725Z</time></trkpt><trkpt lat="42.2358083" lon="12.6020367"><ele>174.8</ele><time>2026-04-04T15:18:31.725Z</time></trkpt><trkpt lat="42.23577" lon="12.6019417"><ele>177.0</ele><time>2026-04-04T15:18:32.724Z</time></trkpt><trkpt lat="42.2357217" lon="12.6018333"><ele>179.75</ele><time>2026-04-04T15:18:33.723Z</time></trkpt><trkpt lat="42.23565" lon="12.6016933"><ele>182.5</ele><time>2026-04-04T15:18:34.722Z</time></trkpt><trkpt lat="42.23556" lon="12.6015433"><ele>185.25</ele><time>2026-04-04T15:18:35.724Z</time></trkpt><trkpt lat="42.2354467" lon="12.6013867"><ele>188.0</ele><time>2026-04-04T15:18:36.724Z</time></trkpt><trkpt lat="42.2353183" lon="12.6012233"><ele>183.33333333333331</ele><time>2026-04-04T15:18:37.725Z</time></trkpt><trkpt lat="42.23519" lon="12.60106"><ele>178.66666666666666</ele><time>2026-04-04T15:18:38.726Z</time></trkpt><trkpt lat="42.2350733" lon="12.600895"><ele>174.0</ele><time>2026-04-04T15:18:39.722Z</time></trkpt><trkpt lat="42.23498" lon="12.6007267"><ele>174.0</ele><time>2026-04-04T15:18:40.725Z</time></trkpt><trkpt lat="42.23491" lon="12.60055"><ele>174.0</ele><time>2026-04-04T15:18:41.722Z</time></trkpt><trkpt lat="42.2348633" lon="12.6003617"><ele>174.0</ele><time>2026-04-04T15:18:42.723Z</time></trkpt><trkpt lat="42.2348433" lon="12.60016"><ele>174.0</ele><time>2026-04-04T15:18:43.723Z</time></trkpt><trkpt lat="42.2348433" lon="12.599945"><ele>176.33333333333334</ele><time>2026-04-04T15:18:44.729Z</time></trkpt><trkpt lat="42.2348683" lon="12.5997317"><ele>178.66666666666669</ele><time>2026-04-04T15:18:45.723Z</time></trkpt><trkpt lat="42.2349017" lon="12.5994917"><ele>181.0</ele><time>2026-04-04T15:18:46.726Z</time></trkpt><trkpt lat="42.23495" lon="12.599245"><ele>181.0</ele><time>2026-04-04T15:18:47.723Z</time></trkpt><trkpt lat="42.2349933" lon="12.59899"><ele>181.0</ele><time>2026-04-04T15:18:48.724Z</time></trkpt><trkpt lat="42.235035" lon="12.5987333"><ele>181.0</ele><time>2026-04-04T15:18:49.735Z</time></trkpt><trkpt lat="42.235095" lon="12.5984717"><ele>179.33333333333334</ele><time>2026-04-04T15:18:50.723Z</time></trkpt><trkpt lat="42.2351817" lon="12.5982167"><ele>177.66666666666666</ele><time>2026-04-04T15:18:51.725Z</time></trkpt><trkpt lat="42.2353117" lon="12.5979883"><ele>176.0</ele><time>2026-04-04T15:18:52.725Z</time></trkpt><trkpt lat="42.2354783" lon="12.5977983"><ele>180.0</ele><time>2026-04-04T15:18:53.727Z</time></trkpt><trkpt lat="42.2356683" lon="12.5976333"><ele>184.0</ele><time>2026-04-04T15:18:54.723Z</time></trkpt><trkpt lat="42.2358617" lon="12.5974783"><ele>184.0</ele><time>2026-04-04T15:18:55.726Z</time></trkpt><trkpt lat="42.2360317" lon="12.59735"><ele>184.0</ele><time>2026-04-04T15:18:56.725Z</time></trkpt><trkpt lat="42.236165" lon="12.59725"><ele>184.0</ele><time>2026-04-04T15:18:57.723Z</time></trkpt><trkpt lat="42.2362583" lon="12.5971533"><ele>184.0</ele><time>2026-04-04T15:18:58.721Z</time></trkpt><trkpt lat="42.2363083" lon="12.5970417"><ele>184.0</ele><time>2026-04-04T15:18:59.723Z</time></trkpt><trkpt lat="42.2363233" lon="12.596925"><ele>184.0</ele><time>2026-04-04T15:19:00.722Z</time></trkpt><trkpt lat="42.236305" lon="12.5968217"><ele>184.0</ele><time>2026-04-04T15:19:01.722Z</time></trkpt><trkpt lat="42.2362583" lon="12.5967367"><ele>184.0</ele><time>2026-04-04T15:19:02.73Z</time></trkpt><trkpt lat="42.2361633" lon="12.5967283"><ele>184.0</ele><time>2026-04-04T15:19:03.723Z</time></trkpt><trkpt lat="42.23607" lon="12.5967383"><ele>184.0</ele><time>2026-04-04T15:19:04.722Z</time></trkpt><trkpt lat="42.2359717" lon="12.59683"><ele>184.0</ele><time>2026-04-04T15:19:05.722Z</time></trkpt><trkpt lat="42.2358717" lon="12.59699"><ele>184.0</ele><time>2026-04-04T15:19:06.723Z</time></trkpt><trkpt lat="42.235755" lon="12.5971433"><ele>184.0</ele><time>2026-04-04T15:19:07.722Z</time></trkpt><trkpt lat="42.235615" lon="12.5972817"><ele>185.66666666666669</ele><time>2026-04-04T15:19:08.723Z</time></trkpt><trkpt lat="42.2354467" lon="12.59738"><ele>187.33333333333334</ele><time>2026-04-04T15:19:09.726Z</time></trkpt><trkpt lat="42.2352733" lon="12.5974417"><ele>189.0</ele><time>2026-04-04T15:19:10.722Z</time></trkpt><trkpt lat="42.23509" lon="12.5974417"><ele>189.0</ele><time>2026-04-04T15:19:11.722Z</time></trkpt><trkpt lat="42.234895" lon="12.5973717"><ele>189.0</ele><time>2026-04-04T15:19:12.723Z</time></trkpt><trkpt lat="42.2346933" lon="12.597265"><ele>189.0</ele><time>2026-04-04T15:19:13.723Z</time></trkpt><trkpt lat="42.2344867" lon="12.5971567"><ele>189.0</ele><time>2026-04-04T15:19:14.724Z</time></trkpt><trkpt lat="42.23429" lon="12.5970617"><ele>189.0</ele><time>2026-04-04T15:19:15.724Z</time></trkpt><trkpt lat="42.2341167" lon="12.5970067"><ele>189.0</ele><time>2026-04-04T15:19:16.725Z</time></trkpt><trkpt lat="42.233965" lon="12.5969867"><ele>192.0</ele><time>2026-04-04T15:19:17.739Z</time></trkpt><trkpt lat="42.2338067" lon="12.5969967"><ele>195.0</ele><time>2026-04-04T15:19:18.723Z</time></trkpt><trkpt lat="42.2336317" lon="12.59702"><ele>198.0</ele><time>2026-04-04T15:19:19.726Z</time></trkpt><trkpt lat="42.2334483" lon="12.5970317"><ele>198.0</ele><time>2026-04-04T15:19:20.723Z</time></trkpt><trkpt lat="42.2332667" lon="12.5970183"><ele>198.0</ele><time>2026-04-04T15:19:21.726Z</time></trkpt><trkpt lat="42.2331017" lon="12.5969733"><ele>198.0</ele><time>2026-04-04T15:19:22.726Z</time></trkpt><trkpt lat="42.2329583" lon="12.5968917"><ele>203.33333333333331</ele><time>2026-04-04T15:19:23.725Z</time></trkpt><trkpt lat="42.2328283" lon="12.5967817"><ele>208.66666666666666</ele><time>2026-04-04T15:19:24.723Z</time></trkpt><trkpt lat="42.232715" lon="12.59664"><ele>214.0</ele><time>2026-04-04T15:19:25.722Z</time></trkpt><trkpt lat="42.2326167" lon="12.5964617"><ele>214.0</ele><time>2026-04-04T15:19:26.723Z</time></trkpt><trkpt lat="42.2325333" lon="12.5962517"><ele>214.0</ele><time>2026-04-04T15:19:27.725Z</time></trkpt><trkpt lat="42.2324567" lon="12.596025"><ele>214.0</ele><time>2026-04-04T15:19:28.724Z</time></trkpt><trkpt lat="42.2323783" lon="12.5958"><ele>215.25</ele><time>2026-04-04T15:19:29.723Z</time></trkpt><trkpt lat="42.23231" lon="12.5955883"><ele>216.5</ele><time>2026-04-04T15:19:30.722Z</time></trkpt><trkpt lat="42.23226" lon="12.5953917"><ele>217.75</ele><time>2026-04-04T15:19:31.725Z</time></trkpt><trkpt lat="42.2322317" lon="12.59523"><ele>219.0</ele><time>2026-04-04T15:19:32.724Z</time></trkpt><trkpt lat="42.2322233" lon="12.5950817"><ele>217.25</ele><time>2026-04-04T15:19:33.722Z</time></trkpt><trkpt lat="42.2322283" lon="12.59493"><ele>215.5</ele><time>2026-04-04T15:19:34.721Z</time></trkpt><trkpt lat="42.232255" lon="12.5947733"><ele>213.75</ele><time>2026-04-04T15:19:35.723Z</time></trkpt><trkpt lat="42.2322917" lon="12.5946133"><ele>212.0</ele><time>2026-04-04T15:19:36.722Z</time></trkpt><trkpt lat="42.2323367" lon="12.5944483"><ele>212.0</ele><time>2026-04-04T15:19:37.724Z</time></trkpt><trkpt lat="42.2323883" lon="12.5942883"><ele>212.0</ele><time>2026-04-04T15:19:38.726Z</time></trkpt><trkpt lat="42.2324283" lon="12.5941483"><ele>212.0</ele><time>2026-04-04T15:19:39.724Z</time></trkpt><trkpt lat="42.2324717" lon="12.5940617"><ele>212.0</ele><time>2026-04-04T15:19:40.724Z</time></trkpt><trkpt lat="42.2325833" lon="12.5939667"><ele>212.0</ele><time>2026-04-04T15:19:42.724Z</time></trkpt><trkpt lat="42.2326767" lon="12.5940017"><ele>212.0</ele><time>2026-04-04T15:19:43.725Z</time></trkpt><trkpt lat="42.2327717" lon="12.5940733"><ele>212.0</ele><time>2026-04-04T15:19:44.723Z</time></trkpt><trkpt lat="42.232875" lon="12.594175"><ele>212.0</ele><time>2026-04-04T15:19:45.724Z</time></trkpt><trkpt lat="42.2329817" lon="12.594305"><ele>212.0</ele><time>2026-04-04T15:19:46.723Z</time></trkpt><trkpt lat="42.2331" lon="12.59445"><ele>212.0</ele><time>2026-04-04T15:19:47.727Z</time></trkpt><trkpt lat="42.23323" lon="12.5945917"><ele>212.0</ele><time>2026-04-04T15:19:48.723Z</time></trkpt><trkpt lat="42.2333633" lon="12.594725"><ele>213.33333333333334</ele><time>2026-04-04T15:19:49.725Z</time></trkpt><trkpt lat="42.2335033" lon="12.5948383"><ele>214.66666666666669</ele><time>2026-04-04T15:19:50.728Z</time></trkpt><trkpt lat="42.2336533" lon="12.59492"><ele>216.0</ele><time>2026-04-04T15:19:51.722Z</time></trkpt><trkpt lat="42.2337967" lon="12.59496"><ele>216.0</ele><time>2026-04-04T15:19:52.725Z</time></trkpt><trkpt lat="42.2339383" lon="12.59495"><ele>216.0</ele><time>2026-04-04T15:19:53.729Z</time></trkpt><trkpt lat="42.2340817" lon="12.5948817"><ele>216.0</ele><time>2026-04-04T15:19:54.724Z</time></trkpt><trkpt lat="42.2342317" lon="12.5947733"><ele>213.66666666666669</ele><time>2026-04-04T15:19:55.726Z</time></trkpt><trkpt lat="42.2343883" lon="12.59465"><ele>211.33333333333334</ele><time>2026-04-04T15:19:56.727Z</time></trkpt><trkpt lat="42.2345467" lon="12.5945167"><ele>209.0</ele><time>2026-04-04T15:19:57.724Z</time></trkpt><trkpt lat="42.2347067" lon="12.5943683"><ele>207.33333333333334</ele><time>2026-04-04T15:19:58.727Z</time></trkpt><trkpt lat="42.2348617" lon="12.5942083"><ele>205.66666666666669</ele><time>2026-04-04T15:19:59.724Z</time></trkpt><trkpt lat="42.2350067" lon="12.5940583"><ele>204.0</ele><time>2026-04-04T15:20:00.722Z</time></trkpt><trkpt lat="42.2351483" lon="12.5939233"><ele>204.0</ele><time>2026-04-04T15:20:01.726Z</time></trkpt><trkpt lat="42.23529" lon="12.5938083"><ele>204.0</ele><time>2026-04-04T15:20:02.725Z</time></trkpt><trkpt lat="42.2354233" lon="12.59373"><ele>204.0</ele><time>2026-04-04T15:20:03.725Z</time></trkpt><trkpt lat="42.2355433" lon="12.5937033"><ele>204.0</ele><time>2026-04-04T15:20:04.723Z</time></trkpt><trkpt lat="42.235655" lon="12.59371"><ele>204.5</ele><time>2026-04-04T15:20:05.728Z</time></trkpt><trkpt lat="42.2357633" lon="12.5937733"><ele>205.0</ele><time>2026-04-04T15:20:06.723Z</time></trkpt><trkpt lat="42.2358783" lon="12.5938733"><ele>205.5</ele><time>2026-04-04T15:20:07.724Z</time></trkpt><trkpt lat="42.2360033" lon="12.594"><ele>206.0</ele><time>2026-04-04T15:20:08.722Z</time></trkpt><trkpt lat="42.2361233" lon="12.59413"><ele>206.0</ele><time>2026-04-04T15:20:09.723Z</time></trkpt><trkpt lat="42.2362433" lon="12.5942467"><ele>206.0</ele><time>2026-04-04T15:20:10.722Z</time></trkpt><trkpt lat="42.23637" lon="12.5943167"><ele>206.0</ele><time>2026-04-04T15:20:11.723Z</time></trkpt><trkpt lat="42.2365017" lon="12.5943467"><ele>206.0</ele><time>2026-04-04T15:20:12.725Z</time></trkpt><trkpt lat="42.236635" lon="12.59433"><ele>204.66666666666669</ele><time>2026-04-04T15:20:13.724Z</time></trkpt><trkpt lat="42.2367617" lon="12.594255"><ele>203.33333333333331</ele><time>2026-04-04T15:20:14.722Z</time></trkpt><trkpt lat="42.2368817" lon="12.594125"><ele>202.0</ele><time>2026-04-04T15:20:15.722Z</time></trkpt><trkpt lat="42.237" lon="12.5939483"><ele>202.0</ele><time>2026-04-04T15:20:16.726Z</time></trkpt><trkpt lat="42.2371383" lon="12.5937567"><ele>202.0</ele><time>2026-04-04T15:20:17.726Z</time></trkpt><trkpt lat="42.2373" lon="12.5935633"><ele>202.0</ele><time>2026-04-04T15:20:18.723Z</time></trkpt><trkpt lat="42.23747" lon="12.5933633"><ele>202.0</ele><time>2026-04-04T15:20:19.725Z</time></trkpt><trkpt lat="42.2376417" lon="12.593165"><ele>202.0</ele><time>2026-04-04T15:20:20.723Z</time></trkpt><trkpt lat="42.2378133" lon="12.592985"><ele>202.0</ele><time>2026-04-04T15:20:21.721Z</time></trkpt><trkpt lat="42.2379833" lon="12.592815"><ele>202.66666666666666</ele><time>2026-04-04T15:20:22.724Z</time></trkpt><trkpt lat="42.2381467" lon="12.5926583"><ele>203.33333333333331</ele><time>2026-04-04T15:20:23.724Z</time></trkpt><trkpt lat="42.23831" lon="12.5925183"><ele>204.0</ele><time>2026-04-04T15:20:24.723Z</time></trkpt><trkpt lat="42.23847" lon="12.5924"><ele>204.0</ele><time>2026-04-04T15:20:25.728Z</time></trkpt><trkpt lat="42.23863" lon="12.59232"><ele>204.0</ele><time>2026-04-04T15:20:26.727Z</time></trkpt><trkpt lat="42.238785" lon="12.5922767"><ele>204.0</ele><time>2026-04-04T15:20:27.724Z</time></trkpt><trkpt lat="42.2389383" lon="12.5922583"><ele>206.33333333333331</ele><time>2026-04-04T15:20:28.724Z</time></trkpt><trkpt lat="42.2391" lon="12.5922617"><ele>208.66666666666666</ele><time>2026-04-04T15:20:29.726Z</time></trkpt><trkpt lat="42.23928" lon="12.59229"><ele>211.0</ele><time>2026-04-04T15:20:30.723Z</time></trkpt><trkpt lat="42.2394717" lon="12.5923217"><ele>211.0</ele><time>2026-04-04T15:20:31.728Z</time></trkpt><trkpt lat="42.2396717" lon="12.592335"><ele>211.0</ele><time>2026-04-04T15:20:32.728Z</time></trkpt><trkpt lat="42.2398733" lon="12.59233"><ele>211.0</ele><time>2026-04-04T15:20:33.722Z</time></trkpt><trkpt lat="42.240065" lon="12.5922967"><ele>210.66666666666666</ele><time>2026-04-04T15:20:34.727Z</time></trkpt><trkpt lat="42.2402367" lon="12.592225"><ele>210.33333333333331</ele><time>2026-04-04T15:20:35.723Z</time></trkpt><trkpt lat="42.240395" lon="12.59211"><ele>210.0</ele><time>2026-04-04T15:20:36.725Z</time></trkpt><trkpt lat="42.2405283" lon="12.5919367"><ele>209.0</ele><time>2026-04-04T15:20:37.726Z</time></trkpt><trkpt lat="42.24064" lon="12.5917517"><ele>208.0</ele><time>2026-04-04T15:20:38.726Z</time></trkpt><trkpt lat="42.2407517" lon="12.59161"><ele>207.0</ele><time>2026-04-04T15:20:39.725Z</time></trkpt><trkpt lat="42.2408767" lon="12.591515"><ele>207.0</ele><time>2026-04-04T15:20:40.726Z</time></trkpt><trkpt lat="42.2410117" lon="12.5914717"><ele>207.0</ele><time>2026-04-04T15:20:41.722Z</time></trkpt><trkpt lat="42.2411617" lon="12.59148"><ele>207.0</ele><time>2026-04-04T15:20:42.722Z</time></trkpt><trkpt lat="42.2413333" lon="12.5915117"><ele>209.33333333333331</ele><time>2026-04-04T15:20:43.724Z</time></trkpt><trkpt lat="42.2415183" lon="12.5915433"><ele>211.66666666666666</ele><time>2026-04-04T15:20:44.723Z</time></trkpt><trkpt lat="42.2417033" lon="12.5915733"><ele>214.0</ele><time>2026-04-04T15:20:45.723Z</time></trkpt><trkpt lat="42.24188" lon="12.5915967"><ele>214.0</ele><time>2026-04-04T15:20:46.725Z</time></trkpt><trkpt lat="42.242045" lon="12.5916083"><ele>214.0</ele><time>2026-04-04T15:20:47.723Z</time></trkpt><trkpt lat="42.24222" lon="12.591585"><ele>214.0</ele><time>2026-04-04T15:20:48.726Z</time></trkpt><trkpt lat="42.2424017" lon="12.5915533"><ele>212.33333333333331</ele><time>2026-04-04T15:20:49.726Z</time></trkpt><trkpt lat="42.242585" lon="12.5915417"><ele>210.66666666666669</ele><time>2026-04-04T15:20:50.723Z</time></trkpt><trkpt lat="42.24276" lon="12.5915433"><ele>209.0</ele><time>2026-04-04T15:20:51.724Z</time></trkpt><trkpt lat="42.242925" lon="12.5915233"><ele>209.0</ele><time>2026-04-04T15:20:52.723Z</time></trkpt><trkpt lat="42.24308" lon="12.5914683"><ele>209.0</ele><time>2026-04-04T15:20:53.725Z</time></trkpt><trkpt lat="42.2432217" lon="12.5913767"><ele>209.0</ele><time>2026-04-04T15:20:54.725Z</time></trkpt><trkpt lat="42.2433533" lon="12.591265"><ele>209.0</ele><time>2026-04-04T15:20:55.727Z</time></trkpt><trkpt lat="42.2434717" lon="12.59114"><ele>209.0</ele><time>2026-04-04T15:20:56.725Z</time></trkpt><trkpt lat="42.2435817" lon="12.5909967"><ele>209.0</ele><time>2026-04-04T15:20:57.724Z</time></trkpt><trkpt lat="42.2436883" lon="12.5908533"><ele>209.0</ele><time>2026-04-04T15:20:58.725Z</time></trkpt><trkpt lat="42.2437883" lon="12.5907233"><ele>209.0</ele><time>2026-04-04T15:20:59.725Z</time></trkpt><trkpt lat="42.24388" lon="12.5906283"><ele>209.0</ele><time>2026-04-04T15:21:00.729Z</time></trkpt><trkpt lat="42.2439767" lon="12.5905733"><ele>209.0</ele><time>2026-04-04T15:21:01.722Z</time></trkpt><trkpt lat="42.2440767" lon="12.5905683"><ele>212.0</ele><time>2026-04-04T15:21:02.722Z</time></trkpt><trkpt lat="42.2441833" lon="12.5905933"><ele>215.0</ele><time>2026-04-04T15:21:03.722Z</time></trkpt><trkpt lat="42.2442967" lon="12.59064"><ele>218.0</ele><time>2026-04-04T15:21:04.723Z</time></trkpt><trkpt lat="42.2444167" lon="12.5906917"><ele>221.0</ele><time>2026-04-04T15:21:05.721Z</time></trkpt><trkpt lat="42.2445367" lon="12.5907533"><ele>221.0</ele><time>2026-04-04T15:21:06.722Z</time></trkpt><trkpt lat="42.2446567" lon="12.5908217"><ele>221.0</ele><time>2026-04-04T15:21:07.729Z</time></trkpt><trkpt lat="42.2447733" lon="12.5909083"><ele>221.0</ele><time>2026-04-04T15:21:08.723Z</time></trkpt><trkpt lat="42.244885" lon="12.5910033"><ele>221.0</ele><time>2026-04-04T15:21:09.723Z</time></trkpt><trkpt lat="42.245" lon="12.5910917"><ele>223.0</ele><time>2026-04-04T15:21:10.722Z</time></trkpt><trkpt lat="42.2451217" lon="12.59118"><ele>225.0</ele><time>2026-04-04T15:21:11.723Z</time></trkpt><trkpt lat="42.2452717" lon="12.5912517"><ele>227.0</ele><time>2026-04-04T15:21:12.722Z</time></trkpt><trkpt lat="42.2454467" lon="12.5913017"><ele>226.66666666666669</ele><time>2026-04-04T15:21:13.721Z</time></trkpt><trkpt lat="42.2456333" lon="12.5913233"><ele>226.33333333333331</ele><time>2026-04-04T15:21:14.724Z</time></trkpt><trkpt lat="42.2458267" lon="12.5913083"><ele>226.0</ele><time>2026-04-04T15:21:15.727Z</time></trkpt><trkpt lat="42.2460133" lon="12.5912767"><ele>226.0</ele><time>2026-04-04T15:21:16.725Z</time></trkpt><trkpt lat="42.2461783" lon="12.5912383"><ele>226.0</ele><time>2026-04-04T15:21:17.725Z</time></trkpt><trkpt lat="42.2463267" lon="12.59122"><ele>226.0</ele><time>2026-04-04T15:21:18.726Z</time></trkpt><trkpt lat="42.2464683" lon="12.591235"><ele>223.66666666666666</ele><time>2026-04-04T15:21:19.721Z</time></trkpt><trkpt lat="42.2466117" lon="12.59128"><ele>221.33333333333331</ele><time>2026-04-04T15:21:20.723Z</time></trkpt><trkpt lat="42.2467617" lon="12.59134"><ele>219.0</ele><time>2026-04-04T15:21:21.722Z</time></trkpt><trkpt lat="42.2469183" lon="12.5914067"><ele>219.0</ele><time>2026-04-04T15:21:22.723Z</time></trkpt><trkpt lat="42.2470817" lon="12.5914783"><ele>219.0</ele><time>2026-04-04T15:21:23.728Z</time></trkpt><trkpt lat="42.24725" lon="12.59155"><ele>219.0</ele><time>2026-04-04T15:21:24.723Z</time></trkpt><trkpt lat="42.2474167" lon="12.5916267"><ele>220.0</ele><time>2026-04-04T15:21:25.722Z</time></trkpt><trkpt lat="42.2475817" lon="12.5917083"><ele>221.0</ele><time>2026-04-04T15:21:26.723Z</time></trkpt><trkpt lat="42.2477483" lon="12.591785"><ele>222.0</ele><time>2026-04-04T15:21:27.723Z</time></trkpt><trkpt lat="42.2479083" lon="12.5918617"><ele>222.0</ele><time>2026-04-04T15:21:28.725Z</time></trkpt><trkpt lat="42.2480583" lon="12.5919433"><ele>222.0</ele><time>2026-04-04T15:21:29.722Z</time></trkpt><trkpt lat="42.2481967" lon="12.59205"><ele>222.0</ele><time>2026-04-04T15:21:30.723Z</time></trkpt><trkpt lat="42.2483167" lon="12.5921817"><ele>221.0</ele><time>2026-04-04T15:21:31.726Z</time></trkpt><trkpt lat="42.2484367" lon="12.592325"><ele>220.0</ele><time>2026-04-04T15:21:32.724Z</time></trkpt><trkpt lat="42.2485583" lon="12.5924817"><ele>219.0</ele><time>2026-04-04T15:21:33.722Z</time></trkpt><trkpt lat="42.2486767" lon="12.5926417"><ele>219.0</ele><time>2026-04-04T15:21:34.726Z</time></trkpt><trkpt lat="42.2487983" lon="12.592805"><ele>219.0</ele><time>2026-04-04T15:21:35.727Z</time></trkpt><trkpt lat="42.24892" lon="12.5929517"><ele>219.0</ele><time>2026-04-04T15:21:36.724Z</time></trkpt><trkpt lat="42.24904" lon="12.5930767"><ele>220.75</ele><time>2026-04-04T15:21:37.725Z</time></trkpt><trkpt lat="42.2491667" lon="12.59318"><ele>222.5</ele><time>2026-04-04T15:21:38.723Z</time></trkpt><trkpt lat="42.2492967" lon="12.59327"><ele>224.25</ele><time>2026-04-04T15:21:39.722Z</time></trkpt><trkpt lat="42.2494233" lon="12.5933467"><ele>226.0</ele><time>2026-04-04T15:21:40.726Z</time></trkpt><trkpt lat="42.2495533" lon="12.5934233"><ele>226.0</ele><time>2026-04-04T15:21:41.721Z</time></trkpt><trkpt lat="42.2496783" lon="12.5934933"><ele>226.0</ele><time>2026-04-04T15:21:42.727Z</time></trkpt><trkpt lat="42.2497933" lon="12.59356"><ele>226.0</ele><time>2026-04-04T15:21:43.723Z</time></trkpt><trkpt lat="42.2499017" lon="12.593625"><ele>226.0</ele><time>2026-04-04T15:21:44.722Z</time></trkpt><trkpt lat="42.25" lon="12.5936883"><ele>226.75</ele><time>2026-04-04T15:21:45.725Z</time></trkpt><trkpt lat="42.2501" lon="12.5937433"><ele>227.5</ele><time>2026-04-04T15:21:46.722Z</time></trkpt><trkpt lat="42.2502033" lon="12.5937917"><ele>228.25</ele><time>2026-04-04T15:21:47.721Z</time></trkpt><trkpt lat="42.2503133" lon="12.593845"><ele>229.0</ele><time>2026-04-04T15:21:48.729Z</time></trkpt><trkpt lat="42.2504267" lon="12.5939083"><ele>229.0</ele><time>2026-04-04T15:21:49.725Z</time></trkpt><trkpt lat="42.250535" lon="12.593975"><ele>228.99999999999997</ele><time>2026-04-04T15:21:50.725Z</time></trkpt><trkpt lat="42.25063" lon="12.5940433"><ele>228.99999999999997</ele><time>2026-04-04T15:21:51.725Z</time></trkpt><trkpt lat="42.2507033" lon="12.5941083"><ele>229.0</ele><time>2026-04-04T15:21:52.722Z</time></trkpt><trkpt lat="42.2507667" lon="12.5941633"><ele>229.0</ele><time>2026-04-04T15:21:53.723Z</time></trkpt><trkpt lat="42.250865" lon="12.5942017"><ele>229.75</ele><time>2026-04-04T15:21:55.723Z</time></trkpt><trkpt lat="42.2509967" lon="12.59414"><ele>230.5</ele><time>2026-04-04T15:21:57.722Z</time></trkpt><trkpt lat="42.251095" lon="12.5940633"><ele>231.25</ele><time>2026-04-04T15:21:58.723Z</time></trkpt><trkpt lat="42.2512" lon="12.5939767"><ele>232.0</ele><time>2026-04-04T15:21:59.722Z</time></trkpt><trkpt lat="42.2513067" lon="12.5938717"><ele>232.0</ele><time>2026-04-04T15:22:00.728Z</time></trkpt><trkpt lat="42.2514183" lon="12.5937417"><ele>232.0</ele><time>2026-04-04T15:22:01.724Z</time></trkpt><trkpt lat="42.251525" lon="12.5935933"><ele>232.0</ele><time>2026-04-04T15:22:02.727Z</time></trkpt><trkpt lat="42.2516183" lon="12.5934333"><ele>230.33333333333331</ele><time>2026-04-04T15:22:03.722Z</time></trkpt><trkpt lat="42.251695" lon="12.5932617"><ele>228.66666666666669</ele><time>2026-04-04T15:22:04.725Z</time></trkpt><trkpt lat="42.2517633" lon="12.59308"><ele>227.0</ele><time>2026-04-04T15:22:05.726Z</time></trkpt><trkpt lat="42.25182" lon="12.5928817"><ele>226.0</ele><time>2026-04-04T15:22:06.723Z</time></trkpt><trkpt lat="42.251875" lon="12.5926767"><ele>225.0</ele><time>2026-04-04T15:22:07.723Z</time></trkpt><trkpt lat="42.251935" lon="12.59247"><ele>224.0</ele><time>2026-04-04T15:22:08.724Z</time></trkpt><trkpt lat="42.25201" lon="12.5922733"><ele>224.0</ele><time>2026-04-04T15:22:09.725Z</time></trkpt><trkpt lat="42.25209" lon="12.592085"><ele>224.0</ele><time>2026-04-04T15:22:10.726Z</time></trkpt><trkpt lat="42.25216" lon="12.5918933"><ele>224.0</ele><time>2026-04-04T15:22:11.724Z</time></trkpt><trkpt lat="42.2522133" lon="12.5916967"><ele>222.0</ele><time>2026-04-04T15:22:12.728Z</time></trkpt><trkpt lat="42.2522417" lon="12.59149"><ele>220.0</ele><time>2026-04-04T15:22:13.724Z</time></trkpt><trkpt lat="42.2522467" lon="12.5912733"><ele>218.0</ele><time>2026-04-04T15:22:14.725Z</time></trkpt><trkpt lat="42.252235" lon="12.59106"><ele>216.66666666666669</ele><time>2026-04-04T15:22:15.725Z</time></trkpt><trkpt lat="42.2522267" lon="12.5908317"><ele>215.33333333333331</ele><time>2026-04-04T15:22:16.726Z</time></trkpt><trkpt lat="42.2522317" lon="12.5905883"><ele>214.0</ele><time>2026-04-04T15:22:17.723Z</time></trkpt><trkpt lat="42.2522383" lon="12.590335"><ele>214.0</ele><time>2026-04-04T15:22:18.726Z</time></trkpt><trkpt lat="42.2522567" lon="12.59008"><ele>214.0</ele><time>2026-04-04T15:22:19.723Z</time></trkpt><trkpt lat="42.2522917" lon="12.589835"><ele>214.0</ele><time>2026-04-04T15:22:20.724Z</time></trkpt><trkpt lat="42.2523383" lon="12.5895983"><ele>213.33333333333331</ele><time>2026-04-04T15:22:21.726Z</time></trkpt><trkpt lat="42.2523967" lon="12.5893683"><ele>212.66666666666669</ele><time>2026-04-04T15:22:22.724Z</time></trkpt><trkpt lat="42.2524583" lon="12.589155"><ele>212.0</ele><time>2026-04-04T15:22:23.728Z</time></trkpt><trkpt lat="42.25253" lon="12.5889617"><ele>212.0</ele><time>2026-04-04T15:22:24.722Z</time></trkpt><trkpt lat="42.2526233" lon="12.58879"><ele>212.0</ele><time>2026-04-04T15:22:25.728Z</time></trkpt><trkpt lat="42.2527383" lon="12.5886267"><ele>212.0</ele><time>2026-04-04T15:22:26.723Z</time></trkpt><trkpt lat="42.2528567" lon="12.5884633"><ele>209.33333333333334</ele><time>2026-04-04T15:22:27.723Z</time></trkpt><trkpt lat="42.252965" lon="12.58829"><ele>206.66666666666669</ele><time>2026-04-04T15:22:28.729Z</time></trkpt><trkpt lat="42.2530467" lon="12.58809"><ele>204.0</ele><time>2026-04-04T15:22:29.729Z</time></trkpt><trkpt lat="42.253105" lon="12.5878833"><ele>205.25</ele><time>2026-04-04T15:22:30.724Z</time></trkpt><trkpt lat="42.2531633" lon="12.5877033"><ele>206.5</ele><time>2026-04-04T15:22:31.725Z</time></trkpt><trkpt lat="42.253225" lon="12.5875583"><ele>207.75</ele><time>2026-04-04T15:22:32.725Z</time></trkpt><trkpt lat="42.2533067" lon="12.587445"><ele>209.0</ele><time>2026-04-04T15:22:33.726Z</time></trkpt><trkpt lat="42.2534183" lon="12.5873633"><ele>209.0</ele><time>2026-04-04T15:22:34.723Z</time></trkpt><trkpt lat="42.2535533" lon="12.5873067"><ele>209.0</ele><time>2026-04-04T15:22:35.721Z</time></trkpt><trkpt lat="42.253705" lon="12.587255"><ele>209.0</ele><time>2026-04-04T15:22:36.721Z</time></trkpt><trkpt lat="42.2538733" lon="12.5872017"><ele>209.33333333333334</ele><time>2026-04-04T15:22:37.722Z</time></trkpt><trkpt lat="42.2540467" lon="12.5871417"><ele>209.66666666666669</ele><time>2026-04-04T15:22:38.725Z</time></trkpt><trkpt lat="42.25423" lon="12.587075"><ele>210.0</ele><time>2026-04-04T15:22:39.724Z</time></trkpt><trkpt lat="42.254415" lon="12.5870017"><ele>207.33333333333331</ele><time>2026-04-04T15:22:40.724Z</time></trkpt><trkpt lat="42.2545983" lon="12.5869117"><ele>204.66666666666666</ele><time>2026-04-04T15:22:41.722Z</time></trkpt><trkpt lat="42.254775" lon="12.5868017"><ele>202.0</ele><time>2026-04-04T15:22:42.722Z</time></trkpt><trkpt lat="42.2549467" lon="12.5866667"><ele>202.0</ele><time>2026-04-04T15:22:43.723Z</time></trkpt><trkpt lat="42.2551083" lon="12.5865133"><ele>202.0</ele><time>2026-04-04T15:22:44.727Z</time></trkpt><trkpt lat="42.2552667" lon="12.586355"><ele>202.0</ele><time>2026-04-04T15:22:45.729Z</time></trkpt><trkpt lat="42.2554183" lon="12.58618"><ele>200.66666666666666</ele><time>2026-04-04T15:22:46.721Z</time></trkpt><trkpt lat="42.2555583" lon="12.5859883"><ele>199.33333333333331</ele><time>2026-04-04T15:22:47.723Z</time></trkpt><trkpt lat="42.2556883" lon="12.58579"><ele>198.0</ele><time>2026-04-04T15:22:48.725Z</time></trkpt><trkpt lat="42.2558033" lon="12.5855917"><ele>198.0</ele><time>2026-04-04T15:22:49.726Z</time></trkpt><trkpt lat="42.2559" lon="12.5853983"><ele>198.0</ele><time>2026-04-04T15:22:50.723Z</time></trkpt><trkpt lat="42.2559683" lon="12.58521"><ele>198.0</ele><time>2026-04-04T15:22:51.724Z</time></trkpt><trkpt lat="42.2559967" lon="12.585015"><ele>194.33333333333334</ele><time>2026-04-04T15:22:52.723Z</time></trkpt><trkpt lat="42.2559783" lon="12.5847967"><ele>190.66666666666669</ele><time>2026-04-04T15:22:53.729Z</time></trkpt><trkpt lat="42.2559383" lon="12.5845617"><ele>187.0</ele><time>2026-04-04T15:22:54.725Z</time></trkpt><trkpt lat="42.255885" lon="12.5843133"><ele>187.0</ele><time>2026-04-04T15:22:55.725Z</time></trkpt><trkpt lat="42.255825" lon="12.58406"><ele>187.0</ele><time>2026-04-04T15:22:56.724Z</time></trkpt><trkpt lat="42.25576" lon="12.5838133"><ele>187.0</ele><time>2026-04-04T15:22:57.723Z</time></trkpt><trkpt lat="42.25569" lon="12.58358"><ele>179.33333333333334</ele><time>2026-04-04T15:22:58.724Z</time></trkpt><trkpt lat="42.2556117" lon="12.5833567"><ele>171.66666666666666</ele><time>2026-04-04T15:22:59.722Z</time></trkpt><trkpt lat="42.2555283" lon="12.5831467"><ele>164.0</ele><time>2026-04-04T15:23:00.723Z</time></trkpt><trkpt lat="42.2554617" lon="12.5829717"><ele>164.0</ele><time>2026-04-04T15:23:01.723Z</time></trkpt><trkpt lat="42.255415" lon="12.5828083"><ele>164.0</ele><time>2026-04-04T15:23:02.725Z</time></trkpt><trkpt lat="42.2554" lon="12.58264"><ele>164.0</ele><time>2026-04-04T15:23:03.723Z</time></trkpt><trkpt lat="42.25542" lon="12.5824667"><ele>164.0</ele><time>2026-04-04T15:23:04.726Z</time></trkpt><trkpt lat="42.2554517" lon="12.5822817"><ele>164.0</ele><time>2026-04-04T15:23:05.723Z</time></trkpt><trkpt lat="42.255495" lon="12.5820867"><ele>164.0</ele><time>2026-04-04T15:23:06.724Z</time></trkpt><trkpt lat="42.25554" lon="12.58189"><ele>164.0</ele><time>2026-04-04T15:23:07.727Z</time></trkpt><trkpt lat="42.25559" lon="12.581715"><ele>164.0</ele><time>2026-04-04T15:23:08.724Z</time></trkpt><trkpt lat="42.255645" lon="12.5815567"><ele>166.25</ele><time>2026-04-04T15:23:09.723Z</time></trkpt><trkpt lat="42.2557217" lon="12.5814317"><ele>168.5</ele><time>2026-04-04T15:23:10.723Z</time></trkpt><trkpt lat="42.25583" lon="12.58134"><ele>170.75</ele><time>2026-04-04T15:23:11.724Z</time></trkpt><trkpt lat="42.25597" lon="12.581285"><ele>173.0</ele><time>2026-04-04T15:23:12.724Z</time></trkpt><trkpt lat="42.25613" lon="12.58126"><ele>173.0</ele><time>2026-04-04T15:23:13.728Z</time></trkpt><trkpt lat="42.25631" lon="12.5812483"><ele>173.0</ele><time>2026-04-04T15:23:14.723Z</time></trkpt><trkpt lat="42.25649" lon="12.5812433"><ele>173.0</ele><time>2026-04-04T15:23:15.731Z</time></trkpt><trkpt lat="42.2566533" lon="12.5812467"><ele>172.0</ele><time>2026-04-04T15:23:16.725Z</time></trkpt><trkpt lat="42.2567967" lon="12.58124"><ele>171.0</ele><time>2026-04-04T15:23:17.723Z</time></trkpt><trkpt lat="42.25692" lon="12.5811933"><ele>170.0</ele><time>2026-04-04T15:23:18.732Z</time></trkpt><trkpt lat="42.2570217" lon="12.5811"><ele>169.0</ele><time>2026-04-04T15:23:19.724Z</time></trkpt><trkpt lat="42.2570917" lon="12.5809567"><ele>165.33333333333334</ele><time>2026-04-04T15:23:20.725Z</time></trkpt><trkpt lat="42.257115" lon="12.5807783"><ele>161.66666666666666</ele><time>2026-04-04T15:23:21.726Z</time></trkpt><trkpt lat="42.257095" lon="12.5805867"><ele>158.0</ele><time>2026-04-04T15:23:22.727Z</time></trkpt><trkpt lat="42.2570317" lon="12.5803667"><ele>157.33333333333331</ele><time>2026-04-04T15:23:23.725Z</time></trkpt><trkpt lat="42.2569317" lon="12.5801167"><ele>156.66666666666666</ele><time>2026-04-04T15:23:24.729Z</time></trkpt><trkpt lat="42.25681" lon="12.57986"><ele>156.0</ele><time>2026-04-04T15:23:25.724Z</time></trkpt><trkpt lat="42.2566767" lon="12.579615"><ele>158.66666666666666</ele><time>2026-04-04T15:23:26.722Z</time></trkpt><trkpt lat="42.256535" lon="12.579385"><ele>161.33333333333331</ele><time>2026-04-04T15:23:27.724Z</time></trkpt><trkpt lat="42.2564117" lon="12.5791817"><ele>164.0</ele><time>2026-04-04T15:23:28.723Z</time></trkpt><trkpt lat="42.256315" lon="12.578995"><ele>160.25</ele><time>2026-04-04T15:23:29.725Z</time></trkpt><trkpt lat="42.2562567" lon="12.5788133"><ele>156.5</ele><time>2026-04-04T15:23:30.725Z</time></trkpt><trkpt lat="42.2562517" lon="12.57861"><ele>152.75</ele><time>2026-04-04T15:23:31.725Z</time></trkpt><trkpt lat="42.2562833" lon="12.57842"><ele>149.0</ele><time>2026-04-04T15:23:32.727Z</time></trkpt><trkpt lat="42.2563517" lon="12.5782483"><ele>149.0</ele><time>2026-04-04T15:23:33.725Z</time></trkpt><trkpt lat="42.25645" lon="12.57808"><ele>149.0</ele><time>2026-04-04T15:23:34.726Z</time></trkpt><trkpt lat="42.2565917" lon="12.5779333"><ele>149.0</ele><time>2026-04-04T15:23:35.723Z</time></trkpt><trkpt lat="42.2567567" lon="12.577805"><ele>149.66666666666666</ele><time>2026-04-04T15:23:36.723Z</time></trkpt><trkpt lat="42.2569383" lon="12.577695"><ele>150.33333333333334</ele><time>2026-04-04T15:23:37.723Z</time></trkpt><trkpt lat="42.2571233" lon="12.5776133"><ele>151.0</ele><time>2026-04-04T15:23:38.723Z</time></trkpt><trkpt lat="42.2573133" lon="12.5775617"><ele>154.0</ele><time>2026-04-04T15:23:39.727Z</time></trkpt><trkpt lat="42.25752" lon="12.57754"><ele>157.0</ele><time>2026-04-04T15:23:40.726Z</time></trkpt><trkpt lat="42.2577383" lon="12.5775317"><ele>160.0</ele><time>2026-04-04T15:23:41.725Z</time></trkpt><trkpt lat="42.257935" lon="12.5775133"><ele>160.0</ele><time>2026-04-04T15:23:42.725Z</time></trkpt><trkpt lat="42.2580917" lon="12.5774783"><ele>160.0</ele><time>2026-04-04T15:23:43.725Z</time></trkpt><trkpt lat="42.2582083" lon="12.5774183"><ele>160.0</ele><time>2026-04-04T15:23:44.727Z</time></trkpt><trkpt lat="42.2582933" lon="12.5773167"><ele>160.0</ele><time>2026-04-04T15:23:45.729Z</time></trkpt><trkpt lat="42.25834" lon="12.5771767"><ele>161.33333333333334</ele><time>2026-04-04T15:23:46.724Z</time></trkpt><trkpt lat="42.25835" lon="12.57702"><ele>162.66666666666666</ele><time>2026-04-04T15:23:47.722Z</time></trkpt><trkpt lat="42.2582667" lon="12.5766567"><ele>164.0</ele><time>2026-04-04T15:23:49.724Z</time></trkpt><trkpt lat="42.2581733" lon="12.5764433"><ele>164.0</ele><time>2026-04-04T15:23:50.723Z</time></trkpt><trkpt lat="42.2580567" lon="12.5762533"><ele>164.0</ele><time>2026-04-04T15:23:51.722Z</time></trkpt><trkpt lat="42.2579433" lon="12.5760867"><ele>164.0</ele><time>2026-04-04T15:23:52.723Z</time></trkpt><trkpt lat="42.2578583" lon="12.5759217"><ele>164.0</ele><time>2026-04-04T15:23:53.722Z</time></trkpt><trkpt lat="42.25781" lon="12.5757533"><ele>164.0</ele><time>2026-04-04T15:23:54.722Z</time></trkpt><trkpt lat="42.2578017" lon="12.5755683"><ele>164.0</ele><time>2026-04-04T15:23:55.722Z</time></trkpt><trkpt lat="42.2578167" lon="12.5753817"><ele>164.0</ele><time>2026-04-04T15:23:56.725Z</time></trkpt><trkpt lat="42.2578483" lon="12.5751867"><ele>163.33333333333331</ele><time>2026-04-04T15:23:57.726Z</time></trkpt><trkpt lat="42.2579083" lon="12.5749833"><ele>162.66666666666666</ele><time>2026-04-04T15:23:58.723Z</time></trkpt><trkpt lat="42.2579917" lon="12.5747883"><ele>162.0</ele><time>2026-04-04T15:23:59.727Z</time></trkpt><trkpt lat="42.25809" lon="12.5746"><ele>163.66666666666666</ele><time>2026-04-04T15:24:00.725Z</time></trkpt><trkpt lat="42.2581983" lon="12.57441"><ele>165.33333333333331</ele><time>2026-04-04T15:24:01.726Z</time></trkpt><trkpt lat="42.2583083" lon="12.57424"><ele>167.0</ele><time>2026-04-04T15:24:02.724Z</time></trkpt><trkpt lat="42.2583933" lon="12.5740783"><ele>167.0</ele><time>2026-04-04T15:24:03.722Z</time></trkpt><trkpt lat="42.258445" lon="12.573915"><ele>167.0</ele><time>2026-04-04T15:24:04.722Z</time></trkpt><trkpt lat="42.25845" lon="12.5737383"><ele>167.0</ele><time>2026-04-04T15:24:05.726Z</time></trkpt><trkpt lat="42.2584083" lon="12.5735417"><ele>167.0</ele><time>2026-04-04T15:24:06.723Z</time></trkpt><trkpt lat="42.2583433" lon="12.573365"><ele>168.0</ele><time>2026-04-04T15:24:07.728Z</time></trkpt><trkpt lat="42.258255" lon="12.5732267"><ele>169.0</ele><time>2026-04-04T15:24:08.725Z</time></trkpt><trkpt lat="42.2581267" lon="12.5731233"><ele>170.0</ele><time>2026-04-04T15:24:09.722Z</time></trkpt><trkpt lat="42.2579617" lon="12.5730633"><ele>170.0</ele><time>2026-04-04T15:24:10.727Z</time></trkpt><trkpt lat="42.257775" lon="12.5730233"><ele>170.0</ele><time>2026-04-04T15:24:11.723Z</time></trkpt><trkpt lat="42.2575767" lon="12.5729917"><ele>170.0</ele><time>2026-04-04T15:24:12.724Z</time></trkpt><trkpt lat="42.2573817" lon="12.57298"><ele>169.66666666666666</ele><time>2026-04-04T15:24:13.732Z</time></trkpt><trkpt lat="42.2572017" lon="12.5729933"><ele>169.33333333333334</ele><time>2026-04-04T15:24:14.726Z</time></trkpt><trkpt lat="42.25705" lon="12.5729933"><ele>169.0</ele><time>2026-04-04T15:24:15.725Z</time></trkpt><trkpt lat="42.2569233" lon="12.5729683"><ele>169.0</ele><time>2026-04-04T15:24:16.724Z</time></trkpt><trkpt lat="42.2568267" lon="12.572905"><ele>169.0</ele><time>2026-04-04T15:24:17.721Z</time></trkpt><trkpt lat="42.2567617" lon="12.572785"><ele>169.0</ele><time>2026-04-04T15:24:18.725Z</time></trkpt><trkpt lat="42.25672" lon="12.5726517"><ele>169.0</ele><time>2026-04-04T15:24:19.723Z</time></trkpt><trkpt lat="42.256705" lon="12.5725233"><ele>169.0</ele><time>2026-04-04T15:24:20.728Z</time></trkpt><trkpt lat="42.2567033" lon="12.5723967"><ele>170.5</ele><time>2026-04-04T15:24:21.723Z</time></trkpt><trkpt lat="42.2567433" lon="12.572295"><ele>172.0</ele><time>2026-04-04T15:24:22.723Z</time></trkpt><trkpt lat="42.2567683" lon="12.5721983"><ele>173.5</ele><time>2026-04-04T15:24:23.723Z</time></trkpt><trkpt lat="42.2567917" lon="12.5720967"><ele>175.0</ele><time>2026-04-04T15:24:24.725Z</time></trkpt><trkpt lat="42.2568033" lon="12.5719783"><ele>176.5</ele><time>2026-04-04T15:24:25.723Z</time></trkpt><trkpt lat="42.2568067" lon="12.5718467"><ele>178.0</ele><time>2026-04-04T15:24:26.723Z</time></trkpt><trkpt lat="42.2568117" lon="12.5717083"><ele>178.33333333333334</ele><time>2026-04-04T15:24:27.722Z</time></trkpt><trkpt lat="42.2568167" lon="12.5715783"><ele>178.66666666666669</ele><time>2026-04-04T15:24:28.725Z</time></trkpt><trkpt lat="42.25683" lon="12.5714517"><ele>179.0</ele><time>2026-04-04T15:24:29.722Z</time></trkpt><trkpt lat="42.2568367" lon="12.5713367"><ele>179.33333333333334</ele><time>2026-04-04T15:24:30.723Z</time></trkpt><trkpt lat="42.2568417" lon="12.5712333"><ele>179.66666666666666</ele><time>2026-04-04T15:24:31.723Z</time></trkpt><trkpt lat="42.2568417" lon="12.571115"><ele>180.0</ele><time>2026-04-04T15:24:32.723Z</time></trkpt><trkpt lat="42.2568533" lon="12.57097"><ele>180.0</ele><time>2026-04-04T15:24:33.725Z</time></trkpt><trkpt lat="42.2568617" lon="12.5708183"><ele>180.0</ele><time>2026-04-04T15:24:34.725Z</time></trkpt><trkpt lat="42.256885" lon="12.57066"><ele>180.0</ele><time>2026-04-04T15:24:35.725Z</time></trkpt><trkpt lat="42.256905" lon="12.5705"><ele>180.0</ele><time>2026-04-04T15:24:36.725Z</time></trkpt><trkpt lat="42.2569267" lon="12.5703383"><ele>178.0</ele><time>2026-04-04T15:24:37.727Z</time></trkpt><trkpt lat="42.2569383" lon="12.5701833"><ele>176.0</ele><time>2026-04-04T15:24:38.728Z</time></trkpt><trkpt lat="42.2569433" lon="12.57005"><ele>174.0</ele><time>2026-04-04T15:24:39.724Z</time></trkpt><trkpt lat="42.256955" lon="12.569925"><ele>172.0</ele><time>2026-04-04T15:24:40.725Z</time></trkpt><trkpt lat="42.2569933" lon="12.56981"><ele>170.0</ele><time>2026-04-04T15:24:41.723Z</time></trkpt><trkpt lat="42.2570583" lon="12.5697167"><ele>170.0</ele><time>2026-04-04T15:24:42.723Z</time></trkpt><trkpt lat="42.257145" lon="12.569635"><ele>170.0</ele><time>2026-04-04T15:24:43.722Z</time></trkpt><trkpt lat="42.257265" lon="12.5695533"><ele>170.0</ele><time>2026-04-04T15:24:44.727Z</time></trkpt><trkpt lat="42.2574067" lon="12.5694733"><ele>170.0</ele><time>2026-04-04T15:24:45.722Z</time></trkpt><trkpt lat="42.25756" lon="12.5693767"><ele>170.66666666666666</ele><time>2026-04-04T15:24:46.724Z</time></trkpt><trkpt lat="42.2577067" lon="12.5692717"><ele>171.33333333333334</ele><time>2026-04-04T15:24:47.723Z</time></trkpt><trkpt lat="42.257855" lon="12.569185"><ele>172.0</ele><time>2026-04-04T15:24:48.727Z</time></trkpt><trkpt lat="42.2579933" lon="12.5691167"><ele>170.75</ele><time>2026-04-04T15:24:49.723Z</time></trkpt><trkpt lat="42.25812" lon="12.5690783"><ele>169.5</ele><time>2026-04-04T15:24:50.727Z</time></trkpt><trkpt lat="42.2582417" lon="12.5690783"><ele>168.25</ele><time>2026-04-04T15:24:51.729Z</time></trkpt><trkpt lat="42.258365" lon="12.5691"><ele>167.0</ele><time>2026-04-04T15:24:52.723Z</time></trkpt><trkpt lat="42.2584917" lon="12.5691267"><ele>167.0</ele><time>2026-04-04T15:24:53.723Z</time></trkpt><trkpt lat="42.2586317" lon="12.5691633"><ele>167.0</ele><time>2026-04-04T15:24:54.726Z</time></trkpt><trkpt lat="42.2587783" lon="12.569185"><ele>167.0</ele><time>2026-04-04T15:24:55.723Z</time></trkpt><trkpt lat="42.258935" lon="12.5692033"><ele>167.0</ele><time>2026-04-04T15:24:56.726Z</time></trkpt><trkpt lat="42.2590833" lon="12.5692083"><ele>166.0</ele><time>2026-04-04T15:24:57.726Z</time></trkpt><trkpt lat="42.2592283" lon="12.5691817"><ele>165.0</ele><time>2026-04-04T15:24:58.723Z</time></trkpt><trkpt lat="42.2593567" lon="12.5691133"><ele>164.0</ele><time>2026-04-04T15:24:59.723Z</time></trkpt><trkpt lat="42.2594717" lon="12.569"><ele>163.0</ele><time>2026-04-04T15:25:00.725Z</time></trkpt><trkpt lat="42.259585" lon="12.5688417"><ele>165.75</ele><time>2026-04-04T15:25:01.726Z</time></trkpt><trkpt lat="42.2597017" lon="12.5686783"><ele>168.5</ele><time>2026-04-04T15:25:02.729Z</time></trkpt><trkpt lat="42.259795" lon="12.568525"><ele>171.25</ele><time>2026-04-04T15:25:03.723Z</time></trkpt><trkpt lat="42.259865" lon="12.56838"><ele>174.0</ele><time>2026-04-04T15:25:04.725Z</time></trkpt><trkpt lat="42.2599067" lon="12.56823"><ele>168.75</ele><time>2026-04-04T15:25:05.727Z</time></trkpt><trkpt lat="42.2599217" lon="12.5680517"><ele>163.5</ele><time>2026-04-04T15:25:06.723Z</time></trkpt><trkpt lat="42.25992" lon="12.567845"><ele>158.25</ele><time>2026-04-04T15:25:07.727Z</time></trkpt><trkpt lat="42.259915" lon="12.5676317"><ele>153.0</ele><time>2026-04-04T15:25:08.725Z</time></trkpt><trkpt lat="42.2599267" lon="12.56743"><ele>153.0</ele><time>2026-04-04T15:25:09.723Z</time></trkpt><trkpt lat="42.259955" lon="12.567235"><ele>153.0</ele><time>2026-04-04T15:25:10.721Z</time></trkpt><trkpt lat="42.260015" lon="12.5670533"><ele>153.0</ele><time>2026-04-04T15:25:11.724Z</time></trkpt><trkpt lat="42.2600967" lon="12.5668783"><ele>153.0</ele><time>2026-04-04T15:25:12.723Z</time></trkpt><trkpt lat="42.260175" lon="12.5666717"><ele>155.66666666666666</ele><time>2026-04-04T15:25:13.723Z</time></trkpt><trkpt lat="42.260245" lon="12.56645"><ele>158.33333333333331</ele><time>2026-04-04T15:25:14.725Z</time></trkpt><trkpt lat="42.2603233" lon="12.5662367"><ele>161.0</ele><time>2026-04-04T15:25:15.722Z</time></trkpt><trkpt lat="42.2604233" lon="12.56604"><ele>164.33333333333331</ele><time>2026-04-04T15:25:16.722Z</time></trkpt><trkpt lat="42.2605367" lon="12.5658617"><ele>167.66666666666666</ele><time>2026-04-04T15:25:17.727Z</time></trkpt><trkpt lat="42.26063" lon="12.5657017"><ele>171.0</ele><time>2026-04-04T15:25:18.723Z</time></trkpt><trkpt lat="42.2607" lon="12.5655533"><ele>165.0</ele><time>2026-04-04T15:25:19.723Z</time></trkpt><trkpt lat="42.26074" lon="12.5653917"><ele>159.0</ele><time>2026-04-04T15:25:20.723Z</time></trkpt><trkpt lat="42.2607583" lon="12.565205"><ele>153.0</ele><time>2026-04-04T15:25:21.723Z</time></trkpt><trkpt lat="42.2607417" lon="12.5649867"><ele>147.0</ele><time>2026-04-04T15:25:22.734Z</time></trkpt><trkpt lat="42.2607183" lon="12.5647567"><ele>147.0</ele><time>2026-04-04T15:25:23.725Z</time></trkpt><trkpt lat="42.260705" lon="12.5645333"><ele>147.0</ele><time>2026-04-04T15:25:24.724Z</time></trkpt><trkpt lat="42.260715" lon="12.5643183"><ele>147.0</ele><time>2026-04-04T15:25:25.723Z</time></trkpt><trkpt lat="42.2607417" lon="12.56411"><ele>148.0</ele><time>2026-04-04T15:25:26.724Z</time></trkpt><trkpt lat="42.2608067" lon="12.5639233"><ele>149.0</ele><time>2026-04-04T15:25:27.722Z</time></trkpt><trkpt lat="42.260915" lon="12.5637533"><ele>150.0</ele><time>2026-04-04T15:25:28.722Z</time></trkpt><trkpt lat="42.2610533" lon="12.5635783"><ele>155.0</ele><time>2026-04-04T15:25:29.722Z</time></trkpt><trkpt lat="42.2612033" lon="12.5634017"><ele>160.0</ele><time>2026-04-04T15:25:30.727Z</time></trkpt><trkpt lat="42.2613383" lon="12.5632133"><ele>165.0</ele><time>2026-04-04T15:25:31.727Z</time></trkpt><trkpt lat="42.2614567" lon="12.5630083"><ele>156.33333333333334</ele><time>2026-04-04T15:25:32.726Z</time></trkpt><trkpt lat="42.2615617" lon="12.562795"><ele>147.66666666666669</ele><time>2026-04-04T15:25:33.725Z</time></trkpt><trkpt lat="42.261655" lon="12.5625733"><ele>139.0</ele><time>2026-04-04T15:25:34.722Z</time></trkpt><trkpt lat="42.2617367" lon="12.5623383"><ele>139.0</ele><time>2026-04-04T15:25:35.723Z</time></trkpt><trkpt lat="42.2618117" lon="12.56209"><ele>139.0</ele><time>2026-04-04T15:25:36.724Z</time></trkpt><trkpt lat="42.2618817" lon="12.5618283"><ele>139.0</ele><time>2026-04-04T15:25:37.724Z</time></trkpt><trkpt lat="42.2619467" lon="12.5615583"><ele>142.33333333333334</ele><time>2026-04-04T15:25:38.726Z</time></trkpt><trkpt lat="42.26201" lon="12.5612817"><ele>145.66666666666666</ele><time>2026-04-04T15:25:39.729Z</time></trkpt><trkpt lat="42.2620783" lon="12.5610033"><ele>149.0</ele><time>2026-04-04T15:25:40.724Z</time></trkpt><trkpt lat="42.2621567" lon="12.5607283"><ele>150.0</ele><time>2026-04-04T15:25:41.722Z</time></trkpt><trkpt lat="42.2622333" lon="12.5604567"><ele>151.0</ele><time>2026-04-04T15:25:42.725Z</time></trkpt><trkpt lat="42.2623133" lon="12.5601867"><ele>152.0</ele><time>2026-04-04T15:25:43.724Z</time></trkpt><trkpt lat="42.26238" lon="12.5599183"><ele>139.0</ele><time>2026-04-04T15:25:44.727Z</time></trkpt><trkpt lat="42.2624367" lon="12.5596483"><ele>126.0</ele><time>2026-04-04T15:25:45.724Z</time></trkpt><trkpt lat="42.262495" lon="12.559385"><ele>113.0</ele><time>2026-04-04T15:25:46.728Z</time></trkpt><trkpt lat="42.262555" lon="12.5591267"><ele>112.66666666666666</ele><time>2026-04-04T15:25:47.727Z</time></trkpt><trkpt lat="42.2626283" lon="12.5588733"><ele>112.33333333333334</ele><time>2026-04-04T15:25:48.722Z</time></trkpt><trkpt lat="42.2627133" lon="12.558625"><ele>112.0</ele><time>2026-04-04T15:25:49.725Z</time></trkpt><trkpt lat="42.2627917" lon="12.5583667"><ele>111.0</ele><time>2026-04-04T15:25:50.723Z</time></trkpt><trkpt lat="42.262865" lon="12.55811"><ele>110.0</ele><time>2026-04-04T15:25:51.727Z</time></trkpt><trkpt lat="42.2629367" lon="12.5578567"><ele>109.0</ele><time>2026-04-04T15:25:52.723Z</time></trkpt><trkpt lat="42.2630017" lon="12.5576017"><ele>108.0</ele><time>2026-04-04T15:25:53.726Z</time></trkpt><trkpt lat="42.2630517" lon="12.55735"><ele>107.0</ele><time>2026-04-04T15:25:54.724Z</time></trkpt><trkpt lat="42.2630933" lon="12.557105"><ele>106.0</ele><time>2026-04-04T15:25:55.725Z</time></trkpt><trkpt lat="42.2631317" lon="12.556865"><ele>99.0</ele><time>2026-04-04T15:25:56.722Z</time></trkpt><trkpt lat="42.26317" lon="12.5566317"><ele>92.0</ele><time>2026-04-04T15:25:57.722Z</time></trkpt><trkpt lat="42.2632033" lon="12.556395"><ele>85.0</ele><time>2026-04-04T15:25:58.724Z</time></trkpt><trkpt lat="42.2632383" lon="12.5561583"><ele>84.0</ele><time>2026-04-04T15:25:59.725Z</time></trkpt><trkpt lat="42.2632683" lon="12.5559233"><ele>83.0</ele><time>2026-04-04T15:26:00.727Z</time></trkpt><trkpt lat="42.2633117" lon="12.5556983"><ele>82.0</ele><time>2026-04-04T15:26:01.725Z</time></trkpt><trkpt lat="42.2633633" lon="12.5554833"><ele>81.66666666666666</ele><time>2026-04-04T15:26:02.728Z</time></trkpt><trkpt lat="42.2634167" lon="12.5552717"><ele>81.33333333333333</ele><time>2026-04-04T15:26:03.723Z</time></trkpt><trkpt lat="42.263475" lon="12.5550733"><ele>81.0</ele><time>2026-04-04T15:26:04.726Z</time></trkpt><trkpt lat="42.2635367" lon="12.5548883"><ele>81.0</ele><time>2026-04-04T15:26:05.727Z</time></trkpt><trkpt lat="42.263595" lon="12.5547183"><ele>81.0</ele><time>2026-04-04T15:26:06.731Z</time></trkpt><trkpt lat="42.2636483" lon="12.5545567"><ele>81.0</ele><time>2026-04-04T15:26:07.723Z</time></trkpt><trkpt lat="42.2637117" lon="12.5544033"><ele>81.0</ele><time>2026-04-04T15:26:08.723Z</time></trkpt><trkpt lat="42.2637933" lon="12.5542667"><ele>79.0</ele><time>2026-04-04T15:26:09.724Z</time></trkpt><trkpt lat="42.2638883" lon="12.5541433"><ele>77.0</ele><time>2026-04-04T15:26:10.724Z</time></trkpt><trkpt lat="42.263995" lon="12.5540317"><ele>75.0</ele><time>2026-04-04T15:26:11.722Z</time></trkpt><trkpt lat="42.2641033" lon="12.553925"><ele>73.0</ele><time>2026-04-04T15:26:12.721Z</time></trkpt><trkpt lat="42.264215" lon="12.55384"><ele>69.75</ele><time>2026-04-04T15:26:13.722Z</time></trkpt><trkpt lat="42.2643333" lon="12.5537783"><ele>66.5</ele><time>2026-04-04T15:26:14.722Z</time></trkpt><trkpt lat="42.2644583" lon="12.553735"><ele>63.25</ele><time>2026-04-04T15:26:15.725Z</time></trkpt><trkpt lat="42.2645883" lon="12.5537033"><ele>60.0</ele><time>2026-04-04T15:26:16.724Z</time></trkpt><trkpt lat="42.2647183" lon="12.5536767"><ele>57.0</ele><time>2026-04-04T15:26:17.724Z</time></trkpt><trkpt lat="42.26485" lon="12.5536633"><ele>54.0</ele><time>2026-04-04T15:26:18.722Z</time></trkpt><trkpt lat="42.2649883" lon="12.5536767"><ele>51.0</ele><time>2026-04-04T15:26:19.721Z</time></trkpt><trkpt lat="42.26513" lon="12.553715"><ele>48.0</ele><time>2026-04-04T15:26:20.726Z</time></trkpt><trkpt lat="42.26527" lon="12.55376"><ele>48.0</ele><time>2026-04-04T15:26:21.726Z</time></trkpt><trkpt lat="42.2654133" lon="12.5537917"><ele>48.0</ele><time>2026-04-04T15:26:22.725Z</time></trkpt><trkpt lat="42.265555" lon="12.5537917"><ele>48.0</ele><time>2026-04-04T15:26:23.727Z</time></trkpt><trkpt lat="42.2656983" lon="12.5537717"><ele>48.0</ele><time>2026-04-04T15:26:24.724Z</time></trkpt><trkpt lat="42.2658333" lon="12.5537367"><ele>45.25</ele><time>2026-04-04T15:26:25.723Z</time></trkpt><trkpt lat="42.2659633" lon="12.553685"><ele>42.5</ele><time>2026-04-04T15:26:26.725Z</time></trkpt><trkpt lat="42.26609" lon="12.5536217"><ele>39.75</ele><time>2026-04-04T15:26:27.722Z</time></trkpt><trkpt lat="42.2662067" lon="12.5535483"><ele>37.0</ele><time>2026-04-04T15:26:28.724Z</time></trkpt><trkpt lat="42.2663083" lon="12.5534667"><ele>37.0</ele><time>2026-04-04T15:26:29.721Z</time></trkpt><trkpt lat="42.2663917" lon="12.5533833"><ele>37.0</ele><time>2026-04-04T15:26:30.726Z</time></trkpt><trkpt lat="42.266455" lon="12.55331"><ele>37.0</ele><time>2026-04-04T15:26:31.724Z</time></trkpt><trkpt lat="42.2665167" lon="12.5532367"><ele>37.0</ele><time>2026-04-04T15:26:32.721Z</time></trkpt><trkpt lat="42.2665917" lon="12.55314"><ele>37.0</ele><time>2026-04-04T15:26:33.725Z</time></trkpt><trkpt lat="42.2666817" lon="12.5530167"><ele>37.333333333333336</ele><time>2026-04-04T15:26:34.722Z</time></trkpt><trkpt lat="42.26678" lon="12.5528767"><ele>37.666666666666664</ele><time>2026-04-04T15:26:35.721Z</time></trkpt><trkpt lat="42.26689" lon="12.552725"><ele>38.0</ele><time>2026-04-04T15:26:36.724Z</time></trkpt><trkpt lat="42.267015" lon="12.55256"><ele>38.0</ele><time>2026-04-04T15:26:37.723Z</time></trkpt><trkpt lat="42.267145" lon="12.5524"><ele>38.0</ele><time>2026-04-04T15:26:38.722Z</time></trkpt><trkpt lat="42.2672767" lon="12.5522417"><ele>38.0</ele><time>2026-04-04T15:26:39.722Z</time></trkpt><trkpt lat="42.267415" lon="12.552085"><ele>38.666666666666664</ele><time>2026-04-04T15:26:40.721Z</time></trkpt><trkpt lat="42.2675583" lon="12.5519367"><ele>39.333333333333336</ele><time>2026-04-04T15:26:41.722Z</time></trkpt><trkpt lat="42.2677017" lon="12.5517933"><ele>40.0</ele><time>2026-04-04T15:26:42.725Z</time></trkpt><trkpt lat="42.267845" lon="12.5516617"><ele>40.0</ele><time>2026-04-04T15:26:43.727Z</time></trkpt><trkpt lat="42.268" lon="12.5515417"><ele>40.0</ele><time>2026-04-04T15:26:44.726Z</time></trkpt><trkpt lat="42.2681767" lon="12.5514367"><ele>40.0</ele><time>2026-04-04T15:26:45.722Z</time></trkpt><trkpt lat="42.2683767" lon="12.5513267"><ele>40.5</ele><time>2026-04-04T15:26:46.722Z</time></trkpt><trkpt lat="42.2685917" lon="12.551185"><ele>41.0</ele><time>2026-04-04T15:26:47.723Z</time></trkpt><trkpt lat="42.2688117" lon="12.550995"><ele>38.5</ele><time>2026-04-04T15:26:48.724Z</time></trkpt><trkpt lat="42.2690283" lon="12.5507583"><ele>36.0</ele><time>2026-04-04T15:26:49.723Z</time></trkpt><trkpt lat="42.26924" lon="12.5505133"><ele>38.5</ele><time>2026-04-04T15:26:50.728Z</time></trkpt><trkpt lat="42.26944" lon="12.5503033"><ele>41.0</ele><time>2026-04-04T15:26:51.725Z</time></trkpt><trkpt lat="42.2696383" lon="12.550115"><ele>39.0</ele><time>2026-04-04T15:26:52.725Z</time></trkpt><trkpt lat="42.269835" lon="12.5499433"><ele>37.0</ele><time>2026-04-04T15:26:53.729Z</time></trkpt><trkpt lat="42.2700333" lon="12.5497717"><ele>37.0</ele><time>2026-04-04T15:26:54.725Z</time></trkpt><trkpt lat="42.2702383" lon="12.5495917"><ele>37.0</ele><time>2026-04-04T15:26:55.722Z</time></trkpt><trkpt lat="42.2704383" lon="12.5494167"><ele>37.0</ele><time>2026-04-04T15:26:56.725Z</time></trkpt><trkpt lat="42.2706333" lon="12.54925"><ele>37.0</ele><time>2026-04-04T15:26:57.723Z</time></trkpt><trkpt lat="42.2708233" lon="12.5490867"><ele>37.0</ele><time>2026-04-04T15:26:58.721Z</time></trkpt><trkpt lat="42.271005" lon="12.5489333"><ele>37.0</ele><time>2026-04-04T15:26:59.723Z</time></trkpt><trkpt lat="42.2711817" lon="12.5487867"><ele>37.0</ele><time>2026-04-04T15:27:00.723Z</time></trkpt><trkpt lat="42.2713483" lon="12.5486217"><ele>37.66666666666667</ele><time>2026-04-04T15:27:01.728Z</time></trkpt><trkpt lat="42.2715083" lon="12.548425"><ele>38.333333333333336</ele><time>2026-04-04T15:27:02.725Z</time></trkpt><trkpt lat="42.2716617" lon="12.5482183"><ele>39.0</ele><time>2026-04-04T15:27:03.724Z</time></trkpt><trkpt lat="42.2718067" lon="12.5480183"><ele>40.0</ele><time>2026-04-04T15:27:04.724Z</time></trkpt><trkpt lat="42.27194" lon="12.5478233"><ele>41.0</ele><time>2026-04-04T15:27:05.723Z</time></trkpt><trkpt lat="42.27206" lon="12.54762"><ele>42.0</ele><time>2026-04-04T15:27:06.724Z</time></trkpt><trkpt lat="42.272155" lon="12.547395"><ele>42.0</ele><time>2026-04-04T15:27:07.724Z</time></trkpt><trkpt lat="42.272225" lon="12.547145"><ele>42.0</ele><time>2026-04-04T15:27:08.726Z</time></trkpt><trkpt lat="42.2722583" lon="12.546865"><ele>42.0</ele><time>2026-04-04T15:27:09.725Z</time></trkpt><trkpt lat="42.2722567" lon="12.5465583"><ele>43.0</ele><time>2026-04-04T15:27:10.724Z</time></trkpt><trkpt lat="42.2722283" lon="12.5462383"><ele>44.0</ele><time>2026-04-04T15:27:11.725Z</time></trkpt><trkpt lat="42.2721883" lon="12.545905"><ele>44.0</ele><time>2026-04-04T15:27:12.722Z</time></trkpt><trkpt lat="42.27216" lon="12.5456033"><ele>44.0</ele><time>2026-04-04T15:27:13.725Z</time></trkpt><trkpt lat="42.2721517" lon="12.5453433"><ele>44.0</ele><time>2026-04-04T15:27:14.727Z</time></trkpt><trkpt lat="42.2721767" lon="12.5451017"><ele>44.0</ele><time>2026-04-04T15:27:15.72Z</time></trkpt><trkpt lat="42.272245" lon="12.5448683"><ele>44.0</ele><time>2026-04-04T15:27:16.723Z</time></trkpt><trkpt lat="42.2723533" lon="12.54463"><ele>44.0</ele><time>2026-04-04T15:27:17.722Z</time></trkpt><trkpt lat="42.2724883" lon="12.5443917"><ele>41.5</ele><time>2026-04-04T15:27:18.725Z</time></trkpt><trkpt lat="42.2726383" lon="12.5441533"><ele>39.0</ele><time>2026-04-04T15:27:19.721Z</time></trkpt><trkpt lat="42.2727883" lon="12.54393"><ele>39.0</ele><time>2026-04-04T15:27:20.723Z</time></trkpt><trkpt lat="42.2729467" lon="12.543725"><ele>39.0</ele><time>2026-04-04T15:27:21.721Z</time></trkpt><trkpt lat="42.2731133" lon="12.5435533"><ele>39.0</ele><time>2026-04-04T15:27:22.722Z</time></trkpt><trkpt lat="42.2732983" lon="12.5434067"><ele>41.5</ele><time>2026-04-04T15:27:23.722Z</time></trkpt><trkpt lat="42.2734967" lon="12.54326"><ele>44.0</ele><time>2026-04-04T15:27:24.723Z</time></trkpt><trkpt lat="42.2736967" lon="12.5431067"><ele>44.0</ele><time>2026-04-04T15:27:25.725Z</time></trkpt><trkpt lat="42.2738917" lon="12.5429583"><ele>44.0</ele><time>2026-04-04T15:27:26.727Z</time></trkpt><trkpt lat="42.2740833" lon="12.54282"><ele>44.0</ele><time>2026-04-04T15:27:27.724Z</time></trkpt><trkpt lat="42.27427" lon="12.542685"><ele>42.666666666666664</ele><time>2026-04-04T15:27:28.728Z</time></trkpt><trkpt lat="42.2744467" lon="12.5425617"><ele>41.333333333333336</ele><time>2026-04-04T15:27:29.722Z</time></trkpt><trkpt lat="42.2746117" lon="12.5424267"><ele>40.0</ele><time>2026-04-04T15:27:30.724Z</time></trkpt><trkpt lat="42.274765" lon="12.5422717"><ele>40.0</ele><time>2026-04-04T15:27:31.72Z</time></trkpt><trkpt lat="42.2749117" lon="12.5420867"><ele>40.0</ele><time>2026-04-04T15:27:32.722Z</time></trkpt><trkpt lat="42.2750533" lon="12.541865"><ele>40.0</ele><time>2026-04-04T15:27:33.724Z</time></trkpt><trkpt lat="42.275195" lon="12.541615"><ele>40.0</ele><time>2026-04-04T15:27:34.725Z</time></trkpt><trkpt lat="42.2753383" lon="12.5413467"><ele>40.0</ele><time>2026-04-04T15:27:35.726Z</time></trkpt><trkpt lat="42.27548" lon="12.54108"><ele>39.5</ele><time>2026-04-04T15:27:36.723Z</time></trkpt><trkpt lat="42.2756167" lon="12.5408167"><ele>39.0</ele><time>2026-04-04T15:27:37.722Z</time></trkpt><trkpt lat="42.2757517" lon="12.540555"><ele>40.5</ele><time>2026-04-04T15:27:38.722Z</time></trkpt><trkpt lat="42.2758833" lon="12.54029"><ele>42.0</ele><time>2026-04-04T15:27:39.721Z</time></trkpt><trkpt lat="42.2760117" lon="12.54002"><ele>42.0</ele><time>2026-04-04T15:27:40.725Z</time></trkpt><trkpt lat="42.27614" lon="12.5397483"><ele>42.0</ele><time>2026-04-04T15:27:41.726Z</time></trkpt><trkpt lat="42.27627" lon="12.539475"><ele>43.0</ele><time>2026-04-04T15:27:42.722Z</time></trkpt><trkpt lat="42.2764033" lon="12.539205"><ele>44.0</ele><time>2026-04-04T15:27:43.724Z</time></trkpt><trkpt lat="42.2765333" lon="12.5389367"><ele>42.5</ele><time>2026-04-04T15:27:44.723Z</time></trkpt><trkpt lat="42.2766533" lon="12.538675"><ele>41.0</ele><time>2026-04-04T15:27:45.723Z</time></trkpt><trkpt lat="42.2767633" lon="12.5384133"><ele>41.0</ele><time>2026-04-04T15:27:46.722Z</time></trkpt><trkpt lat="42.2768617" lon="12.538155"><ele>41.0</ele><time>2026-04-04T15:27:47.722Z</time></trkpt><trkpt lat="42.2769467" lon="12.53792"><ele>41.0</ele><time>2026-04-04T15:27:48.722Z</time></trkpt><trkpt lat="42.2770233" lon="12.5377233"><ele>40.5</ele><time>2026-04-04T15:27:49.724Z</time></trkpt><trkpt lat="42.2770967" lon="12.5375567"><ele>40.0</ele><time>2026-04-04T15:27:50.725Z</time></trkpt><trkpt lat="42.277175" lon="12.537405"><ele>39.5</ele><time>2026-04-04T15:27:51.727Z</time></trkpt><trkpt lat="42.277255" lon="12.5372667"><ele>39.0</ele><time>2026-04-04T15:27:52.727Z</time></trkpt><trkpt lat="42.2773433" lon="12.5371367"><ele>39.333333333333336</ele><time>2026-04-04T15:27:53.726Z</time></trkpt><trkpt lat="42.27745" lon="12.5370017"><ele>39.66666666666667</ele><time>2026-04-04T15:27:54.725Z</time></trkpt><trkpt lat="42.2775817" lon="12.5368633"><ele>40.0</ele><time>2026-04-04T15:27:55.725Z</time></trkpt><trkpt lat="42.2777317" lon="12.53672"><ele>40.0</ele><time>2026-04-04T15:27:56.722Z</time></trkpt><trkpt lat="42.2778933" lon="12.5365717"><ele>40.0</ele><time>2026-04-04T15:27:57.722Z</time></trkpt><trkpt lat="42.2780633" lon="12.5364183"><ele>40.0</ele><time>2026-04-04T15:27:58.722Z</time></trkpt><trkpt lat="42.2782383" lon="12.5362617"><ele>39.0</ele><time>2026-04-04T15:27:59.722Z</time></trkpt><trkpt lat="42.27842" lon="12.5361"><ele>38.0</ele><time>2026-04-04T15:28:00.722Z</time></trkpt><trkpt lat="42.2786133" lon="12.5359433"><ele>37.0</ele><time>2026-04-04T15:28:01.722Z</time></trkpt><trkpt lat="42.2788267" lon="12.5358067"><ele>36.5</ele><time>2026-04-04T15:28:02.724Z</time></trkpt><trkpt lat="42.2790483" lon="12.5356917"><ele>36.0</ele><time>2026-04-04T15:28:03.724Z</time></trkpt><trkpt lat="42.2792633" lon="12.5355867"><ele>36.0</ele><time>2026-04-04T15:28:04.724Z</time></trkpt><trkpt lat="42.2794683" lon="12.5354883"><ele>36.0</ele><time>2026-04-04T15:28:05.724Z</time></trkpt><trkpt lat="42.2796633" lon="12.535395"><ele>36.0</ele><time>2026-04-04T15:28:06.722Z</time></trkpt><trkpt lat="42.27984" lon="12.535305"><ele>36.0</ele><time>2026-04-04T15:28:07.726Z</time></trkpt><trkpt lat="42.2799933" lon="12.535195"><ele>36.0</ele><time>2026-04-04T15:28:08.722Z</time></trkpt><trkpt lat="42.2801233" lon="12.5350433"><ele>36.0</ele><time>2026-04-04T15:28:09.726Z</time></trkpt><trkpt lat="42.2802867" lon="12.5346167"><ele>35.666666666666664</ele><time>2026-04-04T15:28:11.724Z</time></trkpt><trkpt lat="42.2803283" lon="12.5343567"><ele>35.33333333333333</ele><time>2026-04-04T15:28:12.727Z</time></trkpt><trkpt lat="42.28036" lon="12.5341167"><ele>35.0</ele><time>2026-04-04T15:28:13.721Z</time></trkpt><trkpt lat="42.2803767" lon="12.5339233"><ele>35.0</ele><time>2026-04-04T15:28:14.727Z</time></trkpt><trkpt lat="42.2803683" lon="12.533765"><ele>35.0</ele><time>2026-04-04T15:28:15.723Z</time></trkpt><trkpt lat="42.280325" lon="12.5336183"><ele>35.0</ele><time>2026-04-04T15:28:16.721Z</time></trkpt><trkpt lat="42.2802517" lon="12.533465"><ele>35.0</ele><time>2026-04-04T15:28:17.724Z</time></trkpt><trkpt lat="42.2801567" lon="12.533295"><ele>35.666666666666664</ele><time>2026-04-04T15:28:18.723Z</time></trkpt><trkpt lat="42.2800433" lon="12.5331133"><ele>36.333333333333336</ele><time>2026-04-04T15:28:19.723Z</time></trkpt><trkpt lat="42.2799067" lon="12.53292"><ele>37.0</ele><time>2026-04-04T15:28:20.723Z</time></trkpt><trkpt lat="42.2797533" lon="12.5327183"><ele>37.5</ele><time>2026-04-04T15:28:21.724Z</time></trkpt><trkpt lat="42.2795883" lon="12.5325083"><ele>38.0</ele><time>2026-04-04T15:28:22.722Z</time></trkpt><trkpt lat="42.27942" lon="12.5322917"><ele>38.0</ele><time>2026-04-04T15:28:23.723Z</time></trkpt><trkpt lat="42.2792467" lon="12.5320717"><ele>38.0</ele><time>2026-04-04T15:28:24.722Z</time></trkpt><trkpt lat="42.279065" lon="12.5318583"><ele>39.5</ele><time>2026-04-04T15:28:25.726Z</time></trkpt><trkpt lat="42.2788717" lon="12.5316533"><ele>41.0</ele><time>2026-04-04T15:28:26.726Z</time></trkpt><trkpt lat="42.27867" lon="12.5314583"><ele>41.0</ele><time>2026-04-04T15:28:27.721Z</time></trkpt><trkpt lat="42.278465" lon="12.5312733"><ele>41.0</ele><time>2026-04-04T15:28:28.724Z</time></trkpt><trkpt lat="42.27826" lon="12.5310983"><ele>44.5</ele><time>2026-04-04T15:28:29.724Z</time></trkpt><trkpt lat="42.2780633" lon="12.53093"><ele>48.0</ele><time>2026-04-04T15:28:30.723Z</time></trkpt><trkpt lat="42.277875" lon="12.53077"><ele>48.0</ele><time>2026-04-04T15:28:31.727Z</time></trkpt><trkpt lat="42.2777" lon="12.5306217"><ele>48.0</ele><time>2026-04-04T15:28:32.722Z</time></trkpt><trkpt lat="42.27753" lon="12.530475"><ele>48.0</ele><time>2026-04-04T15:28:33.722Z</time></trkpt><trkpt lat="42.2773667" lon="12.5303367"><ele>51.0</ele><time>2026-04-04T15:28:34.726Z</time></trkpt><trkpt lat="42.2772183" lon="12.53021"><ele>54.0</ele><time>2026-04-04T15:28:35.724Z</time></trkpt><trkpt lat="42.27709" lon="12.5301"><ele>57.0</ele><time>2026-04-04T15:28:36.722Z</time></trkpt><trkpt lat="42.27699" lon="12.5299983"><ele>57.0</ele><time>2026-04-04T15:28:37.721Z</time></trkpt><trkpt lat="42.2769183" lon="12.5298883"><ele>57.0</ele><time>2026-04-04T15:28:38.722Z</time></trkpt><trkpt lat="42.2768767" lon="12.5297583"><ele>57.0</ele><time>2026-04-04T15:28:39.723Z</time></trkpt><trkpt lat="42.276835" lon="12.529625"><ele>57.0</ele><time>2026-04-04T15:28:40.722Z</time></trkpt><trkpt lat="42.276785" lon="12.529505"><ele>57.0</ele><time>2026-04-04T15:28:41.723Z</time></trkpt><trkpt lat="42.2767083" lon="12.5293983"><ele>57.5</ele><time>2026-04-04T15:28:42.722Z</time></trkpt><trkpt lat="42.2766117" lon="12.5292933"><ele>58.0</ele><time>2026-04-04T15:28:43.722Z</time></trkpt><trkpt lat="42.2765167" lon="12.5291617"><ele>58.5</ele><time>2026-04-04T15:28:44.723Z</time></trkpt><trkpt lat="42.2764367" lon="12.5289867"><ele>59.0</ele><time>2026-04-04T15:28:45.724Z</time></trkpt><trkpt lat="42.27637" lon="12.5287967"><ele>60.0</ele><time>2026-04-04T15:28:46.727Z</time></trkpt><trkpt lat="42.2763083" lon="12.5286083"><ele>61.0</ele><time>2026-04-04T15:28:47.727Z</time></trkpt><trkpt lat="42.276255" lon="12.52843"><ele>62.0</ele><time>2026-04-04T15:28:48.724Z</time></trkpt><trkpt lat="42.2762133" lon="12.52827"><ele>63.0</ele><time>2026-04-04T15:28:49.725Z</time></trkpt><trkpt lat="42.2761883" lon="12.528125"><ele>63.0</ele><time>2026-04-04T15:28:50.725Z</time></trkpt><trkpt lat="42.2761817" lon="12.527985"><ele>63.0</ele><time>2026-04-04T15:28:51.727Z</time></trkpt><trkpt lat="42.2761867" lon="12.5278483"><ele>63.0</ele><time>2026-04-04T15:28:52.727Z</time></trkpt><trkpt lat="42.2762083" lon="12.5277117"><ele>63.0</ele><time>2026-04-04T15:28:53.726Z</time></trkpt><trkpt lat="42.27625" lon="12.5275717"><ele>63.0</ele><time>2026-04-04T15:28:54.722Z</time></trkpt><trkpt lat="42.276315" lon="12.52743"><ele>62.75</ele><time>2026-04-04T15:28:55.725Z</time></trkpt><trkpt lat="42.276395" lon="12.527285"><ele>62.5</ele><time>2026-04-04T15:28:56.721Z</time></trkpt><trkpt lat="42.276485" lon="12.5271333"><ele>62.25</ele><time>2026-04-04T15:28:57.727Z</time></trkpt><trkpt lat="42.276575" lon="12.52698"><ele>62.0</ele><time>2026-04-04T15:28:58.726Z</time></trkpt><trkpt lat="42.27666" lon="12.5268283"><ele>62.5</ele><time>2026-04-04T15:28:59.721Z</time></trkpt><trkpt lat="42.27674" lon="12.526685"><ele>63.0</ele><time>2026-04-04T15:29:00.722Z</time></trkpt><trkpt lat="42.2768117" lon="12.526555"><ele>63.5</ele><time>2026-04-04T15:29:01.721Z</time></trkpt><trkpt lat="42.276875" lon="12.5264383"><ele>64.0</ele><time>2026-04-04T15:29:02.723Z</time></trkpt><trkpt lat="42.276935" lon="12.5263283"><ele>64.5</ele><time>2026-04-04T15:29:03.725Z</time></trkpt><trkpt lat="42.2769883" lon="12.526225"><ele>65.0</ele><time>2026-04-04T15:29:04.723Z</time></trkpt><trkpt lat="42.27704" lon="12.5261267"><ele>65.5</ele><time>2026-04-04T15:29:05.722Z</time></trkpt><trkpt lat="42.2770883" lon="12.5260367"><ele>66.0</ele><time>2026-04-04T15:29:06.728Z</time></trkpt><trkpt lat="42.2771367" lon="12.5259517"><ele>66.5</ele><time>2026-04-04T15:29:07.723Z</time></trkpt><trkpt lat="42.2771867" lon="12.5258633"><ele>67.0</ele><time>2026-04-04T15:29:08.725Z</time></trkpt><trkpt lat="42.27724" lon="12.5257717"><ele>66.6</ele><time>2026-04-04T15:29:09.726Z</time></trkpt><trkpt lat="42.2773" lon="12.5256867"><ele>66.2</ele><time>2026-04-04T15:29:10.722Z</time></trkpt><trkpt lat="42.2773717" lon="12.5256067"><ele>65.8</ele><time>2026-04-04T15:29:11.722Z</time></trkpt><trkpt lat="42.27745" lon="12.5255333"><ele>65.4</ele><time>2026-04-04T15:29:12.723Z</time></trkpt><trkpt lat="42.2775283" lon="12.5254483"><ele>65.0</ele><time>2026-04-04T15:29:13.721Z</time></trkpt><trkpt lat="42.2776133" lon="12.52536"><ele>65.0</ele><time>2026-04-04T15:29:14.722Z</time></trkpt><trkpt lat="42.2777117" lon="12.52528"><ele>65.0</ele><time>2026-04-04T15:29:15.726Z</time></trkpt><trkpt lat="42.277815" lon="12.5252033"><ele>65.0</ele><time>2026-04-04T15:29:16.721Z</time></trkpt><trkpt lat="42.2779217" lon="12.5251167"><ele>65.0</ele><time>2026-04-04T15:29:17.723Z</time></trkpt><trkpt lat="42.278025" lon="12.5250267"><ele>64.5</ele><time>2026-04-04T15:29:18.724Z</time></trkpt><trkpt lat="42.2781317" lon="12.52494"><ele>64.0</ele><time>2026-04-04T15:29:19.723Z</time></trkpt><trkpt lat="42.2782383" lon="12.5248583"><ele>63.5</ele><time>2026-04-04T15:29:20.722Z</time></trkpt><trkpt lat="42.2783383" lon="12.524775"><ele>63.0</ele><time>2026-04-04T15:29:21.723Z</time></trkpt><trkpt lat="42.278435" lon="12.5246917"><ele>63.0</ele><time>2026-04-04T15:29:22.722Z</time></trkpt><trkpt lat="42.2785267" lon="12.524605"><ele>63.0</ele><time>2026-04-04T15:29:23.723Z</time></trkpt><trkpt lat="42.27862" lon="12.52451"><ele>63.0</ele><time>2026-04-04T15:29:24.721Z</time></trkpt><trkpt lat="42.2787117" lon="12.524415"><ele>63.0</ele><time>2026-04-04T15:29:25.722Z</time></trkpt><trkpt lat="42.2788083" lon="12.5243267"><ele>63.25</ele><time>2026-04-04T15:29:26.722Z</time></trkpt><trkpt lat="42.2789083" lon="12.5242383"><ele>63.5</ele><time>2026-04-04T15:29:27.724Z</time></trkpt><trkpt lat="42.2790117" lon="12.52415"><ele>63.75</ele><time>2026-04-04T15:29:28.722Z</time></trkpt><trkpt lat="42.27912" lon="12.52407"><ele>64.0</ele><time>2026-04-04T15:29:29.722Z</time></trkpt><trkpt lat="42.2792283" lon="12.524"><ele>63.25</ele><time>2026-04-04T15:29:30.721Z</time></trkpt><trkpt lat="42.2793383" lon="12.5239383"><ele>62.5</ele><time>2026-04-04T15:29:31.721Z</time></trkpt><trkpt lat="42.2794517" lon="12.5238883"><ele>61.75</ele><time>2026-04-04T15:29:32.726Z</time></trkpt><trkpt lat="42.2795683" lon="12.523845"><ele>61.0</ele><time>2026-04-04T15:29:33.722Z</time></trkpt><trkpt lat="42.27969" lon="12.523795"><ele>61.25</ele><time>2026-04-04T15:29:34.723Z</time></trkpt><trkpt lat="42.2798167" lon="12.5237367"><ele>61.5</ele><time>2026-04-04T15:29:35.722Z</time></trkpt><trkpt lat="42.2799417" lon="12.523665"><ele>61.75</ele><time>2026-04-04T15:29:36.726Z</time></trkpt><trkpt lat="42.280065" lon="12.523585"><ele>62.0</ele><time>2026-04-04T15:29:37.723Z</time></trkpt><trkpt lat="42.2801917" lon="12.523505"><ele>62.0</ele><time>2026-04-04T15:29:38.726Z</time></trkpt><trkpt lat="42.2803133" lon="12.5234233"><ele>62.0</ele><time>2026-04-04T15:29:39.725Z</time></trkpt><trkpt lat="42.280425" lon="12.5233333"><ele>62.0</ele><time>2026-04-04T15:29:40.724Z</time></trkpt><trkpt lat="42.2805333" lon="12.52324"><ele>62.0</ele><time>2026-04-04T15:29:41.727Z</time></trkpt><trkpt lat="42.28064" lon="12.52315"><ele>62.25</ele><time>2026-04-04T15:29:42.721Z</time></trkpt><trkpt lat="42.28074" lon="12.5230567"><ele>62.5</ele><time>2026-04-04T15:29:43.722Z</time></trkpt><trkpt lat="42.2808317" lon="12.522965"><ele>62.75</ele><time>2026-04-04T15:29:44.723Z</time></trkpt><trkpt lat="42.2809233" lon="12.522865"><ele>63.0</ele><time>2026-04-04T15:29:45.722Z</time></trkpt><trkpt lat="42.2810117" lon="12.522765"><ele>63.0</ele><time>2026-04-04T15:29:46.723Z</time></trkpt><trkpt lat="42.281095" lon="12.5226667"><ele>63.0</ele><time>2026-04-04T15:29:47.722Z</time></trkpt><trkpt lat="42.28117" lon="12.5225617"><ele>63.0</ele><time>2026-04-04T15:29:48.727Z</time></trkpt><trkpt lat="42.28125" lon="12.5224517"><ele>63.0</ele><time>2026-04-04T15:29:49.723Z</time></trkpt><trkpt lat="42.2813367" lon="12.5223367"><ele>63.0</ele><time>2026-04-04T15:29:50.726Z</time></trkpt><trkpt lat="42.2814233" lon="12.5222133"><ele>63.0</ele><time>2026-04-04T15:29:51.722Z</time></trkpt><trkpt lat="42.28151" lon="12.522095"><ele>63.0</ele><time>2026-04-04T15:29:52.722Z</time></trkpt><trkpt lat="42.2815967" lon="12.521985"><ele>63.0</ele><time>2026-04-04T15:29:53.723Z</time></trkpt><trkpt lat="42.2816833" lon="12.5218833"><ele>63.0</ele><time>2026-04-04T15:29:54.722Z</time></trkpt><trkpt lat="42.28176" lon="12.521785"><ele>63.0</ele><time>2026-04-04T15:29:55.723Z</time></trkpt><trkpt lat="42.2818333" lon="12.521685"><ele>63.0</ele><time>2026-04-04T15:29:56.723Z</time></trkpt><trkpt lat="42.2819017" lon="12.5215817"><ele>63.0</ele><time>2026-04-04T15:29:57.724Z</time></trkpt><trkpt lat="42.2819717" lon="12.5214667"><ele>63.0</ele><time>2026-04-04T15:29:58.721Z</time></trkpt><trkpt lat="42.28204" lon="12.5213417"><ele>63.75</ele><time>2026-04-04T15:29:59.721Z</time></trkpt><trkpt lat="42.2821083" lon="12.5212017"><ele>64.5</ele><time>2026-04-04T15:30:00.722Z</time></trkpt><trkpt lat="42.28217" lon="12.5210567"><ele>65.25</ele><time>2026-04-04T15:30:01.721Z</time></trkpt><trkpt lat="42.2822267" lon="12.5209117"><ele>66.0</ele><time>2026-04-04T15:30:02.722Z</time></trkpt><trkpt lat="42.2822833" lon="12.5207633"><ele>64.25</ele><time>2026-04-04T15:30:03.721Z</time></trkpt><trkpt lat="42.282345" lon="12.52061"><ele>62.5</ele><time>2026-04-04T15:30:04.722Z</time></trkpt><trkpt lat="42.2824017" lon="12.52045"><ele>60.75</ele><time>2026-04-04T15:30:05.722Z</time></trkpt><trkpt lat="42.2824583" lon="12.5202933"><ele>59.0</ele><time>2026-04-04T15:30:06.724Z</time></trkpt><trkpt lat="42.28251" lon="12.5201417"><ele>59.0</ele><time>2026-04-04T15:30:07.723Z</time></trkpt><trkpt lat="42.2825633" lon="12.5199917"><ele>59.0</ele><time>2026-04-04T15:30:08.727Z</time></trkpt><trkpt lat="42.282615" lon="12.5198383"><ele>59.0</ele><time>2026-04-04T15:30:09.721Z</time></trkpt><trkpt lat="42.2826633" lon="12.5196783"><ele>59.0</ele><time>2026-04-04T15:30:10.723Z</time></trkpt><trkpt lat="42.2827067" lon="12.5195167"><ele>59.5</ele><time>2026-04-04T15:30:11.723Z</time></trkpt><trkpt lat="42.2827483" lon="12.5193517"><ele>60.0</ele><time>2026-04-04T15:30:12.722Z</time></trkpt><trkpt lat="42.2827867" lon="12.5191917"><ele>60.5</ele><time>2026-04-04T15:30:13.728Z</time></trkpt><trkpt lat="42.282825" lon="12.5190367"><ele>61.0</ele><time>2026-04-04T15:30:14.725Z</time></trkpt><trkpt lat="42.2828683" lon="12.5188867"><ele>61.0</ele><time>2026-04-04T15:30:15.722Z</time></trkpt><trkpt lat="42.282915" lon="12.5187383"><ele>61.0</ele><time>2026-04-04T15:30:16.724Z</time></trkpt><trkpt lat="42.2829667" lon="12.5185967"><ele>61.0</ele><time>2026-04-04T15:30:17.724Z</time></trkpt><trkpt lat="42.283025" lon="12.5184533"><ele>61.0</ele><time>2026-04-04T15:30:18.728Z</time></trkpt><trkpt lat="42.283085" lon="12.5183183"><ele>59.4</ele><time>2026-04-04T15:30:19.727Z</time></trkpt><trkpt lat="42.2831417" lon="12.5181917"><ele>57.8</ele><time>2026-04-04T15:30:20.726Z</time></trkpt><trkpt lat="42.28319" lon="12.5180767"><ele>56.199999999999996</ele><time>2026-04-04T15:30:21.724Z</time></trkpt><trkpt lat="42.2832333" lon="12.5179733"><ele>54.599999999999994</ele><time>2026-04-04T15:30:22.729Z</time></trkpt><trkpt lat="42.2832683" lon="12.5178767"><ele>53.0</ele><time>2026-04-04T15:30:23.723Z</time></trkpt><trkpt lat="42.283295" lon="12.5177783"><ele>53.00000000000001</ele><time>2026-04-04T15:30:24.723Z</time></trkpt><trkpt lat="42.28331" lon="12.5176767"><ele>53.0</ele><time>2026-04-04T15:30:25.727Z</time></trkpt><trkpt lat="42.2833133" lon="12.5175767"><ele>53.0</ele><time>2026-04-04T15:30:26.723Z</time></trkpt><trkpt lat="42.283315" lon="12.5174667"><ele>53.0</ele><time>2026-04-04T15:30:27.73Z</time></trkpt><trkpt lat="42.283315" lon="12.5173467"><ele>53.00000000000001</ele><time>2026-04-04T15:30:28.724Z</time></trkpt><trkpt lat="42.2833167" lon="12.5172167"><ele>53.0</ele><time>2026-04-04T15:30:29.723Z</time></trkpt><trkpt lat="42.2833133" lon="12.51708"><ele>53.0</ele><time>2026-04-04T15:30:30.727Z</time></trkpt><trkpt lat="42.2833133" lon="12.5169467"><ele>53.0</ele><time>2026-04-04T15:30:31.724Z</time></trkpt><trkpt lat="42.2833133" lon="12.516815"><ele>53.0</ele><time>2026-04-04T15:30:32.727Z</time></trkpt><trkpt lat="42.283315" lon="12.516695"><ele>53.0</ele><time>2026-04-04T15:30:33.723Z</time></trkpt><trkpt lat="42.283315" lon="12.5165767"><ele>53.0</ele><time>2026-04-04T15:30:34.722Z</time></trkpt><trkpt lat="42.28332" lon="12.5164617"><ele>53.00000000000001</ele><time>2026-04-04T15:30:35.725Z</time></trkpt><trkpt lat="42.2833233" lon="12.51635"><ele>53.0</ele><time>2026-04-04T15:30:36.722Z</time></trkpt><trkpt lat="42.2833317" lon="12.51624"><ele>53.0</ele><time>2026-04-04T15:30:37.726Z</time></trkpt><trkpt lat="42.2833567" lon="12.516135"><ele>53.0</ele><time>2026-04-04T15:30:38.723Z</time></trkpt><trkpt lat="42.283385" lon="12.5160317"><ele>53.00000000000001</ele><time>2026-04-04T15:30:39.723Z</time></trkpt><trkpt lat="42.2834133" lon="12.5159333"><ele>53.0</ele><time>2026-04-04T15:30:40.722Z</time></trkpt><trkpt lat="42.28344" lon="12.5158417"><ele>53.2</ele><time>2026-04-04T15:30:41.723Z</time></trkpt><trkpt lat="42.2834633" lon="12.5157583"><ele>53.4</ele><time>2026-04-04T15:30:42.726Z</time></trkpt><trkpt lat="42.2835167" lon="12.5156183"><ele>53.60000000000001</ele><time>2026-04-04T15:30:44.723Z</time></trkpt><trkpt lat="42.2836117" lon="12.5155467"><ele>53.800000000000004</ele><time>2026-04-04T15:30:46.723Z</time></trkpt><trkpt lat="42.28372" lon="12.5155483"><ele>54.0</ele><time>2026-04-04T15:30:48.725Z</time></trkpt><trkpt lat="42.2838417" lon="12.515575"><ele>51.6</ele><time>2026-04-04T15:30:50.727Z</time></trkpt><trkpt lat="42.283955" lon="12.5155767"><ele>49.2</ele><time>2026-04-04T15:30:52.722Z</time></trkpt><trkpt lat="42.2840417" lon="12.515525"><ele>46.800000000000004</ele><time>2026-04-04T15:30:54.723Z</time></trkpt><trkpt lat="42.2840967" lon="12.515415"><ele>44.400000000000006</ele><time>2026-04-04T15:30:56.729Z</time></trkpt><trkpt lat="42.284125" lon="12.515335"><ele>42.0</ele><time>2026-04-04T15:30:57.722Z</time></trkpt><trkpt lat="42.284165" lon="12.5152317"><ele>42.0</ele><time>2026-04-04T15:30:58.722Z</time></trkpt><trkpt lat="42.2842133" lon="12.5150967"><ele>42.0</ele><time>2026-04-04T15:30:59.728Z</time></trkpt><trkpt lat="42.2842717" lon="12.51494"><ele>42.0</ele><time>2026-04-04T15:31:00.726Z</time></trkpt><trkpt lat="42.2843283" lon="12.5147783"><ele>42.0</ele><time>2026-04-04T15:31:01.728Z</time></trkpt><trkpt lat="42.2843783" lon="12.514625"><ele>42.400000000000006</ele><time>2026-04-04T15:31:02.722Z</time></trkpt><trkpt lat="42.2844283" lon="12.5144817"><ele>42.800000000000004</ele><time>2026-04-04T15:31:03.732Z</time></trkpt><trkpt lat="42.2844783" lon="12.51435"><ele>43.2</ele><time>2026-04-04T15:31:04.723Z</time></trkpt><trkpt lat="42.284525" lon="12.51423"><ele>43.6</ele><time>2026-04-04T15:31:05.722Z</time></trkpt><trkpt lat="42.284565" lon="12.514115"><ele>44.0</ele><time>2026-04-04T15:31:06.722Z</time></trkpt><trkpt lat="42.2845967" lon="12.5140017"><ele>44.0</ele><time>2026-04-04T15:31:07.722Z</time></trkpt><trkpt lat="42.2846283" lon="12.5138817"><ele>44.0</ele><time>2026-04-04T15:31:08.721Z</time></trkpt><trkpt lat="42.2846667" lon="12.5137533"><ele>44.0</ele><time>2026-04-04T15:31:09.723Z</time></trkpt><trkpt lat="42.284705" lon="12.5136167"><ele>44.0</ele><time>2026-04-04T15:31:10.723Z</time></trkpt><trkpt lat="42.284745" lon="12.51348"><ele>44.0</ele><time>2026-04-04T15:31:11.722Z</time></trkpt><trkpt lat="42.2847883" lon="12.51334"><ele>43.5</ele><time>2026-04-04T15:31:12.724Z</time></trkpt><trkpt lat="42.28483" lon="12.5132"><ele>43.0</ele><time>2026-04-04T15:31:13.722Z</time></trkpt><trkpt lat="42.284875" lon="12.513065"><ele>42.5</ele><time>2026-04-04T15:31:14.727Z</time></trkpt><trkpt lat="42.2849267" lon="12.5129183"><ele>42.0</ele><time>2026-04-04T15:31:15.721Z</time></trkpt><trkpt lat="42.2849783" lon="12.5127467"><ele>42.0</ele><time>2026-04-04T15:31:16.722Z</time></trkpt><trkpt lat="42.285035" lon="12.5125483"><ele>42.0</ele><time>2026-04-04T15:31:17.721Z</time></trkpt><trkpt lat="42.2850967" lon="12.5123433"><ele>42.0</ele><time>2026-04-04T15:31:18.722Z</time></trkpt><trkpt lat="42.28516" lon="12.512135"><ele>42.5</ele><time>2026-04-04T15:31:19.721Z</time></trkpt><trkpt lat="42.2852167" lon="12.5119133"><ele>43.0</ele><time>2026-04-04T15:31:20.725Z</time></trkpt><trkpt lat="42.2853067" lon="12.51143"><ele>43.0</ele><time>2026-04-04T15:31:22.725Z</time></trkpt><trkpt lat="42.2853467" lon="12.51118"><ele>43.0</ele><time>2026-04-04T15:31:23.722Z</time></trkpt><trkpt lat="42.2853817" lon="12.5109333"><ele>43.0</ele><time>2026-04-04T15:31:24.726Z</time></trkpt><trkpt lat="42.28541" lon="12.5106967"><ele>43.0</ele><time>2026-04-04T15:31:25.724Z</time></trkpt><trkpt lat="42.285435" lon="12.5104733"><ele>43.0</ele><time>2026-04-04T15:31:26.724Z</time></trkpt><trkpt lat="42.28546" lon="12.5102617"><ele>43.0</ele><time>2026-04-04T15:31:27.725Z</time></trkpt><trkpt lat="42.2854833" lon="12.51006"><ele>42.75</ele><time>2026-04-04T15:31:28.722Z</time></trkpt><trkpt lat="42.2855083" lon="12.5098667"><ele>42.5</ele><time>2026-04-04T15:31:29.724Z</time></trkpt><trkpt lat="42.2855283" lon="12.5096817"><ele>42.25</ele><time>2026-04-04T15:31:30.723Z</time></trkpt><trkpt lat="42.2855467" lon="12.5095"><ele>42.0</ele><time>2026-04-04T15:31:31.724Z</time></trkpt><trkpt lat="42.285565" lon="12.509325"><ele>41.75</ele><time>2026-04-04T15:31:32.728Z</time></trkpt><trkpt lat="42.28559" lon="12.509145"><ele>41.5</ele><time>2026-04-04T15:31:33.724Z</time></trkpt><trkpt lat="42.2856233" lon="12.5089533"><ele>41.25</ele><time>2026-04-04T15:31:34.722Z</time></trkpt><trkpt lat="42.285665" lon="12.5087517"><ele>41.0</ele><time>2026-04-04T15:31:35.722Z</time></trkpt><trkpt lat="42.2857133" lon="12.5085383"><ele>40.666666666666664</ele><time>2026-04-04T15:31:36.722Z</time></trkpt><trkpt lat="42.2857667" lon="12.508315"><ele>40.333333333333336</ele><time>2026-04-04T15:31:37.722Z</time></trkpt><trkpt lat="42.285825" lon="12.50809"><ele>40.0</ele><time>2026-04-04T15:31:38.723Z</time></trkpt><trkpt lat="42.2858817" lon="12.507865"><ele>39.66666666666667</ele><time>2026-04-04T15:31:39.724Z</time></trkpt><trkpt lat="42.2859367" lon="12.5076417"><ele>39.333333333333336</ele><time>2026-04-04T15:31:40.722Z</time></trkpt><trkpt lat="42.2859933" lon="12.5074167"><ele>39.0</ele><time>2026-04-04T15:31:41.724Z</time></trkpt><trkpt lat="42.28605" lon="12.50719"><ele>38.666666666666664</ele><time>2026-04-04T15:31:42.725Z</time></trkpt><trkpt lat="42.2861083" lon="12.5069667"><ele>38.33333333333333</ele><time>2026-04-04T15:31:43.723Z</time></trkpt><trkpt lat="42.2861617" lon="12.5067483"><ele>38.0</ele><time>2026-04-04T15:31:44.726Z</time></trkpt><trkpt lat="42.2862117" lon="12.506535"><ele>38.0</ele><time>2026-04-04T15:31:45.723Z</time></trkpt><trkpt lat="42.2862617" lon="12.5063267"><ele>38.0</ele><time>2026-04-04T15:31:46.724Z</time></trkpt><trkpt lat="42.2863117" lon="12.5061267"><ele>38.0</ele><time>2026-04-04T15:31:47.724Z</time></trkpt><trkpt lat="42.2863617" lon="12.5059333"><ele>37.75</ele><time>2026-04-04T15:31:48.726Z</time></trkpt><trkpt lat="42.28641" lon="12.505745"><ele>37.5</ele><time>2026-04-04T15:31:49.721Z</time></trkpt><trkpt lat="42.286455" lon="12.5055583"><ele>37.25</ele><time>2026-04-04T15:31:50.727Z</time></trkpt><trkpt lat="42.2865033" lon="12.5053767"><ele>37.0</ele><time>2026-04-04T15:31:51.726Z</time></trkpt><trkpt lat="42.2865583" lon="12.505205"><ele>37.0</ele><time>2026-04-04T15:31:52.723Z</time></trkpt><trkpt lat="42.28662" lon="12.505045"><ele>37.0</ele><time>2026-04-04T15:31:53.725Z</time></trkpt><trkpt lat="42.2866833" lon="12.5048817"><ele>37.0</ele><time>2026-04-04T15:31:54.724Z</time></trkpt><trkpt lat="42.2867433" lon="12.5047117"><ele>37.0</ele><time>2026-04-04T15:31:55.723Z</time></trkpt><trkpt lat="42.2868133" lon="12.5045383"><ele>37.0</ele><time>2026-04-04T15:31:56.723Z</time></trkpt><trkpt lat="42.28689" lon="12.5043617"><ele>37.0</ele><time>2026-04-04T15:31:57.723Z</time></trkpt><trkpt lat="42.2869617" lon="12.5041783"><ele>37.0</ele><time>2026-04-04T15:31:58.724Z</time></trkpt><trkpt lat="42.2870267" lon="12.50399"><ele>37.0</ele><time>2026-04-04T15:31:59.724Z</time></trkpt><trkpt lat="42.2870817" lon="12.5037933"><ele>37.0</ele><time>2026-04-04T15:32:00.727Z</time></trkpt><trkpt lat="42.2871267" lon="12.50358"><ele>37.0</ele><time>2026-04-04T15:32:01.722Z</time></trkpt><trkpt lat="42.2871667" lon="12.5033583"><ele>38.333333333333336</ele><time>2026-04-04T15:32:02.727Z</time></trkpt><trkpt lat="42.287205" lon="12.5031383"><ele>39.666666666666664</ele><time>2026-04-04T15:32:03.727Z</time></trkpt><trkpt lat="42.2872433" lon="12.5029183"><ele>41.0</ele><time>2026-04-04T15:32:04.725Z</time></trkpt><trkpt lat="42.2872833" lon="12.5027"><ele>41.0</ele><time>2026-04-04T15:32:05.727Z</time></trkpt><trkpt lat="42.28732" lon="12.50249"><ele>41.0</ele><time>2026-04-04T15:32:06.723Z</time></trkpt><trkpt lat="42.287355" lon="12.50229"><ele>41.0</ele><time>2026-04-04T15:32:07.724Z</time></trkpt><trkpt lat="42.2873883" lon="12.5021"><ele>41.75</ele><time>2026-04-04T15:32:08.724Z</time></trkpt><trkpt lat="42.287425" lon="12.5019217"><ele>42.5</ele><time>2026-04-04T15:32:09.725Z</time></trkpt><trkpt lat="42.28747" lon="12.501745"><ele>43.25</ele><time>2026-04-04T15:32:10.727Z</time></trkpt><trkpt lat="42.2875217" lon="12.501565"><ele>44.0</ele><time>2026-04-04T15:32:11.724Z</time></trkpt><trkpt lat="42.287585" lon="12.5013883"><ele>44.75</ele><time>2026-04-04T15:32:12.725Z</time></trkpt><trkpt lat="42.287655" lon="12.501215"><ele>45.5</ele><time>2026-04-04T15:32:13.723Z</time></trkpt><trkpt lat="42.2877267" lon="12.5010467"><ele>46.25</ele><time>2026-04-04T15:32:14.724Z</time></trkpt><trkpt lat="42.287795" lon="12.5008883"><ele>47.0</ele><time>2026-04-04T15:32:15.727Z</time></trkpt><trkpt lat="42.2878617" lon="12.500735"><ele>47.0</ele><time>2026-04-04T15:32:16.723Z</time></trkpt><trkpt lat="42.287935" lon="12.5005967"><ele>47.0</ele><time>2026-04-04T15:32:17.724Z</time></trkpt><trkpt lat="42.2880167" lon="12.5004717"><ele>47.0</ele><time>2026-04-04T15:32:18.722Z</time></trkpt><trkpt lat="42.2881067" lon="12.5003583"><ele>47.0</ele><time>2026-04-04T15:32:19.722Z</time></trkpt><trkpt lat="42.2881917" lon="12.5002683"><ele>46.83333333333333</ele><time>2026-04-04T15:32:20.724Z</time></trkpt><trkpt lat="42.2882583" lon="12.500195"><ele>46.666666666666664</ele><time>2026-04-04T15:32:21.721Z</time></trkpt><trkpt lat="42.2883117" lon="12.5001233"><ele>46.5</ele><time>2026-04-04T15:32:22.724Z</time></trkpt><trkpt lat="42.288345" lon="12.5000417"><ele>46.333333333333336</ele><time>2026-04-04T15:32:23.721Z</time></trkpt><trkpt lat="42.288365" lon="12.499955"><ele>46.16666666666667</ele><time>2026-04-04T15:32:24.726Z</time></trkpt><trkpt lat="42.2883867" lon="12.4998217"><ele>46.0</ele><time>2026-04-04T15:32:26.723Z</time></trkpt><trkpt lat="42.2883933" lon="12.4997067"><ele>46.0</ele><time>2026-04-04T15:32:29.727Z</time></trkpt><trkpt lat="42.2884" lon="12.4996"><ele>46.0</ele><time>2026-04-04T15:32:31.725Z</time></trkpt><trkpt lat="42.2884533" lon="12.4994583"><ele>46.0</ele><time>2026-04-04T15:32:33.722Z</time></trkpt><trkpt lat="42.2885017" lon="12.4993567"><ele>46.0</ele><time>2026-04-04T15:32:34.723Z</time></trkpt><trkpt lat="42.2885583" lon="12.4992417"><ele>46.0</ele><time>2026-04-04T15:32:35.727Z</time></trkpt><trkpt lat="42.2886117" lon="12.4991233"><ele>45.833333333333336</ele><time>2026-04-04T15:32:36.723Z</time></trkpt><trkpt lat="42.2886567" lon="12.4990067"><ele>45.66666666666667</ele><time>2026-04-04T15:32:37.722Z</time></trkpt><trkpt lat="42.2886967" lon="12.4989"><ele>45.5</ele><time>2026-04-04T15:32:38.723Z</time></trkpt><trkpt lat="42.2887417" lon="12.49881"><ele>45.333333333333336</ele><time>2026-04-04T15:32:39.724Z</time></trkpt><trkpt lat="42.2887917" lon="12.4987367"><ele>45.166666666666664</ele><time>2026-04-04T15:32:40.723Z</time></trkpt><trkpt lat="42.2888433" lon="12.498675"><ele>45.0</ele><time>2026-04-04T15:32:41.722Z</time></trkpt><trkpt lat="42.288895" lon="12.498615"><ele>44.666666666666664</ele><time>2026-04-04T15:32:42.725Z</time></trkpt><trkpt lat="42.288945" lon="12.4985483"><ele>44.333333333333336</ele><time>2026-04-04T15:32:43.722Z</time></trkpt><trkpt lat="42.2889983" lon="12.498485"><ele>44.0</ele><time>2026-04-04T15:32:44.723Z</time></trkpt><trkpt lat="42.28905" lon="12.4984167"><ele>43.66666666666667</ele><time>2026-04-04T15:32:45.723Z</time></trkpt><trkpt lat="42.2891" lon="12.498345"><ele>43.333333333333336</ele><time>2026-04-04T15:32:46.724Z</time></trkpt><trkpt lat="42.2891467" lon="12.4982733"><ele>43.0</ele><time>2026-04-04T15:32:47.724Z</time></trkpt><trkpt lat="42.289235" lon="12.49815"><ele>43.0</ele><time>2026-04-04T15:32:49.722Z</time></trkpt><trkpt lat="42.2892867" lon="12.4980867"><ele>43.0</ele><time>2026-04-04T15:32:50.723Z</time></trkpt><trkpt lat="42.28934" lon="12.4980167"><ele>43.0</ele><time>2026-04-04T15:32:51.725Z</time></trkpt><trkpt lat="42.2894" lon="12.49794"><ele>43.0</ele><time>2026-04-04T15:32:52.723Z</time></trkpt><trkpt lat="42.2894583" lon="12.497865"><ele>43.0</ele><time>2026-04-04T15:32:53.722Z</time></trkpt><trkpt lat="42.289515" lon="12.4977983"><ele>43.0</ele><time>2026-04-04T15:32:54.721Z</time></trkpt><trkpt lat="42.2895717" lon="12.4977333"><ele>42.833333333333336</ele><time>2026-04-04T15:32:55.721Z</time></trkpt><trkpt lat="42.2896217" lon="12.49767"><ele>42.66666666666667</ele><time>2026-04-04T15:32:56.726Z</time></trkpt><trkpt lat="42.2896733" lon="12.49761"><ele>42.5</ele><time>2026-04-04T15:32:57.722Z</time></trkpt><trkpt lat="42.28973" lon="12.4975417"><ele>42.333333333333336</ele><time>2026-04-04T15:32:58.722Z</time></trkpt><trkpt lat="42.2897917" lon="12.497465"><ele>42.166666666666664</ele><time>2026-04-04T15:32:59.723Z</time></trkpt><trkpt lat="42.289865" lon="12.4973783"><ele>42.0</ele><time>2026-04-04T15:33:00.722Z</time></trkpt><trkpt lat="42.2899467" lon="12.4972817"><ele>42.0</ele><time>2026-04-04T15:33:01.726Z</time></trkpt><trkpt lat="42.2900283" lon="12.4971917"><ele>42.0</ele><time>2026-04-04T15:33:02.722Z</time></trkpt><trkpt lat="42.2901117" lon="12.4971083"><ele>42.0</ele><time>2026-04-04T15:33:03.729Z</time></trkpt><trkpt lat="42.2902017" lon="12.4970167"><ele>42.0</ele><time>2026-04-04T15:33:04.721Z</time></trkpt><trkpt lat="42.290285" lon="12.496925"><ele>42.0</ele><time>2026-04-04T15:33:05.724Z</time></trkpt><trkpt lat="42.290365" lon="12.496835"><ele>42.0</ele><time>2026-04-04T15:33:06.726Z</time></trkpt><trkpt lat="42.29044" lon="12.4967483"><ele>42.0</ele><time>2026-04-04T15:33:07.725Z</time></trkpt><trkpt lat="42.2905083" lon="12.496665"><ele>42.0</ele><time>2026-04-04T15:33:08.725Z</time></trkpt><trkpt lat="42.29057" lon="12.4965883"><ele>42.0</ele><time>2026-04-04T15:33:09.723Z</time></trkpt><trkpt lat="42.2906267" lon="12.4965183"><ele>42.0</ele><time>2026-04-04T15:33:10.722Z</time></trkpt><trkpt lat="42.2906783" lon="12.4964517"><ele>42.0</ele><time>2026-04-04T15:33:11.725Z</time></trkpt><trkpt lat="42.290725" lon="12.4963817"><ele>42.0</ele><time>2026-04-04T15:33:12.721Z</time></trkpt><trkpt lat="42.2907767" lon="12.4963117"><ele>42.0</ele><time>2026-04-04T15:33:13.722Z</time></trkpt><trkpt lat="42.2908367" lon="12.49624"><ele>42.0</ele><time>2026-04-04T15:33:14.723Z</time></trkpt><trkpt lat="42.290905" lon="12.49616"><ele>42.0</ele><time>2026-04-04T15:33:15.724Z</time></trkpt><trkpt lat="42.2909767" lon="12.4960667"><ele>42.0</ele><time>2026-04-04T15:33:16.725Z</time></trkpt><trkpt lat="42.2910517" lon="12.4959733"><ele>42.0</ele><time>2026-04-04T15:33:17.724Z</time></trkpt><trkpt lat="42.2911183" lon="12.4958833"><ele>41.8</ele><time>2026-04-04T15:33:18.726Z</time></trkpt><trkpt lat="42.291185" lon="12.4957983"><ele>41.6</ele><time>2026-04-04T15:33:19.723Z</time></trkpt><trkpt lat="42.291245" lon="12.495715"><ele>41.4</ele><time>2026-04-04T15:33:20.725Z</time></trkpt><trkpt lat="42.2913033" lon="12.495625"><ele>41.199999999999996</ele><time>2026-04-04T15:33:21.722Z</time></trkpt><trkpt lat="42.2913733" lon="12.4955267"><ele>41.0</ele><time>2026-04-04T15:33:22.727Z</time></trkpt><trkpt lat="42.2914467" lon="12.4954233"><ele>41.8</ele><time>2026-04-04T15:33:23.723Z</time></trkpt><trkpt lat="42.2915183" lon="12.4953183"><ele>42.599999999999994</ele><time>2026-04-04T15:33:24.728Z</time></trkpt><trkpt lat="42.29159" lon="12.4952117"><ele>43.4</ele><time>2026-04-04T15:33:25.726Z</time></trkpt><trkpt lat="42.291665" lon="12.4951067"><ele>44.2</ele><time>2026-04-04T15:33:26.726Z</time></trkpt><trkpt lat="42.2917433" lon="12.4950067"><ele>45.0</ele><time>2026-04-04T15:33:27.729Z</time></trkpt><trkpt lat="42.2918233" lon="12.4949033"><ele>45.0</ele><time>2026-04-04T15:33:28.726Z</time></trkpt><trkpt lat="42.2919083" lon="12.494795"><ele>45.0</ele><time>2026-04-04T15:33:29.729Z</time></trkpt><trkpt lat="42.2920567" lon="12.49455"><ele>45.0</ele><time>2026-04-04T15:33:31.722Z</time></trkpt><trkpt lat="42.2921217" lon="12.4944267"><ele>44.0</ele><time>2026-04-04T15:33:32.726Z</time></trkpt><trkpt lat="42.29219" lon="12.4943067"><ele>43.0</ele><time>2026-04-04T15:33:33.723Z</time></trkpt><trkpt lat="42.292265" lon="12.4941883"><ele>42.0</ele><time>2026-04-04T15:33:34.725Z</time></trkpt><trkpt lat="42.29234" lon="12.4940767"><ele>41.0</ele><time>2026-04-04T15:33:35.722Z</time></trkpt><trkpt lat="42.2924167" lon="12.4939533"><ele>41.0</ele><time>2026-04-04T15:33:36.722Z</time></trkpt><trkpt lat="42.2924967" lon="12.4938233"><ele>41.0</ele><time>2026-04-04T15:33:37.724Z</time></trkpt><trkpt lat="42.2925817" lon="12.493695"><ele>41.0</ele><time>2026-04-04T15:33:38.724Z</time></trkpt><trkpt lat="42.2926717" lon="12.4935667"><ele>41.0</ele><time>2026-04-04T15:33:39.725Z</time></trkpt><trkpt lat="42.2927633" lon="12.4934433"><ele>40.199999999999996</ele><time>2026-04-04T15:33:40.725Z</time></trkpt><trkpt lat="42.2928517" lon="12.49333"><ele>39.4</ele><time>2026-04-04T15:33:41.724Z</time></trkpt><trkpt lat="42.292935" lon="12.4932233"><ele>38.6</ele><time>2026-04-04T15:33:42.723Z</time></trkpt><trkpt lat="42.293015" lon="12.4931233"><ele>37.8</ele><time>2026-04-04T15:33:43.725Z</time></trkpt><trkpt lat="42.29309" lon="12.4930283"><ele>37.0</ele><time>2026-04-04T15:33:44.722Z</time></trkpt><trkpt lat="42.2931533" lon="12.492945"><ele>38.57142857142857</ele><time>2026-04-04T15:33:45.724Z</time></trkpt><trkpt lat="42.2932133" lon="12.4928717"><ele>40.14285714285714</ele><time>2026-04-04T15:33:46.722Z</time></trkpt><trkpt lat="42.2932717" lon="12.4928117"><ele>41.71428571428571</ele><time>2026-04-04T15:33:47.723Z</time></trkpt><trkpt lat="42.29333" lon="12.4927617"><ele>43.285714285714285</ele><time>2026-04-04T15:33:48.723Z</time></trkpt><trkpt lat="42.2933867" lon="12.4927117"><ele>44.857142857142854</ele><time>2026-04-04T15:33:49.722Z</time></trkpt><trkpt lat="42.29344" lon="12.4926567"><ele>46.42857142857142</ele><time>2026-04-04T15:33:50.722Z</time></trkpt><trkpt lat="42.293485" lon="12.4925967"><ele>48.0</ele><time>2026-04-04T15:33:51.725Z</time></trkpt><trkpt lat="42.2935767" lon="12.4924617"><ele>48.0</ele><time>2026-04-04T15:33:53.723Z</time></trkpt><trkpt lat="42.2936333" lon="12.4923733"><ele>48.0</ele><time>2026-04-04T15:33:54.722Z</time></trkpt><trkpt lat="42.2936883" lon="12.492285"><ele>48.0</ele><time>2026-04-04T15:33:55.722Z</time></trkpt><trkpt lat="42.2937467" lon="12.4922017"><ele>48.0</ele><time>2026-04-04T15:33:56.725Z</time></trkpt><trkpt lat="42.2938017" lon="12.492125"><ele>48.0</ele><time>2026-04-04T15:33:57.721Z</time></trkpt><trkpt lat="42.2938517" lon="12.492055"><ele>48.0</ele><time>2026-04-04T15:33:58.723Z</time></trkpt><trkpt lat="42.29392" lon="12.4919517"><ele>46.599999999999994</ele><time>2026-04-04T15:34:00.725Z</time></trkpt><trkpt lat="42.2939717" lon="12.49186"><ele>45.199999999999996</ele><time>2026-04-04T15:34:02.723Z</time></trkpt><trkpt lat="42.294035" lon="12.4917383"><ele>43.8</ele><time>2026-04-04T15:34:04.726Z</time></trkpt><trkpt lat="42.2941033" lon="12.4916117"><ele>42.4</ele><time>2026-04-04T15:34:06.73Z</time></trkpt><trkpt lat="42.294165" lon="12.491525"><ele>41.0</ele><time>2026-04-04T15:34:08.726Z</time></trkpt><trkpt lat="42.294215" lon="12.4914483"><ele>41.0</ele><time>2026-04-04T15:34:10.722Z</time></trkpt><trkpt lat="42.2942933" lon="12.4913667"><ele>41.0</ele><time>2026-04-04T15:34:27.722Z</time></trkpt><trkpt lat="42.2943467" lon="12.4912983"><ele>41.0</ele><time>2026-04-04T15:34:34.722Z</time></trkpt><trkpt lat="42.2943917" lon="12.4912317"><ele>41.0</ele><time>2026-04-04T15:34:39.728Z</time></trkpt><trkpt lat="42.294435" lon="12.49115"><ele>41.0</ele><time>2026-04-04T15:34:44.723Z</time></trkpt><trkpt lat="42.2944633" lon="12.4910583"><ele>41.0</ele><time>2026-04-04T15:34:47.723Z</time></trkpt><trkpt lat="42.29452" lon="12.49091"><ele>43.166666666666664</ele><time>2026-04-04T15:34:49.724Z</time></trkpt><trkpt lat="42.2945483" lon="12.4908267"><ele>45.33333333333333</ele><time>2026-04-04T15:34:50.722Z</time></trkpt><trkpt lat="42.294565" lon="12.4907433"><ele>47.5</ele><time>2026-04-04T15:34:51.724Z</time></trkpt><trkpt lat="42.2945883" lon="12.4905833"><ele>49.666666666666664</ele><time>2026-04-04T15:34:53.725Z</time></trkpt><trkpt lat="42.2945833" lon="12.4904483"><ele>51.833333333333336</ele><time>2026-04-04T15:34:55.722Z</time></trkpt><trkpt lat="42.294545" lon="12.4903517"><ele>54.0</ele><time>2026-04-04T15:34:57.728Z</time></trkpt><trkpt lat="42.29447" lon="12.49019"><ele>54.800000000000004</ele><time>2026-04-04T15:35:14.721Z</time></trkpt><trkpt lat="42.2945283" lon="12.490115"><ele>55.60000000000001</ele><time>2026-04-04T15:35:18.723Z</time></trkpt><trkpt lat="42.294595" lon="12.4900717"><ele>56.4</ele><time>2026-04-04T15:35:21.723Z</time></trkpt><trkpt lat="42.29469" lon="12.4900517"><ele>57.2</ele><time>2026-04-04T15:35:24.723Z</time></trkpt><trkpt lat="42.294795" lon="12.490065"><ele>58.0</ele><time>2026-04-04T15:35:26.723Z</time></trkpt><trkpt lat="42.2948917" lon="12.4900417"><ele>58.599999999999994</ele><time>2026-04-04T15:35:28.722Z</time></trkpt><trkpt lat="42.2949733" lon="12.4899983"><ele>59.199999999999996</ele><time>2026-04-04T15:35:30.724Z</time></trkpt><trkpt lat="42.2950417" lon="12.4898833"><ele>59.8</ele><time>2026-04-04T15:35:32.722Z</time></trkpt><trkpt lat="42.2950883" lon="12.489735"><ele>60.4</ele><time>2026-04-04T15:35:34.721Z</time></trkpt><trkpt lat="42.2951067" lon="12.48964"><ele>61.0</ele><time>2026-04-04T15:35:35.721Z</time></trkpt><trkpt lat="42.2951217" lon="12.489525"><ele>60.99999999999999</ele><time>2026-04-04T15:35:36.724Z</time></trkpt><trkpt lat="42.2951367" lon="12.4894133"><ele>61.0</ele><time>2026-04-04T15:35:37.721Z</time></trkpt><trkpt lat="42.29516" lon="12.4893133"><ele>60.99999999999999</ele><time>2026-04-04T15:35:38.724Z</time></trkpt><trkpt lat="42.295185" lon="12.489225"><ele>60.99999999999999</ele><time>2026-04-04T15:35:39.724Z</time></trkpt><trkpt lat="42.295205" lon="12.48914"><ele>61.0</ele><time>2026-04-04T15:35:40.722Z</time></trkpt><trkpt lat="42.2952267" lon="12.4890517"><ele>60.99999999999999</ele><time>2026-04-04T15:35:41.725Z</time></trkpt><trkpt lat="42.2952417" lon="12.48896"><ele>60.99999999999999</ele><time>2026-04-04T15:35:42.725Z</time></trkpt><trkpt lat="42.2952533" lon="12.488875"><ele>60.99999999999999</ele><time>2026-04-04T15:35:43.723Z</time></trkpt><trkpt lat="42.29527" lon="12.4887833"><ele>61.0</ele><time>2026-04-04T15:35:45.724Z</time></trkpt><trkpt lat="42.2952983" lon="12.4887017"><ele>61.0</ele><time>2026-04-04T15:35:54.721Z</time></trkpt><trkpt lat="42.2952933" lon="12.4885933"><ele>61.0</ele><time>2026-04-04T15:35:56.723Z</time></trkpt><trkpt lat="42.2952967" lon="12.48847"><ele>60.99999999999999</ele><time>2026-04-04T15:35:58.724Z</time></trkpt><trkpt lat="42.2953083" lon="12.488385"><ele>61.0</ele><time>2026-04-04T15:36:01.723Z</time></trkpt><trkpt lat="42.2953517" lon="12.4882467"><ele>63.0</ele><time>2026-04-04T15:36:04.725Z</time></trkpt><trkpt lat="42.29539" lon="12.488155"><ele>65.0</ele><time>2026-04-04T15:36:05.726Z</time></trkpt><trkpt lat="42.2954267" lon="12.488065"><ele>67.0</ele><time>2026-04-04T15:36:06.724Z</time></trkpt><trkpt lat="42.2954583" lon="12.4879833"><ele>69.0</ele><time>2026-04-04T15:36:07.723Z</time></trkpt><trkpt lat="42.2955183" lon="12.4878433"><ele>71.0</ele><time>2026-04-04T15:36:09.724Z</time></trkpt><trkpt lat="42.2955733" lon="12.48771"><ele>67.0</ele><time>2026-04-04T15:36:11.724Z</time></trkpt><trkpt lat="42.295625" lon="12.4875867"><ele>63.0</ele><time>2026-04-04T15:36:13.724Z</time></trkpt><trkpt lat="42.2956767" lon="12.4875"><ele>59.0</ele><time>2026-04-04T15:36:15.722Z</time></trkpt><trkpt lat="42.2957783" lon="12.4874183"><ele>55.0</ele><time>2026-04-04T15:36:17.722Z</time></trkpt><trkpt lat="42.295835" lon="12.4873683"><ele>51.0</ele><time>2026-04-04T15:36:18.723Z</time></trkpt><trkpt lat="42.2958933" lon="12.4873217"><ele>47.0</ele><time>2026-04-04T15:36:19.725Z</time></trkpt><trkpt lat="42.2959567" lon="12.4872817"><ele>47.0</ele><time>2026-04-04T15:36:20.722Z</time></trkpt><trkpt lat="42.2960167" lon="12.487245"><ele>47.0</ele><time>2026-04-04T15:36:21.726Z</time></trkpt><trkpt lat="42.2961017" lon="12.48719"><ele>47.0</ele><time>2026-04-04T15:36:23.725Z</time></trkpt><trkpt lat="42.2961583" lon="12.4871383"><ele>47.0</ele><time>2026-04-04T15:36:26.723Z</time></trkpt><trkpt lat="42.2961917" lon="12.4870433"><ele>47.0</ele><time>2026-04-04T15:36:29.725Z</time></trkpt><trkpt lat="42.2962333" lon="12.4869333"><ele>47.0</ele><time>2026-04-04T15:36:32.723Z</time></trkpt><trkpt lat="42.29626" lon="12.4867983"><ele>48.666666666666664</ele><time>2026-04-04T15:36:51.727Z</time></trkpt><trkpt lat="42.296265" lon="12.4866967"><ele>50.33333333333333</ele><time>2026-04-04T15:36:53.723Z</time></trkpt><trkpt lat="42.2962567" lon="12.48658"><ele>52.0</ele><time>2026-04-04T15:36:55.726Z</time></trkpt><trkpt lat="42.29624" lon="12.4864567"><ele>53.666666666666664</ele><time>2026-04-04T15:36:57.727Z</time></trkpt><trkpt lat="42.2962517" lon="12.4863233"><ele>55.333333333333336</ele><time>2026-04-04T15:36:59.725Z</time></trkpt><trkpt lat="42.2962817" lon="12.4862133"><ele>57.0</ele><time>2026-04-04T15:37:01.722Z</time></trkpt><trkpt lat="42.296245" lon="12.4863217"><ele>57.0</ele><time>2026-04-04T15:37:33.724Z</time></trkpt><trkpt lat="42.29625" lon="12.48645"><ele>57.0</ele><time>2026-04-04T15:37:35.726Z</time></trkpt><trkpt lat="42.2962683" lon="12.4866017"><ele>57.0</ele><time>2026-04-04T15:37:37.725Z</time></trkpt><trkpt lat="42.296285" lon="12.4867483"><ele>57.0</ele><time>2026-04-04T15:37:39.723Z</time></trkpt><trkpt lat="42.2962683" lon="12.4868583"><ele>57.0</ele><time>2026-04-04T15:37:41.723Z</time></trkpt><trkpt lat="42.2962283" lon="12.4869467"><ele>57.0</ele><time>2026-04-04T15:37:43.722Z</time></trkpt><trkpt lat="42.2962017" lon="12.4870433"><ele>57.0</ele><time>2026-04-04T15:37:45.726Z</time></trkpt><trkpt lat="42.2961683" lon="12.487125"><ele>57.0</ele><time>2026-04-04T15:37:47.722Z</time></trkpt><trkpt lat="42.296095" lon="12.4871833"><ele>57.0</ele><time>2026-04-04T15:37:49.725Z</time></trkpt><trkpt lat="42.296" lon="12.4872383"><ele>57.0</ele><time>2026-04-04T15:37:51.725Z</time></trkpt><trkpt lat="42.2959383" lon="12.487275"><ele>57.0</ele><time>2026-04-04T15:37:52.723Z</time></trkpt><trkpt lat="42.2958817" lon="12.4873133"><ele>55.333333333333336</ele><time>2026-04-04T15:37:53.725Z</time></trkpt><trkpt lat="42.2958267" lon="12.487355"><ele>53.666666666666664</ele><time>2026-04-04T15:37:54.724Z</time></trkpt><trkpt lat="42.295775" lon="12.4874067"><ele>52.0</ele><time>2026-04-04T15:37:55.723Z</time></trkpt><trkpt lat="42.2957217" lon="12.487455"><ele>50.33333333333333</ele><time>2026-04-04T15:37:56.725Z</time></trkpt><trkpt lat="42.295645" lon="12.4875583"><ele>48.666666666666664</ele><time>2026-04-04T15:37:58.723Z</time></trkpt><trkpt lat="42.2956" lon="12.4876283"><ele>47.0</ele><time>2026-04-04T15:38:00.724Z</time></trkpt><trkpt lat="42.295555" lon="12.4877283"><ele>51.0</ele><time>2026-04-04T15:38:02.727Z</time></trkpt><trkpt lat="42.2955083" lon="12.4878417"><ele>55.0</ele><time>2026-04-04T15:38:04.725Z</time></trkpt><trkpt lat="42.2954767" lon="12.48795"><ele>59.0</ele><time>2026-04-04T15:38:06.723Z</time></trkpt><trkpt lat="42.2954317" lon="12.4880667"><ele>63.0</ele><time>2026-04-04T15:38:08.723Z</time></trkpt><trkpt lat="42.295385" lon="12.4881717"><ele>67.0</ele><time>2026-04-04T15:38:10.723Z</time></trkpt><trkpt lat="42.2953483" lon="12.4882583"><ele>71.0</ele><time>2026-04-04T15:38:12.727Z</time></trkpt><trkpt lat="42.2953167" lon="12.4883467"><ele>71.0</ele><time>2026-04-04T15:38:14.724Z</time></trkpt><trkpt lat="42.2953033" lon="12.4884783"><ele>71.0</ele><time>2026-04-04T15:38:17.722Z</time></trkpt><trkpt lat="42.29531" lon="12.4885817"><ele>71.0</ele><time>2026-04-04T15:38:19.723Z</time></trkpt><trkpt lat="42.29531" lon="12.4886767"><ele>71.0</ele><time>2026-04-04T15:38:21.727Z</time></trkpt><trkpt lat="42.2952883" lon="12.4887617"><ele>71.0</ele><time>2026-04-04T15:38:23.722Z</time></trkpt><trkpt lat="42.295265" lon="12.4888567"><ele>71.0</ele><time>2026-04-04T15:38:25.724Z</time></trkpt><trkpt lat="42.2952483" lon="12.4889583"><ele>69.33333333333334</ele><time>2026-04-04T15:38:27.725Z</time></trkpt><trkpt lat="42.2952417" lon="12.4890583"><ele>67.66666666666667</ele><time>2026-04-04T15:38:29.722Z</time></trkpt><trkpt lat="42.2952267" lon="12.489155"><ele>66.0</ele><time>2026-04-04T15:38:31.723Z</time></trkpt><trkpt lat="42.295205" lon="12.48924"><ele>64.33333333333333</ele><time>2026-04-04T15:38:33.726Z</time></trkpt><trkpt lat="42.295175" lon="12.48934"><ele>62.666666666666664</ele><time>2026-04-04T15:38:36.727Z</time></trkpt><trkpt lat="42.2951617" lon="12.4894383"><ele>61.0</ele><time>2026-04-04T15:38:39.721Z</time></trkpt><trkpt lat="42.29514" lon="12.4895683"><ele>58.83333333333333</ele><time>2026-04-04T15:38:42.723Z</time></trkpt><trkpt lat="42.29512" lon="12.48967"><ele>56.666666666666664</ele><time>2026-04-04T15:38:44.722Z</time></trkpt><trkpt lat="42.29509" lon="12.4897717"><ele>54.5</ele><time>2026-04-04T15:38:46.722Z</time></trkpt><trkpt lat="42.29506" lon="12.4898567"><ele>52.33333333333333</ele><time>2026-04-04T15:38:48.725Z</time></trkpt><trkpt lat="42.2950183" lon="12.4899233"><ele>50.166666666666664</ele><time>2026-04-04T15:38:50.723Z</time></trkpt><trkpt lat="42.2949383" lon="12.4899867"><ele>48.0</ele><time>2026-04-04T15:38:53.73Z</time></trkpt><trkpt lat="42.2948667" lon="12.4900183"><ele>48.0</ele><time>2026-04-04T15:38:56.732Z</time></trkpt><trkpt lat="42.2949467" lon="12.490035"><ele>48.0</ele><time>2026-04-04T15:39:26.729Z</time></trkpt><trkpt lat="42.295085" lon="12.489995"><ele>48.0</ele><time>2026-04-04T15:40:04.731Z</time></trkpt><trkpt lat="42.295155" lon="12.4899333"><ele>48.0</ele><time>2026-04-04T15:40:39.722Z</time></trkpt><trkpt lat="42.2951883" lon="12.4897817"><ele>48.0</ele><time>2026-04-04T15:40:41.722Z</time></trkpt><trkpt lat="42.2952167" lon="12.4896283"><ele>50.599999999999994</ele><time>2026-04-04T15:40:43.726Z</time></trkpt><trkpt lat="42.2952167" lon="12.4894633"><ele>53.199999999999996</ele><time>2026-04-04T15:40:45.724Z</time></trkpt><trkpt lat="42.2952217" lon="12.4893333"><ele>55.8</ele><time>2026-04-04T15:40:47.725Z</time></trkpt><trkpt lat="42.295245" lon="12.489195"><ele>58.4</ele><time>2026-04-04T15:40:49.726Z</time></trkpt><trkpt lat="42.2952517" lon="12.4891017"><ele>61.0</ele><time>2026-04-04T15:40:50.722Z</time></trkpt><trkpt lat="42.2952633" lon="12.4890067"><ele>61.0</ele><time>2026-04-04T15:40:51.722Z</time></trkpt><trkpt lat="42.295275" lon="12.4889167"><ele>60.99999999999999</ele><time>2026-04-04T15:40:52.722Z</time></trkpt><trkpt lat="42.2952933" lon="12.4887733"><ele>60.99999999999999</ele><time>2026-04-04T15:40:54.726Z</time></trkpt><trkpt lat="42.2953133" lon="12.4886717"><ele>61.0</ele><time>2026-04-04T15:40:56.73Z</time></trkpt><trkpt lat="42.2953167" lon="12.488545"><ele>61.0</ele><time>2026-04-04T15:40:58.728Z</time></trkpt><trkpt lat="42.2953183" lon="12.4883983"><ele>62.666666666666664</ele><time>2026-04-04T15:41:00.722Z</time></trkpt><trkpt lat="42.2953433" lon="12.4882883"><ele>64.33333333333333</ele><time>2026-04-04T15:41:02.722Z</time></trkpt><trkpt lat="42.29539" lon="12.4881567"><ele>66.0</ele><time>2026-04-04T15:41:04.723Z</time></trkpt><trkpt lat="42.295425" lon="12.4880767"><ele>67.66666666666667</ele><time>2026-04-04T15:41:05.731Z</time></trkpt><trkpt lat="42.2954533" lon="12.488"><ele>69.33333333333334</ele><time>2026-04-04T15:41:06.728Z</time></trkpt><trkpt lat="42.2954933" lon="12.4879017"><ele>71.0</ele><time>2026-04-04T15:41:08.721Z</time></trkpt><trkpt lat="42.2955317" lon="12.4878033"><ele>72.33333333333334</ele><time>2026-04-04T15:41:10.722Z</time></trkpt><trkpt lat="42.29557" lon="12.487715"><ele>73.66666666666667</ele><time>2026-04-04T15:41:13.722Z</time></trkpt><trkpt lat="42.2955883" lon="12.4876333"><ele>75.0</ele><time>2026-04-04T15:41:38.724Z</time></trkpt><trkpt lat="42.29565" lon="12.4875433"><ele>76.33333333333333</ele><time>2026-04-04T15:41:40.722Z</time></trkpt><trkpt lat="42.295725" lon="12.4874717"><ele>77.66666666666666</ele><time>2026-04-04T15:41:42.725Z</time></trkpt><trkpt lat="42.295835" lon="12.4873983"><ele>79.0</ele><time>2026-04-04T15:41:44.725Z</time></trkpt><trkpt lat="42.295945" lon="12.4873133"><ele>75.33333333333333</ele><time>2026-04-04T15:41:46.727Z</time></trkpt><trkpt lat="42.2960033" lon="12.4872767"><ele>71.66666666666666</ele><time>2026-04-04T15:41:47.722Z</time></trkpt><trkpt lat="42.296095" lon="12.487195"><ele>68.0</ele><time>2026-04-04T15:41:49.725Z</time></trkpt><trkpt lat="42.2961583" lon="12.487115"><ele>64.33333333333333</ele><time>2026-04-04T15:41:51.726Z</time></trkpt><trkpt lat="42.2961917" lon="12.4870167"><ele>60.666666666666664</ele><time>2026-04-04T15:41:53.729Z</time></trkpt><trkpt lat="42.296235" lon="12.486895"><ele>57.0</ele><time>2026-04-04T15:41:55.723Z</time></trkpt><trkpt lat="42.2962533" lon="12.486755"><ele>57.0</ele><time>2026-04-04T15:41:57.726Z</time></trkpt><trkpt lat="42.296245" lon="12.48667"><ele>56.99999999999999</ele><time>2026-04-04T15:41:58.722Z</time></trkpt><trkpt lat="42.2962333" lon="12.486565"><ele>57.0</ele><time>2026-04-04T15:41:59.725Z</time></trkpt><trkpt lat="42.2962283" lon="12.4864617"><ele>57.0</ele><time>2026-04-04T15:42:00.724Z</time></trkpt><trkpt lat="42.2962333" lon="12.48636"><ele>56.99999999999999</ele><time>2026-04-04T15:42:01.722Z</time></trkpt><trkpt lat="42.29625" lon="12.48626"><ele>57.0</ele><time>2026-04-04T15:42:02.721Z</time></trkpt><trkpt lat="42.29628" lon="12.4861717"><ele>57.0</ele><time>2026-04-04T15:42:03.722Z</time></trkpt><trkpt lat="42.2963183" lon="12.4861017"><ele>59.6</ele><time>2026-04-04T15:42:04.723Z</time></trkpt><trkpt lat="42.2963867" lon="12.4859767"><ele>62.2</ele><time>2026-04-04T15:42:06.724Z</time></trkpt><trkpt lat="42.2964417" lon="12.485845"><ele>64.8</ele><time>2026-04-04T15:42:08.728Z</time></trkpt><trkpt lat="42.2965017" lon="12.4857133"><ele>67.4</ele><time>2026-04-04T15:42:10.723Z</time></trkpt><trkpt lat="42.29656" lon="12.485605"><ele>70.0</ele><time>2026-04-04T15:42:12.721Z</time></trkpt><trkpt lat="42.2966083" lon="12.48552"><ele>67.0</ele><time>2026-04-04T15:42:14.723Z</time></trkpt><trkpt lat="42.2966617" lon="12.4854433"><ele>64.0</ele><time>2026-04-04T15:42:17.725Z</time></trkpt><trkpt lat="42.29678" lon="12.4853217"><ele>61.0</ele><time>2026-04-04T15:42:54.722Z</time></trkpt><trkpt lat="42.296865" lon="12.485305"><ele>58.0</ele><time>2026-04-04T15:42:58.722Z</time></trkpt><trkpt lat="42.29693" lon="12.4852883"><ele>54.99999999999999</ele><time>2026-04-04T15:43:00.722Z</time></trkpt><trkpt lat="42.2969983" lon="12.4852667"><ele>52.0</ele><time>2026-04-04T15:43:02.723Z</time></trkpt><trkpt lat="42.297055" lon="12.4852267"><ele>51.99999999999999</ele><time>2026-04-04T15:43:08.725Z</time></trkpt><trkpt lat="42.2971267" lon="12.4851483"><ele>52.0</ele><time>2026-04-04T15:43:11.723Z</time></trkpt><trkpt lat="42.2971767" lon="12.48506"><ele>52.0</ele><time>2026-04-04T15:43:14.724Z</time></trkpt><trkpt lat="42.2971883" lon="12.48495"><ele>52.0</ele><time>2026-04-04T15:43:17.723Z</time></trkpt><trkpt lat="42.2971867" lon="12.4848267"><ele>51.99999999999999</ele><time>2026-04-04T15:43:20.725Z</time></trkpt><trkpt lat="42.2971467" lon="12.4847483"><ele>52.0</ele><time>2026-04-04T15:43:23.723Z</time></trkpt><trkpt lat="42.2971083" lon="12.48463"><ele>50.57142857142857</ele><time>2026-04-04T15:43:33.723Z</time></trkpt><trkpt lat="42.2971017" lon="12.4845333"><ele>49.142857142857146</ele><time>2026-04-04T15:43:36.724Z</time></trkpt><trkpt lat="42.29714" lon="12.4844283"><ele>47.714285714285715</ele><time>2026-04-04T15:43:38.724Z</time></trkpt><trkpt lat="42.2971767" lon="12.4843533"><ele>46.285714285714285</ele><time>2026-04-04T15:43:39.726Z</time></trkpt><trkpt lat="42.2972133" lon="12.4842717"><ele>44.85714285714286</ele><time>2026-04-04T15:43:40.723Z</time></trkpt><trkpt lat="42.2972483" lon="12.48419"><ele>43.42857142857143</ele><time>2026-04-04T15:43:41.724Z</time></trkpt><trkpt lat="42.2972767" lon="12.4841117"><ele>42.0</ele><time>2026-04-04T15:43:42.725Z</time></trkpt><trkpt lat="42.297305" lon="12.4839633"><ele>42.0</ele><time>2026-04-04T15:43:44.723Z</time></trkpt><trkpt lat="42.2973067" lon="12.483875"><ele>42.0</ele><time>2026-04-04T15:43:45.723Z</time></trkpt><trkpt lat="42.2973117" lon="12.4837117"><ele>42.0</ele><time>2026-04-04T15:43:47.723Z</time></trkpt><trkpt lat="42.2973283" lon="12.4835533"><ele>42.0</ele><time>2026-04-04T15:43:49.722Z</time></trkpt><trkpt lat="42.2973717" lon="12.4834117"><ele>42.0</ele><time>2026-04-04T15:43:51.723Z</time></trkpt><trkpt lat="42.2974233" lon="12.4832883"><ele>43.25</ele><time>2026-04-04T15:43:53.724Z</time></trkpt><trkpt lat="42.2974717" lon="12.4831633"><ele>44.5</ele><time>2026-04-04T15:43:55.728Z</time></trkpt><trkpt lat="42.2975317" lon="12.48303"><ele>45.75</ele><time>2026-04-04T15:43:57.722Z</time></trkpt><trkpt lat="42.2976033" lon="12.482905"><ele>47.0</ele><time>2026-04-04T15:43:59.725Z</time></trkpt><trkpt lat="42.2976933" lon="12.4827967"><ele>48.166666666666664</ele><time>2026-04-04T15:44:01.726Z</time></trkpt><trkpt lat="42.2977967" lon="12.4827"><ele>49.33333333333333</ele><time>2026-04-04T15:44:03.725Z</time></trkpt><trkpt lat="42.297855" lon="12.4826567"><ele>50.5</ele><time>2026-04-04T15:44:04.724Z</time></trkpt><trkpt lat="42.2979167" lon="12.4826167"><ele>51.666666666666664</ele><time>2026-04-04T15:44:05.723Z</time></trkpt><trkpt lat="42.2979817" lon="12.48258"><ele>52.833333333333336</ele><time>2026-04-04T15:44:06.721Z</time></trkpt><trkpt lat="42.29805" lon="12.4825433"><ele>54.0</ele><time>2026-04-04T15:44:07.724Z</time></trkpt><trkpt lat="42.2981133" lon="12.4825067"><ele>54.0</ele><time>2026-04-04T15:44:08.721Z</time></trkpt><trkpt lat="42.2982317" lon="12.482455"><ele>54.0</ele><time>2026-04-04T15:44:10.725Z</time></trkpt><trkpt lat="42.29834" lon="12.4824367"><ele>54.0</ele><time>2026-04-04T15:44:12.723Z</time></trkpt><trkpt lat="42.2984517" lon="12.4824417"><ele>54.0</ele><time>2026-04-04T15:44:14.723Z</time></trkpt><trkpt lat="42.2985683" lon="12.4824767"><ele>54.0</ele><time>2026-04-04T15:44:16.724Z</time></trkpt><trkpt lat="42.2986833" lon="12.4825333"><ele>54.00000000000001</ele><time>2026-04-04T15:44:18.723Z</time></trkpt><trkpt lat="42.2987967" lon="12.482575"><ele>54.00000000000001</ele><time>2026-04-04T15:44:20.725Z</time></trkpt><trkpt lat="42.2988617" lon="12.4825883"><ele>54.0</ele><time>2026-04-04T15:44:21.721Z</time></trkpt><trkpt lat="42.2989317" lon="12.4825933"><ele>54.0</ele><time>2026-04-04T15:44:22.722Z</time></trkpt><trkpt lat="42.2990083" lon="12.4825967"><ele>53.0</ele><time>2026-04-04T15:44:23.727Z</time></trkpt><trkpt lat="42.2990817" lon="12.482605"><ele>52.0</ele><time>2026-04-04T15:44:24.723Z</time></trkpt><trkpt lat="42.2991517" lon="12.4826167"><ele>51.0</ele><time>2026-04-04T15:44:25.722Z</time></trkpt><trkpt lat="42.2992217" lon="12.4826267"><ele>50.0</ele><time>2026-04-04T15:44:26.724Z</time></trkpt><trkpt lat="42.29934" lon="12.4826367"><ele>49.0</ele><time>2026-04-04T15:44:28.723Z</time></trkpt><trkpt lat="42.2994417" lon="12.4826417"><ele>48.0</ele><time>2026-04-04T15:44:30.724Z</time></trkpt><trkpt lat="42.299565" lon="12.48263"><ele>48.0</ele><time>2026-04-04T15:44:32.725Z</time></trkpt><trkpt lat="42.29964" lon="12.4826033"><ele>48.0</ele><time>2026-04-04T15:44:33.723Z</time></trkpt><trkpt lat="42.2997183" lon="12.4825717"><ele>48.0</ele><time>2026-04-04T15:44:34.723Z</time></trkpt><trkpt lat="42.299795" lon="12.4825417"><ele>48.0</ele><time>2026-04-04T15:44:35.725Z</time></trkpt><trkpt lat="42.29987" lon="12.4825133"><ele>48.0</ele><time>2026-04-04T15:44:36.723Z</time></trkpt><trkpt lat="42.2999417" lon="12.4824917"><ele>48.0</ele><time>2026-04-04T15:44:37.731Z</time></trkpt><trkpt lat="42.3000067" lon="12.4824733"><ele>47.14285714285714</ele><time>2026-04-04T15:44:38.725Z</time></trkpt><trkpt lat="42.30007" lon="12.4824567"><ele>46.285714285714285</ele><time>2026-04-04T15:44:39.726Z</time></trkpt><trkpt lat="42.300135" lon="12.4824417"><ele>45.42857142857143</ele><time>2026-04-04T15:44:40.727Z</time></trkpt><trkpt lat="42.3002033" lon="12.482425"><ele>44.57142857142857</ele><time>2026-04-04T15:44:41.724Z</time></trkpt><trkpt lat="42.3002683" lon="12.4824"><ele>43.714285714285715</ele><time>2026-04-04T15:44:42.723Z</time></trkpt><trkpt lat="42.3003317" lon="12.482365"><ele>42.857142857142854</ele><time>2026-04-04T15:44:43.726Z</time></trkpt><trkpt lat="42.3003983" lon="12.4823183"><ele>42.0</ele><time>2026-04-04T15:44:44.726Z</time></trkpt><trkpt lat="42.3004617" lon="12.4822667"><ele>42.0</ele><time>2026-04-04T15:44:45.723Z</time></trkpt><trkpt lat="42.30052" lon="12.4822133"><ele>42.0</ele><time>2026-04-04T15:44:46.725Z</time></trkpt><trkpt lat="42.30058" lon="12.48216"><ele>42.0</ele><time>2026-04-04T15:44:47.722Z</time></trkpt><trkpt lat="42.3006317" lon="12.482105"><ele>42.0</ele><time>2026-04-04T15:44:48.724Z</time></trkpt><trkpt lat="42.3007167" lon="12.4819917"><ele>42.0</ele><time>2026-04-04T15:44:50.725Z</time></trkpt><trkpt lat="42.3007567" lon="12.481925"><ele>42.0</ele><time>2026-04-04T15:44:51.724Z</time></trkpt><trkpt lat="42.3007967" lon="12.481855"><ele>42.333333333333336</ele><time>2026-04-04T15:44:52.724Z</time></trkpt><trkpt lat="42.3008383" lon="12.4817783"><ele>42.666666666666664</ele><time>2026-04-04T15:44:53.726Z</time></trkpt><trkpt lat="42.3008767" lon="12.4816967"><ele>43.0</ele><time>2026-04-04T15:44:54.727Z</time></trkpt><trkpt lat="42.300915" lon="12.4816217"><ele>43.33333333333333</ele><time>2026-04-04T15:44:55.724Z</time></trkpt><trkpt lat="42.30099" lon="12.4815117"><ele>43.666666666666664</ele><time>2026-04-04T15:44:57.725Z</time></trkpt><trkpt lat="42.3010383" lon="12.4814567"><ele>44.0</ele><time>2026-04-04T15:44:58.724Z</time></trkpt><trkpt lat="42.3010867" lon="12.48139"><ele>44.0</ele><time>2026-04-04T15:44:59.722Z</time></trkpt><trkpt lat="42.3011383" lon="12.4813167"><ele>44.0</ele><time>2026-04-04T15:45:00.726Z</time></trkpt><trkpt lat="42.3011883" lon="12.481235"><ele>44.0</ele><time>2026-04-04T15:45:01.725Z</time></trkpt><trkpt lat="42.3012367" lon="12.4811533"><ele>44.0</ele><time>2026-04-04T15:45:02.725Z</time></trkpt><trkpt lat="42.3012867" lon="12.4810783"><ele>44.0</ele><time>2026-04-04T15:45:03.723Z</time></trkpt><trkpt lat="42.3013317" lon="12.481005"><ele>44.0</ele><time>2026-04-04T15:45:04.722Z</time></trkpt><trkpt lat="42.30138" lon="12.48093"><ele>44.0</ele><time>2026-04-04T15:45:05.725Z</time></trkpt><trkpt lat="42.30143" lon="12.4808617"><ele>43.5</ele><time>2026-04-04T15:45:06.727Z</time></trkpt><trkpt lat="42.3014817" lon="12.4807933"><ele>43.0</ele><time>2026-04-04T15:45:07.724Z</time></trkpt><trkpt lat="42.301535" lon="12.4807233"><ele>42.5</ele><time>2026-04-04T15:45:08.723Z</time></trkpt><trkpt lat="42.301595" lon="12.480655"><ele>42.0</ele><time>2026-04-04T15:45:09.725Z</time></trkpt><trkpt lat="42.3016533" lon="12.4805917"><ele>41.5</ele><time>2026-04-04T15:45:10.722Z</time></trkpt><trkpt lat="42.3017067" lon="12.4805317"><ele>41.0</ele><time>2026-04-04T15:45:11.723Z</time></trkpt><trkpt lat="42.301775" lon="12.4804367"><ele>42.666666666666664</ele><time>2026-04-04T15:45:13.726Z</time></trkpt><trkpt lat="42.30181" lon="12.4803617"><ele>44.33333333333333</ele><time>2026-04-04T15:45:15.722Z</time></trkpt><trkpt lat="42.3018667" lon="12.480255"><ele>46.0</ele><time>2026-04-04T15:45:18.723Z</time></trkpt><trkpt lat="42.30191" lon="12.480175"><ele>47.666666666666664</ele><time>2026-04-04T15:45:20.723Z</time></trkpt><trkpt lat="42.301955" lon="12.480035"><ele>49.333333333333336</ele><time>2026-04-04T15:45:22.723Z</time></trkpt><trkpt lat="42.3019817" lon="12.4799417"><ele>51.0</ele><time>2026-04-04T15:45:23.724Z</time></trkpt><trkpt lat="42.30201" lon="12.47984"><ele>51.0</ele><time>2026-04-04T15:45:24.722Z</time></trkpt><trkpt lat="42.3020367" lon="12.4797317"><ele>51.0</ele><time>2026-04-04T15:45:25.725Z</time></trkpt><trkpt lat="42.3020583" lon="12.4796217"><ele>51.0</ele><time>2026-04-04T15:45:26.723Z</time></trkpt><trkpt lat="42.30207" lon="12.4795167"><ele>51.0</ele><time>2026-04-04T15:45:27.722Z</time></trkpt><trkpt lat="42.3020783" lon="12.4794083"><ele>51.0</ele><time>2026-04-04T15:45:28.724Z</time></trkpt><trkpt lat="42.3020833" lon="12.479295"><ele>51.0</ele><time>2026-04-04T15:45:29.723Z</time></trkpt><trkpt lat="42.3020833" lon="12.47918"><ele>51.5</ele><time>2026-04-04T15:45:30.728Z</time></trkpt><trkpt lat="42.3020767" lon="12.47906"><ele>52.0</ele><time>2026-04-04T15:45:31.724Z</time></trkpt><trkpt lat="42.302065" lon="12.4789367"><ele>52.5</ele><time>2026-04-04T15:45:32.722Z</time></trkpt><trkpt lat="42.302045" lon="12.4788233"><ele>53.0</ele><time>2026-04-04T15:45:33.722Z</time></trkpt><trkpt lat="42.3020183" lon="12.47871"><ele>53.5</ele><time>2026-04-04T15:45:34.725Z</time></trkpt><trkpt lat="42.3019833" lon="12.4785983"><ele>54.0</ele><time>2026-04-04T15:45:35.724Z</time></trkpt><trkpt lat="42.3019433" lon="12.4784917"><ele>54.0</ele><time>2026-04-04T15:45:36.721Z</time></trkpt><trkpt lat="42.3019033" lon="12.4783917"><ele>54.0</ele><time>2026-04-04T15:45:37.725Z</time></trkpt><trkpt lat="42.3018783" lon="12.4783033"><ele>54.0</ele><time>2026-04-04T15:45:38.737Z</time></trkpt><trkpt lat="42.3018783" lon="12.47816"><ele>54.0</ele><time>2026-04-04T15:45:40.723Z</time></trkpt><trkpt lat="42.3019317" lon="12.478025"><ele>54.0</ele><time>2026-04-04T15:45:42.724Z</time></trkpt><trkpt lat="42.3019817" lon="12.477955"><ele>54.0</ele><time>2026-04-04T15:45:43.722Z</time></trkpt><trkpt lat="42.3020433" lon="12.4778867"><ele>52.666666666666664</ele><time>2026-04-04T15:45:44.723Z</time></trkpt><trkpt lat="42.3021067" lon="12.47782"><ele>51.333333333333336</ele><time>2026-04-04T15:45:45.724Z</time></trkpt><trkpt lat="42.3021733" lon="12.47775"><ele>50.0</ele><time>2026-04-04T15:45:46.725Z</time></trkpt><trkpt lat="42.302245" lon="12.477675"><ele>48.66666666666667</ele><time>2026-04-04T15:45:47.725Z</time></trkpt><trkpt lat="42.30232" lon="12.4775967"><ele>47.333333333333336</ele><time>2026-04-04T15:45:48.722Z</time></trkpt><trkpt lat="42.30239" lon="12.477525"><ele>46.0</ele><time>2026-04-04T15:45:49.726Z</time></trkpt><trkpt lat="42.3024583" lon="12.4774633"><ele>46.0</ele><time>2026-04-04T15:45:50.724Z</time></trkpt><trkpt lat="42.3025233" lon="12.47741"><ele>46.0</ele><time>2026-04-04T15:45:51.723Z</time></trkpt><trkpt lat="42.3025867" lon="12.4773617"><ele>46.0</ele><time>2026-04-04T15:45:52.724Z</time></trkpt><trkpt lat="42.302655" lon="12.477315"><ele>46.0</ele><time>2026-04-04T15:45:53.721Z</time></trkpt><trkpt lat="42.30272" lon="12.4772683"><ele>46.0</ele><time>2026-04-04T15:45:54.723Z</time></trkpt><trkpt lat="42.302775" lon="12.4772217"><ele>46.0</ele><time>2026-04-04T15:45:55.724Z</time></trkpt><trkpt lat="42.3028633" lon="12.4771283"><ele>45.66666666666667</ele><time>2026-04-04T15:45:57.724Z</time></trkpt><trkpt lat="42.3029417" lon="12.4770583"><ele>45.333333333333336</ele><time>2026-04-04T15:45:59.722Z</time></trkpt><trkpt lat="42.3030533" lon="12.477025"><ele>45.0</ele><time>2026-04-04T15:46:01.726Z</time></trkpt><trkpt lat="42.3031183" lon="12.4770233"><ele>44.666666666666664</ele><time>2026-04-04T15:46:02.723Z</time></trkpt><trkpt lat="42.3031917" lon="12.47702"><ele>44.33333333333333</ele><time>2026-04-04T15:46:03.723Z</time></trkpt><trkpt lat="42.303265" lon="12.4770183"><ele>44.0</ele><time>2026-04-04T15:46:04.723Z</time></trkpt><trkpt lat="42.3033333" lon="12.4770167"><ele>44.0</ele><time>2026-04-04T15:46:05.723Z</time></trkpt><trkpt lat="42.3034033" lon="12.47701"><ele>44.0</ele><time>2026-04-04T15:46:06.725Z</time></trkpt><trkpt lat="42.3035133" lon="12.476975"><ele>44.0</ele><time>2026-04-04T15:46:08.728Z</time></trkpt><trkpt lat="42.303595" lon="12.4769233"><ele>44.0</ele><time>2026-04-04T15:46:10.724Z</time></trkpt><trkpt lat="42.3036483" lon="12.4768567"><ele>44.0</ele><time>2026-04-04T15:46:12.725Z</time></trkpt><trkpt lat="42.3036417" lon="12.476765"><ele>44.0</ele><time>2026-04-04T15:46:26.723Z</time></trkpt><trkpt lat="42.3036017" lon="12.4766417"><ele>44.0</ele><time>2026-04-04T15:46:28.722Z</time></trkpt><trkpt lat="42.303595" lon="12.4765067"><ele>44.0</ele><time>2026-04-04T15:46:30.726Z</time></trkpt><trkpt lat="42.3036483" lon="12.476365"><ele>44.0</ele><time>2026-04-04T15:46:32.722Z</time></trkpt><trkpt lat="42.3036783" lon="12.476285"><ele>44.0</ele><time>2026-04-04T15:46:33.723Z</time></trkpt><trkpt lat="42.3037083" lon="12.4761817"><ele>44.0</ele><time>2026-04-04T15:46:34.723Z</time></trkpt><trkpt lat="42.303745" lon="12.4760483"><ele>46.2</ele><time>2026-04-04T15:46:35.726Z</time></trkpt><trkpt lat="42.3037817" lon="12.4758817"><ele>48.400000000000006</ele><time>2026-04-04T15:46:36.725Z</time></trkpt><trkpt lat="42.3038183" lon="12.4757267"><ele>50.6</ele><time>2026-04-04T15:46:37.724Z</time></trkpt><trkpt lat="42.3038483" lon="12.4756017"><ele>52.8</ele><time>2026-04-04T15:46:38.723Z</time></trkpt><trkpt lat="42.30387" lon="12.4755067"><ele>55.0</ele><time>2026-04-04T15:46:39.724Z</time></trkpt><trkpt lat="42.3038867" lon="12.47539"><ele>57.8</ele><time>2026-04-04T15:47:21.725Z</time></trkpt><trkpt lat="42.3039033" lon="12.4753017"><ele>60.6</ele><time>2026-04-04T15:47:22.723Z</time></trkpt><trkpt lat="42.3039317" lon="12.47516"><ele>63.400000000000006</ele><time>2026-04-04T15:47:23.725Z</time></trkpt><trkpt lat="42.3039583" lon="12.475025"><ele>66.2</ele><time>2026-04-04T15:47:24.727Z</time></trkpt><trkpt lat="42.3039933" lon="12.4748917"><ele>69.0</ele><time>2026-04-04T15:47:25.726Z</time></trkpt><trkpt lat="42.3040333" lon="12.4747583"><ele>63.0</ele><time>2026-04-04T15:47:26.724Z</time></trkpt><trkpt lat="42.3040783" lon="12.474615"><ele>57.0</ele><time>2026-04-04T15:47:27.722Z</time></trkpt><trkpt lat="42.3041317" lon="12.4744317"><ele>51.0</ele><time>2026-04-04T15:47:28.725Z</time></trkpt><trkpt lat="42.30419" lon="12.47425"><ele>45.0</ele><time>2026-04-04T15:47:29.727Z</time></trkpt><trkpt lat="42.3042383" lon="12.4740917"><ele>45.0</ele><time>2026-04-04T15:47:30.729Z</time></trkpt><trkpt lat="42.304275" lon="12.4739417"><ele>45.0</ele><time>2026-04-04T15:47:31.724Z</time></trkpt><trkpt lat="42.3043083" lon="12.4738017"><ele>45.0</ele><time>2026-04-04T15:47:32.724Z</time></trkpt><trkpt lat="42.304335" lon="12.47366"><ele>45.0</ele><time>2026-04-04T15:47:33.726Z</time></trkpt><trkpt lat="42.30436" lon="12.4735167"><ele>45.0</ele><time>2026-04-04T15:47:34.724Z</time></trkpt><trkpt lat="42.3043833" lon="12.4733767"><ele>46.0</ele><time>2026-04-04T15:47:35.724Z</time></trkpt><trkpt lat="42.3044033" lon="12.4732583"><ele>47.0</ele><time>2026-04-04T15:47:36.723Z</time></trkpt><trkpt lat="42.3044267" lon="12.4731667"><ele>48.0</ele><time>2026-04-04T15:47:37.724Z</time></trkpt><trkpt lat="42.3044783" lon="12.4730217"><ele>49.0</ele><time>2026-04-04T15:47:39.727Z</time></trkpt><trkpt lat="42.3045233" lon="12.4729283"><ele>50.0</ele><time>2026-04-04T15:47:41.725Z</time></trkpt><trkpt lat="42.3045233" lon="12.4727967"><ele>50.0</ele><time>2026-04-04T15:47:47.724Z</time></trkpt><trkpt lat="42.3045183" lon="12.472705"><ele>50.0</ele><time>2026-04-04T15:47:49.727Z</time></trkpt><trkpt lat="42.3045267" lon="12.472615"><ele>50.0</ele><time>2026-04-04T15:47:50.725Z</time></trkpt><trkpt lat="42.3045417" lon="12.4725117"><ele>50.0</ele><time>2026-04-04T15:47:51.727Z</time></trkpt><trkpt lat="42.3045683" lon="12.472375"><ele>50.0</ele><time>2026-04-04T15:47:52.727Z</time></trkpt><trkpt lat="42.3046333" lon="12.4721917"><ele>48.0</ele><time>2026-04-04T15:47:53.722Z</time></trkpt><trkpt lat="42.3047017" lon="12.4720067"><ele>46.0</ele><time>2026-04-04T15:47:54.727Z</time></trkpt><trkpt lat="42.3047583" lon="12.4718333"><ele>44.0</ele><time>2026-04-04T15:47:55.724Z</time></trkpt><trkpt lat="42.304805" lon="12.471675"><ele>42.0</ele><time>2026-04-04T15:47:56.728Z</time></trkpt><trkpt lat="42.3048467" lon="12.4715267"><ele>42.0</ele><time>2026-04-04T15:47:57.721Z</time></trkpt><trkpt lat="42.3048833" lon="12.47139"><ele>42.0</ele><time>2026-04-04T15:47:58.723Z</time></trkpt><trkpt lat="42.30493" lon="12.47126"><ele>42.0</ele><time>2026-04-04T15:47:59.728Z</time></trkpt><trkpt lat="42.3049833" lon="12.4711467"><ele>42.0</ele><time>2026-04-04T15:48:00.727Z</time></trkpt><trkpt lat="42.30504" lon="12.4710433"><ele>42.0</ele><time>2026-04-04T15:48:01.727Z</time></trkpt><trkpt lat="42.3050883" lon="12.470945"><ele>43.2</ele><time>2026-04-04T15:48:02.726Z</time></trkpt><trkpt lat="42.3051217" lon="12.4708517"><ele>44.400000000000006</ele><time>2026-04-04T15:48:03.722Z</time></trkpt><trkpt lat="42.305155" lon="12.470755"><ele>45.599999999999994</ele><time>2026-04-04T15:48:04.732Z</time></trkpt><trkpt lat="42.3051933" lon="12.4706467"><ele>46.8</ele><time>2026-04-04T15:48:05.724Z</time></trkpt><trkpt lat="42.3052317" lon="12.4705233"><ele>48.0</ele><time>2026-04-04T15:48:06.732Z</time></trkpt><trkpt lat="42.3052683" lon="12.4703833"><ele>48.599999999999994</ele><time>2026-04-04T15:48:07.726Z</time></trkpt><trkpt lat="42.3052983" lon="12.47025"><ele>49.199999999999996</ele><time>2026-04-04T15:48:08.727Z</time></trkpt><trkpt lat="42.3053167" lon="12.470125"><ele>49.8</ele><time>2026-04-04T15:48:09.731Z</time></trkpt><trkpt lat="42.3053267" lon="12.46999"><ele>50.4</ele><time>2026-04-04T15:48:10.729Z</time></trkpt><trkpt lat="42.30533" lon="12.469845"><ele>51.0</ele><time>2026-04-04T15:48:11.724Z</time></trkpt><trkpt lat="42.30533" lon="12.4697083"><ele>53.0</ele><time>2026-04-04T15:48:12.724Z</time></trkpt><trkpt lat="42.305325" lon="12.469585"><ele>55.0</ele><time>2026-04-04T15:48:13.725Z</time></trkpt><trkpt lat="42.305325" lon="12.4694717"><ele>57.0</ele><time>2026-04-04T15:48:14.725Z</time></trkpt><trkpt lat="42.305335" lon="12.4693583"><ele>59.0</ele><time>2026-04-04T15:48:15.721Z</time></trkpt><trkpt lat="42.3053567" lon="12.46924"><ele>61.0</ele><time>2026-04-04T15:48:16.728Z</time></trkpt><trkpt lat="42.3053933" lon="12.46912"><ele>63.0</ele><time>2026-04-04T15:48:17.728Z</time></trkpt><trkpt lat="42.305445" lon="12.469"><ele>63.0</ele><time>2026-04-04T15:48:18.73Z</time></trkpt><trkpt lat="42.3055017" lon="12.46888"><ele>63.0</ele><time>2026-04-04T15:48:19.725Z</time></trkpt><trkpt lat="42.30556" lon="12.4687583"><ele>63.0</ele><time>2026-04-04T15:48:20.725Z</time></trkpt><trkpt lat="42.3056167" lon="12.4686333"><ele>63.0</ele><time>2026-04-04T15:48:21.727Z</time></trkpt><trkpt lat="42.30567" lon="12.468515"><ele>63.0</ele><time>2026-04-04T15:48:22.727Z</time></trkpt><trkpt lat="42.305715" lon="12.4684017"><ele>60.8</ele><time>2026-04-04T15:48:23.724Z</time></trkpt><trkpt lat="42.3057617" lon="12.46829"><ele>58.599999999999994</ele><time>2026-04-04T15:48:24.724Z</time></trkpt><trkpt lat="42.3058183" lon="12.4681767"><ele>56.400000000000006</ele><time>2026-04-04T15:48:25.723Z</time></trkpt><trkpt lat="42.3058817" lon="12.4680583"><ele>54.2</ele><time>2026-04-04T15:48:26.731Z</time></trkpt><trkpt lat="42.30596" lon="12.4679367"><ele>52.0</ele><time>2026-04-04T15:48:27.728Z</time></trkpt><trkpt lat="42.3060533" lon="12.4678033"><ele>52.0</ele><time>2026-04-04T15:48:28.725Z</time></trkpt><trkpt lat="42.306155" lon="12.4676733"><ele>52.0</ele><time>2026-04-04T15:48:29.725Z</time></trkpt><trkpt lat="42.306245" lon="12.4675633"><ele>52.0</ele><time>2026-04-04T15:48:30.726Z</time></trkpt><trkpt lat="42.30632" lon="12.4674717"><ele>52.0</ele><time>2026-04-04T15:48:31.727Z</time></trkpt><trkpt lat="42.30638" lon="12.467395"><ele>52.0</ele><time>2026-04-04T15:48:32.726Z</time></trkpt><trkpt lat="42.3064617" lon="12.4672867"><ele>51.33333333333333</ele><time>2026-04-04T15:48:34.725Z</time></trkpt><trkpt lat="42.30656" lon="12.4671933"><ele>50.666666666666664</ele><time>2026-04-04T15:48:36.725Z</time></trkpt><trkpt lat="42.3066283" lon="12.46712"><ele>50.0</ele><time>2026-04-04T15:48:37.724Z</time></trkpt><trkpt lat="42.3066867" lon="12.467045"><ele>49.33333333333333</ele><time>2026-04-04T15:48:38.723Z</time></trkpt><trkpt lat="42.3067333" lon="12.4669667"><ele>48.666666666666664</ele><time>2026-04-04T15:48:39.725Z</time></trkpt><trkpt lat="42.30678" lon="12.46688"><ele>48.0</ele><time>2026-04-04T15:48:40.728Z</time></trkpt><trkpt lat="42.3068233" lon="12.4667783"><ele>48.0</ele><time>2026-04-04T15:48:41.724Z</time></trkpt><trkpt lat="42.3068683" lon="12.4666633"><ele>48.0</ele><time>2026-04-04T15:48:42.723Z</time></trkpt><trkpt lat="42.30692" lon="12.4665417"><ele>48.0</ele><time>2026-04-04T15:48:43.729Z</time></trkpt><trkpt lat="42.306965" lon="12.466405"><ele>48.0</ele><time>2026-04-04T15:48:44.729Z</time></trkpt><trkpt lat="42.30701" lon="12.466255"><ele>48.0</ele><time>2026-04-04T15:48:45.726Z</time></trkpt><trkpt lat="42.307055" lon="12.4661167"><ele>46.0</ele><time>2026-04-04T15:48:46.727Z</time></trkpt><trkpt lat="42.307105" lon="12.4659767"><ele>44.0</ele><time>2026-04-04T15:48:47.723Z</time></trkpt><trkpt lat="42.3071583" lon="12.46583"><ele>42.0</ele><time>2026-04-04T15:48:48.727Z</time></trkpt><trkpt lat="42.3072167" lon="12.4656683"><ele>40.0</ele><time>2026-04-04T15:48:49.725Z</time></trkpt><trkpt lat="42.307275" lon="12.4655017"><ele>40.8</ele><time>2026-04-04T15:48:50.729Z</time></trkpt><trkpt lat="42.30733" lon="12.46535"><ele>41.6</ele><time>2026-04-04T15:48:51.727Z</time></trkpt><trkpt lat="42.3073783" lon="12.46521"><ele>42.400000000000006</ele><time>2026-04-04T15:48:52.724Z</time></trkpt><trkpt lat="42.307425" lon="12.46508"><ele>43.2</ele><time>2026-04-04T15:48:53.724Z</time></trkpt><trkpt lat="42.3074683" lon="12.4649617"><ele>44.0</ele><time>2026-04-04T15:48:54.726Z</time></trkpt><trkpt lat="42.3075133" lon="12.4648467"><ele>44.0</ele><time>2026-04-04T15:48:55.725Z</time></trkpt><trkpt lat="42.3075717" lon="12.4647333"><ele>44.0</ele><time>2026-04-04T15:48:56.724Z</time></trkpt><trkpt lat="42.3076467" lon="12.4646117"><ele>44.0</ele><time>2026-04-04T15:48:57.725Z</time></trkpt><trkpt lat="42.30772" lon="12.464495"><ele>44.0</ele><time>2026-04-04T15:48:58.728Z</time></trkpt><trkpt lat="42.307775" lon="12.4644"><ele>44.0</ele><time>2026-04-04T15:48:59.726Z</time></trkpt><trkpt lat="42.3078233" lon="12.464315"><ele>44.6</ele><time>2026-04-04T15:49:00.723Z</time></trkpt><trkpt lat="42.3078683" lon="12.464235"><ele>45.2</ele><time>2026-04-04T15:49:01.722Z</time></trkpt><trkpt lat="42.3079117" lon="12.46414"><ele>45.800000000000004</ele><time>2026-04-04T15:49:02.727Z</time></trkpt><trkpt lat="42.3079583" lon="12.4640133"><ele>46.400000000000006</ele><time>2026-04-04T15:49:03.725Z</time></trkpt><trkpt lat="42.3080083" lon="12.4638667"><ele>47.0</ele><time>2026-04-04T15:49:04.724Z</time></trkpt><trkpt lat="42.3080683" lon="12.463715"><ele>44.5</ele><time>2026-04-04T15:49:05.725Z</time></trkpt><trkpt lat="42.30814" lon="12.4635583"><ele>42.0</ele><time>2026-04-04T15:49:06.724Z</time></trkpt><trkpt lat="42.30822" lon="12.463415"><ele>39.5</ele><time>2026-04-04T15:49:07.727Z</time></trkpt><trkpt lat="42.3082883" lon="12.4632933"><ele>37.0</ele><time>2026-04-04T15:49:08.725Z</time></trkpt><trkpt lat="42.30836" lon="12.4631767"><ele>37.0</ele><time>2026-04-04T15:49:09.73Z</time></trkpt><trkpt lat="42.30844" lon="12.4630583"><ele>37.0</ele><time>2026-04-04T15:49:10.726Z</time></trkpt><trkpt lat="42.3085183" lon="12.46295"><ele>37.0</ele><time>2026-04-04T15:49:11.725Z</time></trkpt><trkpt lat="42.308585" lon="12.4628617"><ele>37.0</ele><time>2026-04-04T15:49:12.725Z</time></trkpt><trkpt lat="42.3086417" lon="12.4627783"><ele>37.0</ele><time>2026-04-04T15:49:13.726Z</time></trkpt><trkpt lat="42.3086883" lon="12.4626917"><ele>36.833333333333336</ele><time>2026-04-04T15:49:14.727Z</time></trkpt><trkpt lat="42.308715" lon="12.462605"><ele>36.66666666666667</ele><time>2026-04-04T15:49:15.724Z</time></trkpt><trkpt lat="42.30873" lon="12.46251"><ele>36.5</ele><time>2026-04-04T15:49:16.723Z</time></trkpt><trkpt lat="42.3087283" lon="12.4624117"><ele>36.333333333333336</ele><time>2026-04-04T15:49:17.727Z</time></trkpt><trkpt lat="42.30871" lon="12.4623083"><ele>36.166666666666664</ele><time>2026-04-04T15:49:18.725Z</time></trkpt><trkpt lat="42.3086817" lon="12.4621917"><ele>36.0</ele><time>2026-04-04T15:49:19.727Z</time></trkpt><trkpt lat="42.3086283" lon="12.4620533"><ele>35.75</ele><time>2026-04-04T15:49:20.727Z</time></trkpt><trkpt lat="42.308545" lon="12.4618917"><ele>35.5</ele><time>2026-04-04T15:49:21.729Z</time></trkpt><trkpt lat="42.30846" lon="12.46174"><ele>35.25</ele><time>2026-04-04T15:49:22.724Z</time></trkpt><trkpt lat="42.3083817" lon="12.4615767"><ele>35.0</ele><time>2026-04-04T15:49:23.725Z</time></trkpt><trkpt lat="42.308305" lon="12.4613983"><ele>35.33333333333333</ele><time>2026-04-04T15:49:24.727Z</time></trkpt><trkpt lat="42.3082233" lon="12.46123"><ele>35.666666666666664</ele><time>2026-04-04T15:49:25.724Z</time></trkpt><trkpt lat="42.3081283" lon="12.4610617"><ele>36.0</ele><time>2026-04-04T15:49:26.724Z</time></trkpt><trkpt lat="42.3080283" lon="12.4608933"><ele>36.0</ele><time>2026-04-04T15:49:27.731Z</time></trkpt><trkpt lat="42.30794" lon="12.4607417"><ele>36.0</ele><time>2026-04-04T15:49:28.726Z</time></trkpt><trkpt lat="42.3078633" lon="12.4606067"><ele>36.0</ele><time>2026-04-04T15:49:29.727Z</time></trkpt><trkpt lat="42.3077967" lon="12.46048"><ele>36.0</ele><time>2026-04-04T15:49:30.723Z</time></trkpt><trkpt lat="42.3077333" lon="12.46034"><ele>36.25</ele><time>2026-04-04T15:49:31.726Z</time></trkpt><trkpt lat="42.30767" lon="12.4601733"><ele>36.5</ele><time>2026-04-04T15:49:32.723Z</time></trkpt><trkpt lat="42.307605" lon="12.4599933"><ele>36.75</ele><time>2026-04-04T15:49:33.724Z</time></trkpt><trkpt lat="42.3075417" lon="12.4598217"><ele>37.0</ele><time>2026-04-04T15:49:34.727Z</time></trkpt><trkpt lat="42.307485" lon="12.4596583"><ele>37.0</ele><time>2026-04-04T15:49:35.728Z</time></trkpt><trkpt lat="42.307435" lon="12.459505"><ele>37.0</ele><time>2026-04-04T15:49:36.725Z</time></trkpt><trkpt lat="42.3073917" lon="12.4593683"><ele>37.0</ele><time>2026-04-04T15:49:37.726Z</time></trkpt><trkpt lat="42.3073567" lon="12.459245"><ele>37.0</ele><time>2026-04-04T15:49:38.728Z</time></trkpt><trkpt lat="42.3073383" lon="12.4591517"><ele>37.0</ele><time>2026-04-04T15:49:39.729Z</time></trkpt><trkpt lat="42.3073183" lon="12.459035"><ele>37.0</ele><time>2026-04-04T15:49:41.725Z</time></trkpt><trkpt lat="42.3073383" lon="12.4589333"><ele>37.0</ele><time>2026-04-04T15:49:43.724Z</time></trkpt><trkpt lat="42.3073267" lon="12.4588217"><ele>37.0</ele><time>2026-04-04T15:54:04.723Z</time></trkpt><trkpt lat="42.3072517" lon="12.4587283"><ele>37.0</ele><time>2026-04-04T15:54:07.722Z</time></trkpt><trkpt lat="42.3071983" lon="12.4585967"><ele>37.0</ele><time>2026-04-04T15:54:09.725Z</time></trkpt><trkpt lat="42.307155" lon="12.4584917"><ele>37.0</ele><time>2026-04-04T15:54:11.722Z</time></trkpt><trkpt lat="42.3070917" lon="12.4584467"><ele>37.0</ele><time>2026-04-04T15:54:14.724Z</time></trkpt><trkpt lat="42.3070617" lon="12.4585383"><ele>37.0</ele><time>2026-04-04T15:54:17.722Z</time></trkpt><trkpt lat="42.3071083" lon="12.4586367"><ele>37.0</ele><time>2026-04-04T15:54:19.728Z</time></trkpt><trkpt lat="42.307195" lon="12.458755"><ele>37.0</ele><time>2026-04-04T15:54:21.725Z</time></trkpt><trkpt lat="42.3072483" lon="12.4588033"><ele>37.0</ele><time>2026-04-04T15:54:22.722Z</time></trkpt><trkpt lat="42.307325" lon="12.4588767"><ele>37.0</ele><time>2026-04-04T15:54:24.722Z</time></trkpt><trkpt lat="42.3073283" lon="12.4589983"><ele>37.0</ele><time>2026-04-04T15:54:27.722Z</time></trkpt><trkpt lat="42.3072733" lon="12.459095"><ele>37.0</ele><time>2026-04-04T15:54:29.724Z</time></trkpt><trkpt lat="42.3071833" lon="12.4591217"><ele>37.0</ele><time>2026-04-04T15:54:31.726Z</time></trkpt><trkpt lat="42.3071083" lon="12.459115"><ele>37.0</ele><time>2026-04-04T15:54:32.725Z</time></trkpt><trkpt lat="42.3070183" lon="12.4591083"><ele>37.0</ele><time>2026-04-04T15:54:33.724Z</time></trkpt><trkpt lat="42.3069283" lon="12.4591083"><ele>37.0</ele><time>2026-04-04T15:54:34.723Z</time></trkpt><trkpt lat="42.3068417" lon="12.4591167"><ele>37.0</ele><time>2026-04-04T15:54:35.722Z</time></trkpt><trkpt lat="42.3067517" lon="12.4591467"><ele>37.0</ele><time>2026-04-04T15:54:36.721Z</time></trkpt><trkpt lat="42.30665" lon="12.4592033"><ele>37.0</ele><time>2026-04-04T15:54:37.724Z</time></trkpt><trkpt lat="42.30654" lon="12.4592883"><ele>37.0</ele><time>2026-04-04T15:54:38.725Z</time></trkpt><trkpt lat="42.306425" lon="12.4594033"><ele>37.0</ele><time>2026-04-04T15:54:39.724Z</time></trkpt><trkpt lat="42.3063083" lon="12.4595267"><ele>37.0</ele><time>2026-04-04T15:54:40.722Z</time></trkpt><trkpt lat="42.3062" lon="12.4596467"><ele>37.0</ele><time>2026-04-04T15:54:41.722Z</time></trkpt><trkpt lat="42.3061" lon="12.4597583"><ele>37.0</ele><time>2026-04-04T15:54:42.723Z</time></trkpt><trkpt lat="42.30601" lon="12.4598683"><ele>37.6</ele><time>2026-04-04T15:54:43.721Z</time></trkpt><trkpt lat="42.305925" lon="12.4599667"><ele>38.2</ele><time>2026-04-04T15:54:44.723Z</time></trkpt><trkpt lat="42.305845" lon="12.4600617"><ele>38.8</ele><time>2026-04-04T15:54:45.728Z</time></trkpt><trkpt lat="42.30576" lon="12.4601633"><ele>39.4</ele><time>2026-04-04T15:54:46.721Z</time></trkpt><trkpt lat="42.3056717" lon="12.4602633"><ele>40.0</ele><time>2026-04-04T15:54:47.721Z</time></trkpt><trkpt lat="42.3055817" lon="12.4603617"><ele>42.6</ele><time>2026-04-04T15:54:48.722Z</time></trkpt><trkpt lat="42.3054933" lon="12.4604567"><ele>45.2</ele><time>2026-04-04T15:54:49.725Z</time></trkpt><trkpt lat="42.30541" lon="12.46056"><ele>47.8</ele><time>2026-04-04T15:54:50.723Z</time></trkpt><trkpt lat="42.30533" lon="12.460665"><ele>50.4</ele><time>2026-04-04T15:54:51.722Z</time></trkpt><trkpt lat="42.3052533" lon="12.4607617"><ele>53.0</ele><time>2026-04-04T15:54:52.722Z</time></trkpt><trkpt lat="42.305185" lon="12.4608467"><ele>53.00000000000001</ele><time>2026-04-04T15:54:53.722Z</time></trkpt><trkpt lat="42.305125" lon="12.4609217"><ele>53.0</ele><time>2026-04-04T15:54:54.722Z</time></trkpt><trkpt lat="42.305085" lon="12.4609933"><ele>53.0</ele><time>2026-04-04T15:54:55.721Z</time></trkpt><trkpt lat="42.3050783" lon="12.4611617"><ele>53.0</ele><time>2026-04-04T15:54:57.723Z</time></trkpt><trkpt lat="42.3051033" lon="12.4612433"><ele>53.00000000000001</ele><time>2026-04-04T15:54:58.721Z</time></trkpt><trkpt lat="42.305145" lon="12.46131"><ele>53.0</ele><time>2026-04-04T15:54:59.724Z</time></trkpt><trkpt lat="42.3052083" lon="12.461345"><ele>54.00000000000001</ele><time>2026-04-04T15:55:00.723Z</time></trkpt><trkpt lat="42.3052783" lon="12.4613683"><ele>55.0</ele><time>2026-04-04T15:55:01.721Z</time></trkpt><trkpt lat="42.3053583" lon="12.46138"><ele>56.0</ele><time>2026-04-04T15:55:02.724Z</time></trkpt><trkpt lat="42.3054467" lon="12.4613883"><ele>57.0</ele><time>2026-04-04T15:55:03.722Z</time></trkpt><trkpt lat="42.3055383" lon="12.4613967"><ele>58.00000000000001</ele><time>2026-04-04T15:55:04.724Z</time></trkpt><trkpt lat="42.3056267" lon="12.4614083"><ele>59.0</ele><time>2026-04-04T15:55:05.722Z</time></trkpt><trkpt lat="42.3057017" lon="12.46142"><ele>59.50000000000001</ele><time>2026-04-04T15:55:06.721Z</time></trkpt><trkpt lat="42.305765" lon="12.4614367"><ele>60.0</ele><time>2026-04-04T15:55:07.723Z</time></trkpt><trkpt lat="42.3058617" lon="12.4615067"><ele>60.5</ele><time>2026-04-04T15:55:09.721Z</time></trkpt><trkpt lat="42.3058967" lon="12.4616033"><ele>61.0</ele><time>2026-04-04T15:55:11.726Z</time></trkpt><trkpt lat="42.305825" lon="12.4616633"><ele>61.50000000000001</ele><time>2026-04-04T15:55:14.724Z</time></trkpt><trkpt lat="42.3057317" lon="12.46167"><ele>62.0</ele><time>2026-04-04T15:55:16.722Z</time></trkpt><trkpt lat="42.3056217" lon="12.461685"><ele>61.50000000000001</ele><time>2026-04-04T15:55:18.725Z</time></trkpt><trkpt lat="42.3055567" lon="12.4617083"><ele>61.0</ele><time>2026-04-04T15:55:19.723Z</time></trkpt><trkpt lat="42.3054867" lon="12.4617383"><ele>60.5</ele><time>2026-04-04T15:55:20.724Z</time></trkpt><trkpt lat="42.305415" lon="12.4617667"><ele>60.0</ele><time>2026-04-04T15:55:21.724Z</time></trkpt><trkpt lat="42.305345" lon="12.4618067"><ele>59.50000000000001</ele><time>2026-04-04T15:55:22.728Z</time></trkpt><trkpt lat="42.3052667" lon="12.461855"><ele>59.0</ele><time>2026-04-04T15:55:23.728Z</time></trkpt><trkpt lat="42.305185" lon="12.4619"><ele>59.00000000000001</ele><time>2026-04-04T15:55:24.723Z</time></trkpt><trkpt lat="42.3051033" lon="12.4619517"><ele>59.0</ele><time>2026-04-04T15:55:25.724Z</time></trkpt><trkpt lat="42.3050283" lon="12.4620117"><ele>59.0</ele><time>2026-04-04T15:55:26.724Z</time></trkpt><trkpt lat="42.304965" lon="12.4620733"><ele>59.0</ele><time>2026-04-04T15:55:27.723Z</time></trkpt><trkpt lat="42.30491" lon="12.46214"><ele>59.00000000000001</ele><time>2026-04-04T15:55:28.725Z</time></trkpt><trkpt lat="42.3048583" lon="12.4622167"><ele>59.0</ele><time>2026-04-04T15:55:29.725Z</time></trkpt><trkpt lat="42.3048133" lon="12.4623"><ele>59.2</ele><time>2026-04-04T15:55:30.722Z</time></trkpt><trkpt lat="42.3047717" lon="12.4623933"><ele>59.400000000000006</ele><time>2026-04-04T15:55:31.722Z</time></trkpt><trkpt lat="42.3047417" lon="12.4624983"><ele>59.6</ele><time>2026-04-04T15:55:32.724Z</time></trkpt><trkpt lat="42.304725" lon="12.4626267"><ele>59.8</ele><time>2026-04-04T15:55:33.725Z</time></trkpt><trkpt lat="42.3047117" lon="12.4627833"><ele>60.0</ele><time>2026-04-04T15:55:34.723Z</time></trkpt><trkpt lat="42.3046817" lon="12.4629483"><ele>62.5</ele><time>2026-04-04T15:55:35.723Z</time></trkpt><trkpt lat="42.30464" lon="12.4631117"><ele>65.0</ele><time>2026-04-04T15:55:36.726Z</time></trkpt><trkpt lat="42.3045883" lon="12.4632583"><ele>67.5</ele><time>2026-04-04T15:55:37.725Z</time></trkpt><trkpt lat="42.3045333" lon="12.4633933"><ele>70.0</ele><time>2026-04-04T15:55:38.722Z</time></trkpt><trkpt lat="42.3044867" lon="12.4635267"><ele>70.0</ele><time>2026-04-04T15:55:39.723Z</time></trkpt><trkpt lat="42.3044567" lon="12.4636533"><ele>70.0</ele><time>2026-04-04T15:55:40.724Z</time></trkpt><trkpt lat="42.3044433" lon="12.4637783"><ele>70.0</ele><time>2026-04-04T15:55:41.722Z</time></trkpt><trkpt lat="42.3044417" lon="12.463915"><ele>70.0</ele><time>2026-04-04T15:55:42.726Z</time></trkpt><trkpt lat="42.3044417" lon="12.4640617"><ele>70.0</ele><time>2026-04-04T15:55:43.722Z</time></trkpt><trkpt lat="42.3044417" lon="12.46421"><ele>74.0</ele><time>2026-04-04T15:55:44.724Z</time></trkpt><trkpt lat="42.3044217" lon="12.4643533"><ele>78.0</ele><time>2026-04-04T15:55:45.726Z</time></trkpt><trkpt lat="42.3043733" lon="12.4644917"><ele>82.0</ele><time>2026-04-04T15:55:46.722Z</time></trkpt><trkpt lat="42.3042983" lon="12.4646283"><ele>86.0</ele><time>2026-04-04T15:55:47.728Z</time></trkpt><trkpt lat="42.3042167" lon="12.4647733"><ele>87.0</ele><time>2026-04-04T15:55:48.724Z</time></trkpt><trkpt lat="42.304135" lon="12.4649217"><ele>88.0</ele><time>2026-04-04T15:55:49.723Z</time></trkpt><trkpt lat="42.3040467" lon="12.4650667"><ele>89.0</ele><time>2026-04-04T15:55:50.723Z</time></trkpt><trkpt lat="42.3039467" lon="12.4652133"><ele>90.0</ele><time>2026-04-04T15:55:51.723Z</time></trkpt><trkpt lat="42.3038467" lon="12.46535"><ele>95.0</ele><time>2026-04-04T15:55:52.726Z</time></trkpt><trkpt lat="42.3037533" lon="12.4654833"><ele>100.0</ele><time>2026-04-04T15:55:53.723Z</time></trkpt><trkpt lat="42.3036633" lon="12.4656117"><ele>105.0</ele><time>2026-04-04T15:55:54.727Z</time></trkpt><trkpt lat="42.3035817" lon="12.4657433"><ele>110.0</ele><time>2026-04-04T15:55:55.722Z</time></trkpt><trkpt lat="42.3035" lon="12.4658717"><ele>110.0</ele><time>2026-04-04T15:55:56.724Z</time></trkpt><trkpt lat="42.3034183" lon="12.4659833"><ele>110.0</ele><time>2026-04-04T15:55:57.725Z</time></trkpt><trkpt lat="42.30334" lon="12.466085"><ele>110.0</ele><time>2026-04-04T15:55:58.726Z</time></trkpt><trkpt lat="42.3032483" lon="12.4661833"><ele>110.0</ele><time>2026-04-04T15:55:59.721Z</time></trkpt><trkpt lat="42.3031517" lon="12.4662683"><ele>113.25</ele><time>2026-04-04T15:56:00.725Z</time></trkpt><trkpt lat="42.30305" lon="12.466345"><ele>116.5</ele><time>2026-04-04T15:56:01.722Z</time></trkpt><trkpt lat="42.30294" lon="12.46641"><ele>119.75</ele><time>2026-04-04T15:56:02.727Z</time></trkpt><trkpt lat="42.30284" lon="12.46647"><ele>123.0</ele><time>2026-04-04T15:56:03.726Z</time></trkpt><trkpt lat="42.3027383" lon="12.46653"><ele>123.0</ele><time>2026-04-04T15:56:04.727Z</time></trkpt><trkpt lat="42.3026417" lon="12.4665983"><ele>123.00000000000001</ele><time>2026-04-04T15:56:05.726Z</time></trkpt><trkpt lat="42.3025533" lon="12.4666617"><ele>123.00000000000001</ele><time>2026-04-04T15:56:06.723Z</time></trkpt><trkpt lat="42.3024683" lon="12.4667283"><ele>123.0</ele><time>2026-04-04T15:56:07.723Z</time></trkpt><trkpt lat="42.3023817" lon="12.466805"><ele>123.0</ele><time>2026-04-04T15:56:08.725Z</time></trkpt><trkpt lat="42.30229" lon="12.4668733"><ele>123.0</ele><time>2026-04-04T15:56:09.723Z</time></trkpt><trkpt lat="42.302195" lon="12.46693"><ele>123.00000000000001</ele><time>2026-04-04T15:56:10.721Z</time></trkpt><trkpt lat="42.3020933" lon="12.4669717"><ele>123.00000000000001</ele><time>2026-04-04T15:56:11.722Z</time></trkpt><trkpt lat="42.3019917" lon="12.4670117"><ele>123.0</ele><time>2026-04-04T15:56:12.725Z</time></trkpt><trkpt lat="42.3018883" lon="12.46705"><ele>123.0</ele><time>2026-04-04T15:56:13.722Z</time></trkpt><trkpt lat="42.3017783" lon="12.4670683"><ele>123.0</ele><time>2026-04-04T15:56:14.722Z</time></trkpt><trkpt lat="42.3016617" lon="12.4670633"><ele>123.0</ele><time>2026-04-04T15:56:15.723Z</time></trkpt><trkpt lat="42.3015483" lon="12.4670433"><ele>123.0</ele><time>2026-04-04T15:56:16.722Z</time></trkpt><trkpt lat="42.30144" lon="12.46702"><ele>123.0</ele><time>2026-04-04T15:56:17.725Z</time></trkpt><trkpt lat="42.3013333" lon="12.4669767"><ele>125.80000000000001</ele><time>2026-04-04T15:56:18.722Z</time></trkpt><trkpt lat="42.3012317" lon="12.46693"><ele>128.60000000000002</ele><time>2026-04-04T15:56:19.725Z</time></trkpt><trkpt lat="42.3011433" lon="12.46688"><ele>131.39999999999998</ele><time>2026-04-04T15:56:20.722Z</time></trkpt><trkpt lat="42.3010567" lon="12.4668183"><ele>134.2</ele><time>2026-04-04T15:56:21.722Z</time></trkpt><trkpt lat="42.3009767" lon="12.4667383"><ele>137.0</ele><time>2026-04-04T15:56:22.723Z</time></trkpt><trkpt lat="42.3009033" lon="12.4666567"><ele>137.0</ele><time>2026-04-04T15:56:23.722Z</time></trkpt><trkpt lat="42.3008333" lon="12.466575"><ele>137.0</ele><time>2026-04-04T15:56:24.723Z</time></trkpt><trkpt lat="42.300765" lon="12.4665017"><ele>137.0</ele><time>2026-04-04T15:56:25.727Z</time></trkpt><trkpt lat="42.3006917" lon="12.4664333"><ele>137.0</ele><time>2026-04-04T15:56:26.723Z</time></trkpt><trkpt lat="42.30061" lon="12.4663817"><ele>137.0</ele><time>2026-04-04T15:56:27.722Z</time></trkpt><trkpt lat="42.3005367" lon="12.4663533"><ele>137.0</ele><time>2026-04-04T15:56:28.723Z</time></trkpt><trkpt lat="42.3004617" lon="12.4663533"><ele>138.2</ele><time>2026-04-04T15:56:29.723Z</time></trkpt><trkpt lat="42.3003817" lon="12.4663733"><ele>139.39999999999998</ele><time>2026-04-04T15:56:30.725Z</time></trkpt><trkpt lat="42.3003017" lon="12.4664117"><ele>140.60000000000002</ele><time>2026-04-04T15:56:31.726Z</time></trkpt><trkpt lat="42.3002217" lon="12.4664833"><ele>141.8</ele><time>2026-04-04T15:56:32.723Z</time></trkpt><trkpt lat="42.30013" lon="12.4665833"><ele>143.0</ele><time>2026-04-04T15:56:33.722Z</time></trkpt><trkpt lat="42.300035" lon="12.466685"><ele>143.0</ele><time>2026-04-04T15:56:34.721Z</time></trkpt><trkpt lat="42.2999367" lon="12.466775"><ele>143.0</ele><time>2026-04-04T15:56:35.724Z</time></trkpt><trkpt lat="42.29984" lon="12.46684"><ele>143.0</ele><time>2026-04-04T15:56:36.723Z</time></trkpt><trkpt lat="42.299735" lon="12.4668883"><ele>143.0</ele><time>2026-04-04T15:56:37.723Z</time></trkpt><trkpt lat="42.29961" lon="12.4669333"><ele>143.25</ele><time>2026-04-04T15:56:38.723Z</time></trkpt><trkpt lat="42.2994867" lon="12.46698"><ele>143.5</ele><time>2026-04-04T15:56:39.723Z</time></trkpt><trkpt lat="42.299365" lon="12.4670383"><ele>143.75</ele><time>2026-04-04T15:56:40.726Z</time></trkpt><trkpt lat="42.2992383" lon="12.4671117"><ele>144.0</ele><time>2026-04-04T15:56:41.722Z</time></trkpt><trkpt lat="42.2991017" lon="12.467195"><ele>145.5</ele><time>2026-04-04T15:56:42.723Z</time></trkpt><trkpt lat="42.2989683" lon="12.4672717"><ele>147.0</ele><time>2026-04-04T15:56:43.723Z</time></trkpt><trkpt lat="42.298845" lon="12.4673467"><ele>148.5</ele><time>2026-04-04T15:56:44.725Z</time></trkpt><trkpt lat="42.2987283" lon="12.4674233"><ele>150.0</ele><time>2026-04-04T15:56:45.724Z</time></trkpt><trkpt lat="42.2986117" lon="12.4675"><ele>150.0</ele><time>2026-04-04T15:56:46.724Z</time></trkpt><trkpt lat="42.29849" lon="12.4675717"><ele>150.0</ele><time>2026-04-04T15:56:47.722Z</time></trkpt><trkpt lat="42.2983767" lon="12.4676333"><ele>150.0</ele><time>2026-04-04T15:56:48.723Z</time></trkpt><trkpt lat="42.2982717" lon="12.46769"><ele>150.0</ele><time>2026-04-04T15:56:49.724Z</time></trkpt><trkpt lat="42.298175" lon="12.46774"><ele>150.0</ele><time>2026-04-04T15:56:50.723Z</time></trkpt><trkpt lat="42.29809" lon="12.4677833"><ele>150.0</ele><time>2026-04-04T15:56:51.723Z</time></trkpt><trkpt lat="42.2980183" lon="12.467815"><ele>150.0</ele><time>2026-04-04T15:56:52.724Z</time></trkpt><trkpt lat="42.2979117" lon="12.4678767"><ele>150.0</ele><time>2026-04-04T15:56:54.722Z</time></trkpt><trkpt lat="42.2978183" lon="12.4679633"><ele>150.0</ele><time>2026-04-04T15:56:56.726Z</time></trkpt><trkpt lat="42.2977817" lon="12.4680783"><ele>150.0</ele><time>2026-04-04T15:56:58.726Z</time></trkpt><trkpt lat="42.2977783" lon="12.468255"><ele>150.0</ele><time>2026-04-04T15:57:00.722Z</time></trkpt><trkpt lat="42.2977883" lon="12.4683433"><ele>150.0</ele><time>2026-04-04T15:57:01.728Z</time></trkpt><trkpt lat="42.2977983" lon="12.4684283"><ele>150.0</ele><time>2026-04-04T15:57:02.723Z</time></trkpt><trkpt lat="42.2978083" lon="12.46858"><ele>150.0</ele><time>2026-04-04T15:57:04.722Z</time></trkpt><trkpt lat="42.297815" lon="12.468745"><ele>149.83333333333334</ele><time>2026-04-04T15:57:06.723Z</time></trkpt><trkpt lat="42.29782" lon="12.468855"><ele>149.66666666666666</ele><time>2026-04-04T15:57:07.722Z</time></trkpt><trkpt lat="42.2978383" lon="12.4689883"><ele>149.5</ele><time>2026-04-04T15:57:08.725Z</time></trkpt><trkpt lat="42.2978567" lon="12.4691083"><ele>149.33333333333331</ele><time>2026-04-04T15:57:09.726Z</time></trkpt><trkpt lat="42.29788" lon="12.46922"><ele>149.16666666666666</ele><time>2026-04-04T15:57:10.723Z</time></trkpt><trkpt lat="42.2979033" lon="12.4693217"><ele>149.0</ele><time>2026-04-04T15:57:11.723Z</time></trkpt><trkpt lat="42.2979233" lon="12.46942"><ele>149.0</ele><time>2026-04-04T15:57:12.724Z</time></trkpt><trkpt lat="42.2979367" lon="12.4695033"><ele>149.0</ele><time>2026-04-04T15:57:13.724Z</time></trkpt><trkpt lat="42.2979217" lon="12.4696667"><ele>149.0</ele><time>2026-04-04T15:57:15.722Z</time></trkpt><trkpt lat="42.2978833" lon="12.4698"><ele>149.0</ele><time>2026-04-04T15:57:17.723Z</time></trkpt><trkpt lat="42.297835" lon="12.46991"><ele>149.0</ele><time>2026-04-04T15:57:19.725Z</time></trkpt><trkpt lat="42.2977733" lon="12.4700233"><ele>149.2</ele><time>2026-04-04T15:57:21.724Z</time></trkpt><trkpt lat="42.2977117" lon="12.4701183"><ele>149.4</ele><time>2026-04-04T15:57:23.723Z</time></trkpt><trkpt lat="42.2976383" lon="12.4701867"><ele>149.6</ele><time>2026-04-04T15:57:25.722Z</time></trkpt><trkpt lat="42.2975517" lon="12.47026"><ele>149.8</ele><time>2026-04-04T15:57:27.724Z</time></trkpt><trkpt lat="42.29746" lon="12.4703433"><ele>150.0</ele><time>2026-04-04T15:57:29.726Z</time></trkpt><trkpt lat="42.297365" lon="12.470425"><ele>150.4</ele><time>2026-04-04T15:57:31.724Z</time></trkpt><trkpt lat="42.2972617" lon="12.47051"><ele>150.8</ele><time>2026-04-04T15:57:33.727Z</time></trkpt><trkpt lat="42.2971867" lon="12.4705833"><ele>151.2</ele><time>2026-04-04T15:57:34.722Z</time></trkpt><trkpt lat="42.297095" lon="12.47067"><ele>151.6</ele><time>2026-04-04T15:57:35.723Z</time></trkpt><trkpt lat="42.296995" lon="12.4707533"><ele>152.0</ele><time>2026-04-04T15:57:36.722Z</time></trkpt><trkpt lat="42.2968967" lon="12.4708233"><ele>150.4</ele><time>2026-04-04T15:57:37.722Z</time></trkpt><trkpt lat="42.2968033" lon="12.470885"><ele>148.79999999999998</ele><time>2026-04-04T15:57:38.724Z</time></trkpt><trkpt lat="42.2967233" lon="12.470935"><ele>147.2</ele><time>2026-04-04T15:57:39.724Z</time></trkpt><trkpt lat="42.29665" lon="12.4709783"><ele>145.6</ele><time>2026-04-04T15:57:40.721Z</time></trkpt><trkpt lat="42.2965733" lon="12.47103"><ele>144.0</ele><time>2026-04-04T15:57:41.723Z</time></trkpt><trkpt lat="42.29648" lon="12.4710967"><ele>143.4</ele><time>2026-04-04T15:57:42.725Z</time></trkpt><trkpt lat="42.2963817" lon="12.47116"><ele>142.8</ele><time>2026-04-04T15:57:43.726Z</time></trkpt><trkpt lat="42.2962883" lon="12.47122"><ele>142.2</ele><time>2026-04-04T15:57:44.726Z</time></trkpt><trkpt lat="42.2961983" lon="12.4712783"><ele>141.6</ele><time>2026-04-04T15:57:45.723Z</time></trkpt><trkpt lat="42.2961083" lon="12.4713267"><ele>141.0</ele><time>2026-04-04T15:57:46.724Z</time></trkpt><trkpt lat="42.296015" lon="12.4713533"><ele>143.25</ele><time>2026-04-04T15:57:47.723Z</time></trkpt><trkpt lat="42.2959117" lon="12.4713583"><ele>145.5</ele><time>2026-04-04T15:57:48.725Z</time></trkpt><trkpt lat="42.2957967" lon="12.4713517"><ele>147.75</ele><time>2026-04-04T15:57:49.722Z</time></trkpt><trkpt lat="42.2956733" lon="12.4713483"><ele>150.0</ele><time>2026-04-04T15:57:50.724Z</time></trkpt><trkpt lat="42.2955467" lon="12.471345"><ele>150.33333333333334</ele><time>2026-04-04T15:57:51.721Z</time></trkpt><trkpt lat="42.2954367" lon="12.4713417"><ele>150.66666666666666</ele><time>2026-04-04T15:57:52.727Z</time></trkpt><trkpt lat="42.29535" lon="12.4713333"><ele>151.0</ele><time>2026-04-04T15:57:53.725Z</time></trkpt><trkpt lat="42.2952733" lon="12.4713183"><ele>151.33333333333331</ele><time>2026-04-04T15:57:54.729Z</time></trkpt><trkpt lat="42.29521" lon="12.4712817"><ele>151.66666666666666</ele><time>2026-04-04T15:57:55.724Z</time></trkpt><trkpt lat="42.2951533" lon="12.4712233"><ele>152.0</ele><time>2026-04-04T15:57:56.731Z</time></trkpt><trkpt lat="42.29511" lon="12.4711567"><ele>151.14285714285714</ele><time>2026-04-04T15:57:57.725Z</time></trkpt><trkpt lat="42.295075" lon="12.4710783"><ele>150.2857142857143</ele><time>2026-04-04T15:57:58.723Z</time></trkpt><trkpt lat="42.29504" lon="12.4709917"><ele>149.42857142857144</ele><time>2026-04-04T15:57:59.723Z</time></trkpt><trkpt lat="42.2950083" lon="12.4708967"><ele>148.57142857142856</ele><time>2026-04-04T15:58:00.723Z</time></trkpt><trkpt lat="42.2949767" lon="12.4708033"><ele>147.71428571428572</ele><time>2026-04-04T15:58:01.721Z</time></trkpt><trkpt lat="42.2949433" lon="12.4707067"><ele>146.85714285714286</ele><time>2026-04-04T15:58:02.724Z</time></trkpt><trkpt lat="42.2949117" lon="12.4706133"><ele>146.0</ele><time>2026-04-04T15:58:03.724Z</time></trkpt><trkpt lat="42.2948817" lon="12.4705267"><ele>144.8</ele><time>2026-04-04T15:58:04.723Z</time></trkpt><trkpt lat="42.2948133" lon="12.47039"><ele>143.6</ele><time>2026-04-04T15:58:06.728Z</time></trkpt><trkpt lat="42.29474" lon="12.4702617"><ele>142.4</ele><time>2026-04-04T15:58:08.728Z</time></trkpt><trkpt lat="42.2946933" lon="12.4701933"><ele>141.2</ele><time>2026-04-04T15:58:09.728Z</time></trkpt><trkpt lat="42.2946483" lon="12.470125"><ele>140.0</ele><time>2026-04-04T15:58:10.734Z</time></trkpt><trkpt lat="42.2945983" lon="12.470055"><ele>140.0</ele><time>2026-04-04T15:58:11.723Z</time></trkpt><trkpt lat="42.294545" lon="12.46998"><ele>140.0</ele><time>2026-04-04T15:58:12.721Z</time></trkpt><trkpt lat="42.29444" lon="12.4698133"><ele>140.0</ele><time>2026-04-04T15:58:14.726Z</time></trkpt><trkpt lat="42.2943833" lon="12.469725"><ele>140.0</ele><time>2026-04-04T15:58:15.728Z</time></trkpt><trkpt lat="42.2943267" lon="12.469635"><ele>140.0</ele><time>2026-04-04T15:58:16.723Z</time></trkpt><trkpt lat="42.2942717" lon="12.4695383"><ele>138.83333333333331</ele><time>2026-04-04T15:58:17.723Z</time></trkpt><trkpt lat="42.2942183" lon="12.4694433"><ele>137.66666666666666</ele><time>2026-04-04T15:58:18.726Z</time></trkpt><trkpt lat="42.294165" lon="12.4693467"><ele>136.5</ele><time>2026-04-04T15:58:19.722Z</time></trkpt><trkpt lat="42.2941117" lon="12.4692567"><ele>135.33333333333334</ele><time>2026-04-04T15:58:20.723Z</time></trkpt><trkpt lat="42.2940583" lon="12.4691733"><ele>134.16666666666669</ele><time>2026-04-04T15:58:21.729Z</time></trkpt><trkpt lat="42.2940067" lon="12.469095"><ele>133.0</ele><time>2026-04-04T15:58:22.723Z</time></trkpt><trkpt lat="42.29396" lon="12.469005"><ele>132.57142857142858</ele><time>2026-04-04T15:58:23.722Z</time></trkpt><trkpt lat="42.2939183" lon="12.46892"><ele>132.14285714285714</ele><time>2026-04-04T15:58:24.723Z</time></trkpt><trkpt lat="42.2938767" lon="12.468835"><ele>131.71428571428572</ele><time>2026-04-04T15:58:25.723Z</time></trkpt><trkpt lat="42.2938283" lon="12.46875"><ele>131.28571428571428</ele><time>2026-04-04T15:58:26.723Z</time></trkpt><trkpt lat="42.2937883" lon="12.46867"><ele>130.85714285714286</ele><time>2026-04-04T15:58:27.722Z</time></trkpt><trkpt lat="42.29375" lon="12.4685833"><ele>130.42857142857144</ele><time>2026-04-04T15:58:28.726Z</time></trkpt><trkpt lat="42.2937217" lon="12.4684983"><ele>130.0</ele><time>2026-04-04T15:58:29.723Z</time></trkpt><trkpt lat="42.2936883" lon="12.468415"><ele>129.66666666666669</ele><time>2026-04-04T15:58:30.722Z</time></trkpt><trkpt lat="42.29364" lon="12.468335"><ele>129.33333333333334</ele><time>2026-04-04T15:58:31.722Z</time></trkpt><trkpt lat="42.2935833" lon="12.4682533"><ele>129.0</ele><time>2026-04-04T15:58:32.722Z</time></trkpt><trkpt lat="42.2935267" lon="12.4681683"><ele>128.66666666666666</ele><time>2026-04-04T15:58:33.723Z</time></trkpt><trkpt lat="42.2934783" lon="12.4680783"><ele>128.33333333333331</ele><time>2026-04-04T15:58:34.722Z</time></trkpt><trkpt lat="42.2934283" lon="12.4679767"><ele>128.0</ele><time>2026-04-04T15:58:35.723Z</time></trkpt><trkpt lat="42.29338" lon="12.46788"><ele>127.99999999999999</ele><time>2026-04-04T15:58:36.722Z</time></trkpt><trkpt lat="42.2933317" lon="12.4677833"><ele>128.0</ele><time>2026-04-04T15:58:37.721Z</time></trkpt><trkpt lat="42.293285" lon="12.4676817"><ele>128.0</ele><time>2026-04-04T15:58:38.723Z</time></trkpt><trkpt lat="42.293235" lon="12.4675783"><ele>128.0</ele><time>2026-04-04T15:58:39.722Z</time></trkpt><trkpt lat="42.2931867" lon="12.4674733"><ele>127.99999999999999</ele><time>2026-04-04T15:58:40.723Z</time></trkpt><trkpt lat="42.2931383" lon="12.4673683"><ele>128.0</ele><time>2026-04-04T15:58:41.726Z</time></trkpt><trkpt lat="42.2930867" lon="12.4672583"><ele>128.33333333333331</ele><time>2026-04-04T15:58:42.722Z</time></trkpt><trkpt lat="42.2930383" lon="12.4671533"><ele>128.66666666666666</ele><time>2026-04-04T15:58:43.722Z</time></trkpt><trkpt lat="42.2929933" lon="12.4670533"><ele>129.0</ele><time>2026-04-04T15:58:44.724Z</time></trkpt><trkpt lat="42.29295" lon="12.466955"><ele>129.33333333333334</ele><time>2026-04-04T15:58:45.722Z</time></trkpt><trkpt lat="42.2929067" lon="12.4668583"><ele>129.66666666666669</ele><time>2026-04-04T15:58:46.722Z</time></trkpt><trkpt lat="42.29286" lon="12.4667633"><ele>130.0</ele><time>2026-04-04T15:58:47.722Z</time></trkpt><trkpt lat="42.292815" lon="12.4666833"><ele>131.2857142857143</ele><time>2026-04-04T15:58:48.729Z</time></trkpt><trkpt lat="42.2927733" lon="12.466605"><ele>132.57142857142858</ele><time>2026-04-04T15:58:49.724Z</time></trkpt><trkpt lat="42.2927333" lon="12.4665217"><ele>133.85714285714286</ele><time>2026-04-04T15:58:50.723Z</time></trkpt><trkpt lat="42.29269" lon="12.466435"><ele>135.14285714285717</ele><time>2026-04-04T15:58:51.723Z</time></trkpt><trkpt lat="42.2926433" lon="12.4663567"><ele>136.42857142857144</ele><time>2026-04-04T15:58:52.723Z</time></trkpt><trkpt lat="42.2925983" lon="12.466275"><ele>137.71428571428572</ele><time>2026-04-04T15:58:53.724Z</time></trkpt><trkpt lat="42.2925533" lon="12.4661917"><ele>139.0</ele><time>2026-04-04T15:58:54.723Z</time></trkpt><trkpt lat="42.2925117" lon="12.4661167"><ele>140.0</ele><time>2026-04-04T15:58:55.724Z</time></trkpt><trkpt lat="42.2924733" lon="12.4660417"><ele>141.0</ele><time>2026-04-04T15:58:56.722Z</time></trkpt><trkpt lat="42.292435" lon="12.4659667"><ele>142.0</ele><time>2026-04-04T15:58:57.723Z</time></trkpt><trkpt lat="42.2923917" lon="12.4658933"><ele>143.0</ele><time>2026-04-04T15:58:58.722Z</time></trkpt><trkpt lat="42.29235" lon="12.46582"><ele>144.0</ele><time>2026-04-04T15:58:59.722Z</time></trkpt><trkpt lat="42.292305" lon="12.465745"><ele>145.0</ele><time>2026-04-04T15:59:00.721Z</time></trkpt><trkpt lat="42.2922533" lon="12.4656683"><ele>146.0</ele><time>2026-04-04T15:59:01.726Z</time></trkpt><trkpt lat="42.2922033" lon="12.4655833"><ele>146.0</ele><time>2026-04-04T15:59:02.726Z</time></trkpt><trkpt lat="42.2921467" lon="12.4654833"><ele>146.0</ele><time>2026-04-04T15:59:03.722Z</time></trkpt><trkpt lat="42.2920833" lon="12.4653817"><ele>146.0</ele><time>2026-04-04T15:59:04.729Z</time></trkpt><trkpt lat="42.29201" lon="12.46528"><ele>146.0</ele><time>2026-04-04T15:59:05.722Z</time></trkpt><trkpt lat="42.2919333" lon="12.46518"><ele>146.0</ele><time>2026-04-04T15:59:06.725Z</time></trkpt><trkpt lat="42.2918617" lon="12.4650833"><ele>147.16666666666666</ele><time>2026-04-04T15:59:07.724Z</time></trkpt><trkpt lat="42.2917933" lon="12.4649983"><ele>148.33333333333331</ele><time>2026-04-04T15:59:08.723Z</time></trkpt><trkpt lat="42.2917267" lon="12.4649283"><ele>149.5</ele><time>2026-04-04T15:59:09.726Z</time></trkpt><trkpt lat="42.2916617" lon="12.4648567"><ele>150.66666666666666</ele><time>2026-04-04T15:59:10.725Z</time></trkpt><trkpt lat="42.2915967" lon="12.4647717"><ele>151.83333333333334</ele><time>2026-04-04T15:59:11.726Z</time></trkpt><trkpt lat="42.2915283" lon="12.46468"><ele>153.0</ele><time>2026-04-04T15:59:12.725Z</time></trkpt><trkpt lat="42.291455" lon="12.4645733"><ele>154.0</ele><time>2026-04-04T15:59:13.726Z</time></trkpt><trkpt lat="42.2913883" lon="12.4644733"><ele>155.0</ele><time>2026-04-04T15:59:14.727Z</time></trkpt><trkpt lat="42.291335" lon="12.4643883"><ele>156.0</ele><time>2026-04-04T15:59:15.722Z</time></trkpt><trkpt lat="42.29129" lon="12.4643233"><ele>157.0</ele><time>2026-04-04T15:59:16.722Z</time></trkpt><trkpt lat="42.2912217" lon="12.46424"><ele>158.0</ele><time>2026-04-04T15:59:18.726Z</time></trkpt><trkpt lat="42.2911617" lon="12.4642133"><ele>159.0</ele><time>2026-04-04T15:59:20.727Z</time></trkpt><trkpt lat="42.291075" lon="12.46424"><ele>159.0</ele><time>2026-04-04T15:59:22.722Z</time></trkpt><trkpt lat="42.2909667" lon="12.4642917"><ele>159.0</ele><time>2026-04-04T15:59:24.723Z</time></trkpt><trkpt lat="42.2908567" lon="12.46433"><ele>159.0</ele><time>2026-04-04T15:59:26.723Z</time></trkpt><trkpt lat="42.2907933" lon="12.4643533"><ele>159.0</ele><time>2026-04-04T15:59:28.723Z</time></trkpt><trkpt lat="42.2908717" lon="12.4643233"><ele>159.0</ele><time>2026-04-04T16:01:38.726Z</time></trkpt><trkpt lat="42.29098" lon="12.4642733"><ele>159.0</ele><time>2026-04-04T16:01:40.724Z</time></trkpt><trkpt lat="42.29108" lon="12.4642167"><ele>159.0</ele><time>2026-04-04T16:01:42.724Z</time></trkpt><trkpt lat="42.291155" lon="12.4641233"><ele>159.0</ele><time>2026-04-04T16:01:44.724Z</time></trkpt><trkpt lat="42.2911833" lon="12.4640267"><ele>159.0</ele><time>2026-04-04T16:01:46.728Z</time></trkpt><trkpt lat="42.2911517" lon="12.46391"><ele>159.0</ele><time>2026-04-04T16:01:49.727Z</time></trkpt><trkpt lat="42.2911183" lon="12.4638217"><ele>158.5</ele><time>2026-04-04T16:01:51.727Z</time></trkpt><trkpt lat="42.2910883" lon="12.4637083"><ele>158.0</ele><time>2026-04-04T16:01:53.726Z</time></trkpt><trkpt lat="42.291065" lon="12.4635767"><ele>157.5</ele><time>2026-04-04T16:01:55.724Z</time></trkpt><trkpt lat="42.2910383" lon="12.4634317"><ele>157.0</ele><time>2026-04-04T16:01:57.724Z</time></trkpt><trkpt lat="42.2910183" lon="12.46335"><ele>156.5</ele><time>2026-04-04T16:01:58.724Z</time></trkpt><trkpt lat="42.2909933" lon="12.46326"><ele>156.0</ele><time>2026-04-04T16:01:59.723Z</time></trkpt><trkpt lat="42.2909683" lon="12.4631633"><ele>156.0</ele><time>2026-04-04T16:02:00.727Z</time></trkpt><trkpt lat="42.2909367" lon="12.46306"><ele>156.0</ele><time>2026-04-04T16:02:01.728Z</time></trkpt><trkpt lat="42.2908983" lon="12.462955"><ele>156.0</ele><time>2026-04-04T16:02:02.727Z</time></trkpt><trkpt lat="42.29086" lon="12.4628467"><ele>156.0</ele><time>2026-04-04T16:02:03.727Z</time></trkpt><trkpt lat="42.29082" lon="12.4627283"><ele>156.0</ele><time>2026-04-04T16:02:04.73Z</time></trkpt><trkpt lat="42.2907767" lon="12.4626"><ele>155.25</ele><time>2026-04-04T16:02:05.73Z</time></trkpt><trkpt lat="42.2907267" lon="12.462455"><ele>154.5</ele><time>2026-04-04T16:02:06.725Z</time></trkpt><trkpt lat="42.2906733" lon="12.462285"><ele>153.75</ele><time>2026-04-04T16:02:07.723Z</time></trkpt><trkpt lat="42.2906267" lon="12.4621167"><ele>153.0</ele><time>2026-04-04T16:02:08.724Z</time></trkpt><trkpt lat="42.2905817" lon="12.4619533"><ele>152.75</ele><time>2026-04-04T16:02:09.721Z</time></trkpt><trkpt lat="42.2905383" lon="12.4617967"><ele>152.5</ele><time>2026-04-04T16:02:10.725Z</time></trkpt><trkpt lat="42.2904983" lon="12.4616367"><ele>152.25</ele><time>2026-04-04T16:02:11.722Z</time></trkpt><trkpt lat="42.2904617" lon="12.46145"><ele>152.0</ele><time>2026-04-04T16:02:12.726Z</time></trkpt><trkpt lat="42.2904317" lon="12.4612617"><ele>152.0</ele><time>2026-04-04T16:02:13.726Z</time></trkpt><trkpt lat="42.2904017" lon="12.4610867"><ele>152.0</ele><time>2026-04-04T16:02:14.724Z</time></trkpt><trkpt lat="42.2903783" lon="12.4609433"><ele>152.0</ele><time>2026-04-04T16:02:15.727Z</time></trkpt><trkpt lat="42.29036" lon="12.4608217"><ele>152.0</ele><time>2026-04-04T16:02:16.724Z</time></trkpt><trkpt lat="42.2903483" lon="12.4607067"><ele>152.0</ele><time>2026-04-04T16:02:17.722Z</time></trkpt><trkpt lat="42.290345" lon="12.4605833"><ele>152.5</ele><time>2026-04-04T16:02:18.727Z</time></trkpt><trkpt lat="42.2903533" lon="12.460445"><ele>153.0</ele><time>2026-04-04T16:02:19.724Z</time></trkpt><trkpt lat="42.2903767" lon="12.46029"><ele>153.5</ele><time>2026-04-04T16:02:20.725Z</time></trkpt><trkpt lat="42.2904133" lon="12.4601283"><ele>154.0</ele><time>2026-04-04T16:02:21.723Z</time></trkpt><trkpt lat="42.2904567" lon="12.4599533"><ele>154.0</ele><time>2026-04-04T16:02:22.723Z</time></trkpt><trkpt lat="42.2905" lon="12.4597783"><ele>154.0</ele><time>2026-04-04T16:02:23.723Z</time></trkpt><trkpt lat="42.2905283" lon="12.4596183"><ele>154.0</ele><time>2026-04-04T16:02:24.725Z</time></trkpt><trkpt lat="42.2905467" lon="12.4594483"><ele>154.0</ele><time>2026-04-04T16:02:25.724Z</time></trkpt><trkpt lat="42.29056" lon="12.4592667"><ele>154.0</ele><time>2026-04-04T16:02:26.722Z</time></trkpt><trkpt lat="42.290565" lon="12.4590917"><ele>154.0</ele><time>2026-04-04T16:02:27.724Z</time></trkpt><trkpt lat="42.2905667" lon="12.458935"><ele>154.0</ele><time>2026-04-04T16:02:28.722Z</time></trkpt><trkpt lat="42.29057" lon="12.45879"><ele>154.0</ele><time>2026-04-04T16:02:29.723Z</time></trkpt><trkpt lat="42.2905733" lon="12.4586467"><ele>154.0</ele><time>2026-04-04T16:02:30.728Z</time></trkpt><trkpt lat="42.2905833" lon="12.4585067"><ele>154.0</ele><time>2026-04-04T16:02:31.723Z</time></trkpt><trkpt lat="42.2906083" lon="12.4581983"><ele>154.0</ele><time>2026-04-04T16:02:33.728Z</time></trkpt><trkpt lat="42.29062" lon="12.4580417"><ele>154.2</ele><time>2026-04-04T16:02:34.722Z</time></trkpt><trkpt lat="42.290625" lon="12.457895"><ele>154.4</ele><time>2026-04-04T16:02:35.722Z</time></trkpt><trkpt lat="42.290635" lon="12.4577533"><ele>154.6</ele><time>2026-04-04T16:02:36.729Z</time></trkpt><trkpt lat="42.2906483" lon="12.457625"><ele>154.8</ele><time>2026-04-04T16:02:37.724Z</time></trkpt><trkpt lat="42.29066" lon="12.4575067"><ele>155.0</ele><time>2026-04-04T16:02:38.725Z</time></trkpt><trkpt lat="42.2906583" lon="12.4573967"><ele>155.0</ele><time>2026-04-04T16:02:39.722Z</time></trkpt><trkpt lat="42.290645" lon="12.45729"><ele>155.0</ele><time>2026-04-04T16:02:40.726Z</time></trkpt><trkpt lat="42.2906167" lon="12.457195"><ele>155.0</ele><time>2026-04-04T16:02:41.724Z</time></trkpt><trkpt lat="42.2905817" lon="12.4571083"><ele>155.0</ele><time>2026-04-04T16:02:42.723Z</time></trkpt><trkpt lat="42.2905533" lon="12.4570317"><ele>155.0</ele><time>2026-04-04T16:02:43.723Z</time></trkpt><trkpt lat="42.2904983" lon="12.45691"><ele>155.0</ele><time>2026-04-04T16:02:45.723Z</time></trkpt><trkpt lat="42.290455" lon="12.45683"><ele>154.66666666666666</ele><time>2026-04-04T16:02:48.727Z</time></trkpt><trkpt lat="42.2904117" lon="12.4567517"><ele>154.33333333333331</ele><time>2026-04-04T16:02:52.722Z</time></trkpt><trkpt lat="42.2903317" lon="12.4567367"><ele>154.0</ele><time>2026-04-04T16:03:42.723Z</time></trkpt><trkpt lat="42.2902217" lon="12.4567167"><ele>153.66666666666666</ele><time>2026-04-04T16:03:44.724Z</time></trkpt><trkpt lat="42.2901583" lon="12.456705"><ele>153.33333333333334</ele><time>2026-04-04T16:03:45.725Z</time></trkpt><trkpt lat="42.29009" lon="12.4567017"><ele>153.0</ele><time>2026-04-04T16:03:46.723Z</time></trkpt><trkpt lat="42.29002" lon="12.4567017"><ele>153.0</ele><time>2026-04-04T16:03:47.724Z</time></trkpt><trkpt lat="42.2899533" lon="12.4567033"><ele>153.0</ele><time>2026-04-04T16:03:48.725Z</time></trkpt><trkpt lat="42.2898883" lon="12.456705"><ele>153.0</ele><time>2026-04-04T16:03:49.726Z</time></trkpt><trkpt lat="42.2898217" lon="12.4567"><ele>153.0</ele><time>2026-04-04T16:03:50.728Z</time></trkpt><trkpt lat="42.289745" lon="12.4566883"><ele>153.0</ele><time>2026-04-04T16:03:51.724Z</time></trkpt><trkpt lat="42.28966" lon="12.456675"><ele>153.0</ele><time>2026-04-04T16:03:52.727Z</time></trkpt><trkpt lat="42.2895683" lon="12.4566617"><ele>152.20000000000002</ele><time>2026-04-04T16:03:53.725Z</time></trkpt><trkpt lat="42.2894733" lon="12.45665"><ele>151.4</ele><time>2026-04-04T16:03:54.728Z</time></trkpt><trkpt lat="42.2893667" lon="12.4566367"><ele>150.60000000000002</ele><time>2026-04-04T16:03:55.727Z</time></trkpt><trkpt lat="42.28926" lon="12.4566283"><ele>149.8</ele><time>2026-04-04T16:03:56.728Z</time></trkpt><trkpt lat="42.2891617" lon="12.45662"><ele>149.0</ele><time>2026-04-04T16:03:57.728Z</time></trkpt><trkpt lat="42.2890783" lon="12.45662"><ele>149.0</ele><time>2026-04-04T16:03:58.723Z</time></trkpt><trkpt lat="42.289005" lon="12.4566183"><ele>149.0</ele><time>2026-04-04T16:03:59.729Z</time></trkpt><trkpt lat="42.2889383" lon="12.4566233"><ele>149.0</ele><time>2026-04-04T16:04:00.726Z</time></trkpt><trkpt lat="42.2888717" lon="12.4566283"><ele>149.0</ele><time>2026-04-04T16:04:01.725Z</time></trkpt><trkpt lat="42.2887467" lon="12.4566433"><ele>149.0</ele><time>2026-04-04T16:04:03.724Z</time></trkpt><trkpt lat="42.2886767" lon="12.45665"><ele>149.0</ele><time>2026-04-04T16:04:04.724Z</time></trkpt><trkpt lat="42.288605" lon="12.4566633"><ele>148.16666666666666</ele><time>2026-04-04T16:04:05.723Z</time></trkpt><trkpt lat="42.2885317" lon="12.4566817"><ele>147.33333333333331</ele><time>2026-04-04T16:04:06.726Z</time></trkpt><trkpt lat="42.2884583" lon="12.4566983"><ele>146.5</ele><time>2026-04-04T16:04:07.723Z</time></trkpt><trkpt lat="42.2883933" lon="12.45672"><ele>145.66666666666666</ele><time>2026-04-04T16:04:08.724Z</time></trkpt><trkpt lat="42.2882767" lon="12.4567483"><ele>144.83333333333334</ele><time>2026-04-04T16:04:10.721Z</time></trkpt><trkpt lat="42.2881667" lon="12.4567733"><ele>144.0</ele><time>2026-04-04T16:04:12.725Z</time></trkpt><trkpt lat="42.2881033" lon="12.4567933"><ele>143.16666666666666</ele><time>2026-04-04T16:04:13.725Z</time></trkpt><trkpt lat="42.2880283" lon="12.456825"><ele>142.33333333333334</ele><time>2026-04-04T16:04:14.723Z</time></trkpt><trkpt lat="42.2879533" lon="12.456875"><ele>141.5</ele><time>2026-04-04T16:04:15.723Z</time></trkpt><trkpt lat="42.2878867" lon="12.4569383"><ele>140.66666666666669</ele><time>2026-04-04T16:04:16.726Z</time></trkpt><trkpt lat="42.287825" lon="12.457"><ele>139.83333333333334</ele><time>2026-04-04T16:04:17.726Z</time></trkpt><trkpt lat="42.287765" lon="12.4570583"><ele>139.0</ele><time>2026-04-04T16:04:18.726Z</time></trkpt><trkpt lat="42.2877067" lon="12.4571117"><ele>138.5</ele><time>2026-04-04T16:04:19.722Z</time></trkpt><trkpt lat="42.2875917" lon="12.4571817"><ele>138.0</ele><time>2026-04-04T16:04:21.723Z</time></trkpt><trkpt lat="42.2875267" lon="12.4572083"><ele>137.5</ele><time>2026-04-04T16:04:22.723Z</time></trkpt><trkpt lat="42.2874567" lon="12.45722"><ele>137.0</ele><time>2026-04-04T16:04:23.724Z</time></trkpt><trkpt lat="42.287385" lon="12.457215"><ele>136.5</ele><time>2026-04-04T16:04:24.725Z</time></trkpt><trkpt lat="42.2872983" lon="12.4572017"><ele>136.0</ele><time>2026-04-04T16:04:25.726Z</time></trkpt><trkpt lat="42.2872067" lon="12.457185"><ele>135.0</ele><time>2026-04-04T16:04:26.727Z</time></trkpt><trkpt lat="42.2871183" lon="12.45717"><ele>134.0</ele><time>2026-04-04T16:04:27.727Z</time></trkpt><trkpt lat="42.2870317" lon="12.4571617"><ele>133.0</ele><time>2026-04-04T16:04:28.725Z</time></trkpt><trkpt lat="42.286935" lon="12.45716"><ele>132.0</ele><time>2026-04-04T16:04:29.724Z</time></trkpt><trkpt lat="42.2868333" lon="12.45715"><ele>131.0</ele><time>2026-04-04T16:04:30.724Z</time></trkpt><trkpt lat="42.2867367" lon="12.45713"><ele>130.83333333333331</ele><time>2026-04-04T16:04:31.725Z</time></trkpt><trkpt lat="42.2866483" lon="12.4571083"><ele>130.66666666666666</ele><time>2026-04-04T16:04:32.725Z</time></trkpt><trkpt lat="42.2865667" lon="12.45708"><ele>130.5</ele><time>2026-04-04T16:04:33.722Z</time></trkpt><trkpt lat="42.2864917" lon="12.4570483"><ele>130.33333333333334</ele><time>2026-04-04T16:04:34.728Z</time></trkpt><trkpt lat="42.2864183" lon="12.4570167"><ele>130.16666666666669</ele><time>2026-04-04T16:04:35.722Z</time></trkpt><trkpt lat="42.2863483" lon="12.4569783"><ele>130.0</ele><time>2026-04-04T16:04:36.725Z</time></trkpt><trkpt lat="42.28627" lon="12.4569317"><ele>129.5</ele><time>2026-04-04T16:04:37.724Z</time></trkpt><trkpt lat="42.2861833" lon="12.4568817"><ele>129.0</ele><time>2026-04-04T16:04:38.726Z</time></trkpt><trkpt lat="42.2861017" lon="12.4568417"><ele>128.5</ele><time>2026-04-04T16:04:39.726Z</time></trkpt><trkpt lat="42.2860267" lon="12.4568133"><ele>128.0</ele><time>2026-04-04T16:04:40.725Z</time></trkpt><trkpt lat="42.2859567" lon="12.45678"><ele>127.50000000000001</ele><time>2026-04-04T16:04:41.729Z</time></trkpt><trkpt lat="42.2858917" lon="12.4567483"><ele>127.0</ele><time>2026-04-04T16:04:42.726Z</time></trkpt><trkpt lat="42.28583" lon="12.456715"><ele>127.0</ele><time>2026-04-04T16:04:43.725Z</time></trkpt><trkpt lat="42.2857217" lon="12.4566717"><ele>126.99999999999999</ele><time>2026-04-04T16:04:45.724Z</time></trkpt><trkpt lat="42.2856467" lon="12.4566517"><ele>126.99999999999999</ele><time>2026-04-04T16:04:47.725Z</time></trkpt><trkpt lat="42.2855833" lon="12.4566583"><ele>127.0</ele><time>2026-04-04T16:04:49.724Z</time></trkpt><trkpt lat="42.28551" lon="12.4566767"><ele>127.0</ele><time>2026-04-04T16:04:51.727Z</time></trkpt><trkpt lat="42.28535" lon="12.456715"><ele>126.19999999999999</ele><time>2026-04-04T16:04:54.724Z</time></trkpt><trkpt lat="42.2852383" lon="12.4567333"><ele>125.39999999999999</ele><time>2026-04-04T16:04:56.724Z</time></trkpt><trkpt lat="42.2851333" lon="12.45676"><ele>124.60000000000001</ele><time>2026-04-04T16:04:58.723Z</time></trkpt><trkpt lat="42.285045" lon="12.4567783"><ele>123.80000000000001</ele><time>2026-04-04T16:05:00.723Z</time></trkpt><trkpt lat="42.2849483" lon="12.4568"><ele>123.0</ele><time>2026-04-04T16:05:02.724Z</time></trkpt><trkpt lat="42.2848267" lon="12.4568283"><ele>122.60000000000001</ele><time>2026-04-04T16:05:04.722Z</time></trkpt><trkpt lat="42.2847183" lon="12.4568517"><ele>122.20000000000002</ele><time>2026-04-04T16:05:06.724Z</time></trkpt><trkpt lat="42.2846283" lon="12.4568717"><ele>121.8</ele><time>2026-04-04T16:05:08.728Z</time></trkpt><trkpt lat="42.28453" lon="12.4569033"><ele>121.4</ele><time>2026-04-04T16:05:10.725Z</time></trkpt><trkpt lat="42.2844367" lon="12.4569483"><ele>121.0</ele><time>2026-04-04T16:05:12.722Z</time></trkpt><trkpt lat="42.2843433" lon="12.457005"><ele>121.0</ele><time>2026-04-04T16:05:14.727Z</time></trkpt><trkpt lat="42.28426" lon="12.4570567"><ele>121.0</ele><time>2026-04-04T16:05:16.724Z</time></trkpt><trkpt lat="42.2841717" lon="12.4571183"><ele>121.0</ele><time>2026-04-04T16:05:18.728Z</time></trkpt><trkpt lat="42.2840633" lon="12.4571967"><ele>121.0</ele><time>2026-04-04T16:05:20.728Z</time></trkpt><trkpt lat="42.2839483" lon="12.4572217"><ele>121.0</ele><time>2026-04-04T16:05:22.723Z</time></trkpt><trkpt lat="42.28386" lon="12.4571633"><ele>121.8</ele><time>2026-04-04T16:05:24.727Z</time></trkpt><trkpt lat="42.28378" lon="12.4570733"><ele>122.6</ele><time>2026-04-04T16:05:26.725Z</time></trkpt><trkpt lat="42.28367" lon="12.4570167"><ele>123.4</ele><time>2026-04-04T16:05:28.725Z</time></trkpt><trkpt lat="42.2835917" lon="12.4570133"><ele>124.2</ele><time>2026-04-04T16:05:29.721Z</time></trkpt><trkpt lat="42.283495" lon="12.4570167"><ele>125.0</ele><time>2026-04-04T16:05:30.723Z</time></trkpt><trkpt lat="42.2833833" lon="12.4570217"><ele>124.99999999999999</ele><time>2026-04-04T16:05:31.725Z</time></trkpt><trkpt lat="42.28328" lon="12.45703"><ele>125.0</ele><time>2026-04-04T16:05:32.726Z</time></trkpt><trkpt lat="42.2831933" lon="12.4570267"><ele>125.0</ele><time>2026-04-04T16:05:33.725Z</time></trkpt><trkpt lat="42.28311" lon="12.4570067"><ele>125.0</ele><time>2026-04-04T16:05:34.721Z</time></trkpt><trkpt lat="42.2830367" lon="12.4569633"><ele>124.99999999999999</ele><time>2026-04-04T16:05:35.727Z</time></trkpt><trkpt lat="42.2829933" lon="12.4568783"><ele>125.0</ele><time>2026-04-04T16:05:36.727Z</time></trkpt><trkpt lat="42.2829667" lon="12.4567833"><ele>126.8</ele><time>2026-04-04T16:05:37.724Z</time></trkpt><trkpt lat="42.282955" lon="12.456685"><ele>128.6</ele><time>2026-04-04T16:05:38.726Z</time></trkpt><trkpt lat="42.282955" lon="12.4565717"><ele>130.4</ele><time>2026-04-04T16:05:39.725Z</time></trkpt><trkpt lat="42.2829517" lon="12.4564433"><ele>132.2</ele><time>2026-04-04T16:05:40.723Z</time></trkpt><trkpt lat="42.2829567" lon="12.4563"><ele>134.0</ele><time>2026-04-04T16:05:41.723Z</time></trkpt><trkpt lat="42.2829683" lon="12.4561617"><ele>134.0</ele><time>2026-04-04T16:05:42.723Z</time></trkpt><trkpt lat="42.2829867" lon="12.45603"><ele>134.0</ele><time>2026-04-04T16:05:43.726Z</time></trkpt><trkpt lat="42.2830117" lon="12.455895"><ele>134.0</ele><time>2026-04-04T16:05:44.725Z</time></trkpt><trkpt lat="42.2830367" lon="12.455765"><ele>134.0</ele><time>2026-04-04T16:05:45.723Z</time></trkpt><trkpt lat="42.28307" lon="12.455635"><ele>134.0</ele><time>2026-04-04T16:05:46.723Z</time></trkpt><trkpt lat="42.283095" lon="12.4555067"><ele>131.25</ele><time>2026-04-04T16:05:47.723Z</time></trkpt><trkpt lat="42.28311" lon="12.4553633"><ele>128.5</ele><time>2026-04-04T16:05:48.722Z</time></trkpt><trkpt lat="42.2831133" lon="12.455205"><ele>125.75</ele><time>2026-04-04T16:05:49.725Z</time></trkpt><trkpt lat="42.2831167" lon="12.4550233"><ele>123.0</ele><time>2026-04-04T16:05:50.726Z</time></trkpt><trkpt lat="42.283115" lon="12.4548317"><ele>123.0</ele><time>2026-04-04T16:05:51.725Z</time></trkpt><trkpt lat="42.2831083" lon="12.4546483"><ele>123.0</ele><time>2026-04-04T16:05:52.727Z</time></trkpt><trkpt lat="42.2831033" lon="12.4544817"><ele>123.0</ele><time>2026-04-04T16:05:53.722Z</time></trkpt><trkpt lat="42.2831033" lon="12.454325"><ele>123.0</ele><time>2026-04-04T16:05:54.722Z</time></trkpt><trkpt lat="42.2831083" lon="12.4541667"><ele>123.2</ele><time>2026-04-04T16:05:55.726Z</time></trkpt><trkpt lat="42.283105" lon="12.4540067"><ele>123.4</ele><time>2026-04-04T16:05:56.726Z</time></trkpt><trkpt lat="42.283095" lon="12.45385"><ele>123.60000000000001</ele><time>2026-04-04T16:05:57.726Z</time></trkpt><trkpt lat="42.2830883" lon="12.4537133"><ele>123.80000000000001</ele><time>2026-04-04T16:05:58.722Z</time></trkpt><trkpt lat="42.283085" lon="12.4535867"><ele>124.0</ele><time>2026-04-04T16:05:59.726Z</time></trkpt><trkpt lat="42.283075" lon="12.4534667"><ele>125.6</ele><time>2026-04-04T16:06:00.724Z</time></trkpt><trkpt lat="42.28305" lon="12.4533417"><ele>127.2</ele><time>2026-04-04T16:06:01.725Z</time></trkpt><trkpt lat="42.283015" lon="12.4532233"><ele>128.79999999999998</ele><time>2026-04-04T16:06:02.725Z</time></trkpt><trkpt lat="42.282965" lon="12.4531117"><ele>130.4</ele><time>2026-04-04T16:06:03.726Z</time></trkpt><trkpt lat="42.2829067" lon="12.4530117"><ele>132.0</ele><time>2026-04-04T16:06:04.728Z</time></trkpt><trkpt lat="42.2828433" lon="12.45292"><ele>132.0</ele><time>2026-04-04T16:06:05.727Z</time></trkpt><trkpt lat="42.2827867" lon="12.4528283"><ele>132.0</ele><time>2026-04-04T16:06:06.727Z</time></trkpt><trkpt lat="42.2827383" lon="12.4527283"><ele>132.0</ele><time>2026-04-04T16:06:07.724Z</time></trkpt><trkpt lat="42.2827033" lon="12.4526283"><ele>132.0</ele><time>2026-04-04T16:06:08.727Z</time></trkpt><trkpt lat="42.2826817" lon="12.4525233"><ele>132.0</ele><time>2026-04-04T16:06:09.725Z</time></trkpt><trkpt lat="42.282675" lon="12.4524133"><ele>132.0</ele><time>2026-04-04T16:06:10.723Z</time></trkpt><trkpt lat="42.2826933" lon="12.45231"><ele>132.0</ele><time>2026-04-04T16:06:11.726Z</time></trkpt><trkpt lat="42.2827317" lon="12.4522083"><ele>132.0</ele><time>2026-04-04T16:06:12.722Z</time></trkpt><trkpt lat="42.2827883" lon="12.4521033"><ele>132.0</ele><time>2026-04-04T16:06:13.725Z</time></trkpt><trkpt lat="42.2828617" lon="12.4519883"><ele>132.0</ele><time>2026-04-04T16:06:14.728Z</time></trkpt><trkpt lat="42.28294" lon="12.4518533"><ele>132.0</ele><time>2026-04-04T16:06:15.726Z</time></trkpt><trkpt lat="42.2830283" lon="12.4517033"><ele>131.5</ele><time>2026-04-04T16:06:16.729Z</time></trkpt><trkpt lat="42.2831033" lon="12.4515467"><ele>131.0</ele><time>2026-04-04T16:06:17.725Z</time></trkpt><trkpt lat="42.2831783" lon="12.4513983"><ele>130.5</ele><time>2026-04-04T16:06:18.726Z</time></trkpt><trkpt lat="42.2832483" lon="12.45126"><ele>130.0</ele><time>2026-04-04T16:06:19.725Z</time></trkpt><trkpt lat="42.2833217" lon="12.45113"><ele>131.25</ele><time>2026-04-04T16:06:20.73Z</time></trkpt><trkpt lat="42.283405" lon="12.4510033"><ele>132.5</ele><time>2026-04-04T16:06:21.723Z</time></trkpt><trkpt lat="42.2834983" lon="12.4508883"><ele>133.75</ele><time>2026-04-04T16:06:22.726Z</time></trkpt><trkpt lat="42.2835883" lon="12.4507833"><ele>135.0</ele><time>2026-04-04T16:06:23.723Z</time></trkpt><trkpt lat="42.2836817" lon="12.450675"><ele>135.0</ele><time>2026-04-04T16:06:24.726Z</time></trkpt><trkpt lat="42.2837717" lon="12.4505683"><ele>135.0</ele><time>2026-04-04T16:06:25.723Z</time></trkpt><trkpt lat="42.28386" lon="12.4504567"><ele>135.0</ele><time>2026-04-04T16:06:26.723Z</time></trkpt><trkpt lat="42.283945" lon="12.4503467"><ele>135.0</ele><time>2026-04-04T16:06:27.726Z</time></trkpt><trkpt lat="42.28403" lon="12.4502217"><ele>133.5</ele><time>2026-04-04T16:06:28.726Z</time></trkpt><trkpt lat="42.2841167" lon="12.4500817"><ele>132.0</ele><time>2026-04-04T16:06:29.723Z</time></trkpt><trkpt lat="42.28421" lon="12.44992"><ele>130.5</ele><time>2026-04-04T16:06:30.725Z</time></trkpt><trkpt lat="42.2843067" lon="12.449745"><ele>129.0</ele><time>2026-04-04T16:06:31.726Z</time></trkpt><trkpt lat="42.2844017" lon="12.4495717"><ele>128.5</ele><time>2026-04-04T16:06:32.731Z</time></trkpt><trkpt lat="42.2844967" lon="12.4494067"><ele>128.0</ele><time>2026-04-04T16:06:33.734Z</time></trkpt><trkpt lat="42.284585" lon="12.4492533"><ele>127.5</ele><time>2026-04-04T16:06:34.723Z</time></trkpt><trkpt lat="42.28467" lon="12.4491117"><ele>127.0</ele><time>2026-04-04T16:06:35.728Z</time></trkpt><trkpt lat="42.28475" lon="12.4489817"><ele>126.39999999999999</ele><time>2026-04-04T16:06:36.722Z</time></trkpt><trkpt lat="42.2848267" lon="12.4488617"><ele>125.79999999999998</ele><time>2026-04-04T16:06:37.727Z</time></trkpt><trkpt lat="42.2848933" lon="12.448745"><ele>125.2</ele><time>2026-04-04T16:06:38.728Z</time></trkpt><trkpt lat="42.2849467" lon="12.4486333"><ele>124.6</ele><time>2026-04-04T16:06:39.731Z</time></trkpt><trkpt lat="42.2850017" lon="12.4485217"><ele>124.0</ele><time>2026-04-04T16:06:40.723Z</time></trkpt><trkpt lat="42.285065" lon="12.4484217"><ele>123.80000000000001</ele><time>2026-04-04T16:06:41.727Z</time></trkpt><trkpt lat="42.2851333" lon="12.448325"><ele>123.60000000000001</ele><time>2026-04-04T16:06:42.725Z</time></trkpt><trkpt lat="42.2852" lon="12.4482283"><ele>123.4</ele><time>2026-04-04T16:06:43.725Z</time></trkpt><trkpt lat="42.28527" lon="12.448125"><ele>123.2</ele><time>2026-04-04T16:06:44.725Z</time></trkpt><trkpt lat="42.2853433" lon="12.4480217"><ele>123.0</ele><time>2026-04-04T16:06:45.724Z</time></trkpt><trkpt lat="42.28541" lon="12.447925"><ele>122.5</ele><time>2026-04-04T16:06:46.724Z</time></trkpt><trkpt lat="42.2854717" lon="12.447835"><ele>122.0</ele><time>2026-04-04T16:06:47.724Z</time></trkpt><trkpt lat="42.2855317" lon="12.4477467"><ele>121.5</ele><time>2026-04-04T16:06:48.722Z</time></trkpt><trkpt lat="42.2855833" lon="12.4476667"><ele>121.0</ele><time>2026-04-04T16:06:49.724Z</time></trkpt><trkpt lat="42.2856283" lon="12.4475917"><ele>120.5</ele><time>2026-04-04T16:06:50.723Z</time></trkpt><trkpt lat="42.2856667" lon="12.447515"><ele>120.0</ele><time>2026-04-04T16:06:51.724Z</time></trkpt><trkpt lat="42.2857" lon="12.4474367"><ele>119.75</ele><time>2026-04-04T16:06:52.726Z</time></trkpt><trkpt lat="42.2857767" lon="12.4472967"><ele>119.5</ele><time>2026-04-04T16:06:54.726Z</time></trkpt><trkpt lat="42.2858467" lon="12.447165"><ele>119.25</ele><time>2026-04-04T16:06:56.724Z</time></trkpt><trkpt lat="42.285895" lon="12.447035"><ele>119.0</ele><time>2026-04-04T16:06:58.727Z</time></trkpt><trkpt lat="42.2858933" lon="12.4468967"><ele>118.66666666666666</ele><time>2026-04-04T16:07:00.725Z</time></trkpt><trkpt lat="42.2858217" lon="12.4467667"><ele>118.33333333333333</ele><time>2026-04-04T16:07:02.726Z</time></trkpt><trkpt lat="42.2857467" lon="12.4467217"><ele>118.0</ele><time>2026-04-04T16:07:03.728Z</time></trkpt><trkpt lat="42.28568" lon="12.446665"><ele>117.66666666666666</ele><time>2026-04-04T16:07:04.724Z</time></trkpt><trkpt lat="42.2856167" lon="12.4466067"><ele>117.33333333333333</ele><time>2026-04-04T16:07:05.735Z</time></trkpt><trkpt lat="42.2855633" lon="12.4465433"><ele>117.0</ele><time>2026-04-04T16:07:06.724Z</time></trkpt><trkpt lat="42.2855217" lon="12.4464717"><ele>117.0</ele><time>2026-04-04T16:07:07.723Z</time></trkpt><trkpt lat="42.2854867" lon="12.4463933"><ele>117.0</ele><time>2026-04-04T16:07:08.726Z</time></trkpt><trkpt lat="42.2854517" lon="12.44631"><ele>117.0</ele><time>2026-04-04T16:07:09.723Z</time></trkpt><trkpt lat="42.2854233" lon="12.446225"><ele>117.0</ele><time>2026-04-04T16:07:10.723Z</time></trkpt><trkpt lat="42.2854017" lon="12.4461317"><ele>117.0</ele><time>2026-04-04T16:07:11.722Z</time></trkpt><trkpt lat="42.2853883" lon="12.4460383"><ele>117.0</ele><time>2026-04-04T16:07:12.725Z</time></trkpt><trkpt lat="42.2853867" lon="12.4458967"><ele>116.83333333333333</ele><time>2026-04-04T16:07:14.731Z</time></trkpt><trkpt lat="42.285395" lon="12.4457717"><ele>116.66666666666666</ele><time>2026-04-04T16:07:16.722Z</time></trkpt><trkpt lat="42.285405" lon="12.44562"><ele>116.5</ele><time>2026-04-04T16:07:18.725Z</time></trkpt><trkpt lat="42.2854133" lon="12.4455317"><ele>116.33333333333333</ele><time>2026-04-04T16:07:19.723Z</time></trkpt><trkpt lat="42.2854267" lon="12.4454383"><ele>116.16666666666666</ele><time>2026-04-04T16:07:20.724Z</time></trkpt><trkpt lat="42.285445" lon="12.4453483"><ele>116.0</ele><time>2026-04-04T16:07:21.724Z</time></trkpt><trkpt lat="42.2854683" lon="12.4452517"><ele>116.33333333333333</ele><time>2026-04-04T16:07:22.722Z</time></trkpt><trkpt lat="42.28549" lon="12.4451517"><ele>116.66666666666666</ele><time>2026-04-04T16:07:23.725Z</time></trkpt><trkpt lat="42.28551" lon="12.44505"><ele>117.0</ele><time>2026-04-04T16:07:24.725Z</time></trkpt><trkpt lat="42.2855433" lon="12.444945"><ele>117.33333333333334</ele><time>2026-04-04T16:07:25.726Z</time></trkpt><trkpt lat="42.2855883" lon="12.44484"><ele>117.66666666666667</ele><time>2026-04-04T16:07:26.724Z</time></trkpt><trkpt lat="42.2856433" lon="12.444745"><ele>118.0</ele><time>2026-04-04T16:07:27.729Z</time></trkpt><trkpt lat="42.285695" lon="12.4446483"><ele>119.2</ele><time>2026-04-04T16:07:28.725Z</time></trkpt><trkpt lat="42.2857483" lon="12.4445333"><ele>120.4</ele><time>2026-04-04T16:07:29.724Z</time></trkpt><trkpt lat="42.2858033" lon="12.4443983"><ele>121.60000000000001</ele><time>2026-04-04T16:07:30.724Z</time></trkpt><trkpt lat="42.285855" lon="12.4442517"><ele>122.80000000000001</ele><time>2026-04-04T16:07:31.724Z</time></trkpt><trkpt lat="42.2859" lon="12.44411"><ele>124.0</ele><time>2026-04-04T16:07:32.723Z</time></trkpt><trkpt lat="42.2859267" lon="12.4439783"><ele>124.0</ele><time>2026-04-04T16:07:33.724Z</time></trkpt><trkpt lat="42.2859233" lon="12.4438617"><ele>124.0</ele><time>2026-04-04T16:07:34.724Z</time></trkpt><trkpt lat="42.2858983" lon="12.4437583"><ele>124.0</ele><time>2026-04-04T16:07:35.724Z</time></trkpt><trkpt lat="42.285845" lon="12.44366"><ele>124.0</ele><time>2026-04-04T16:07:36.723Z</time></trkpt><trkpt lat="42.28578" lon="12.4435683"><ele>124.0</ele><time>2026-04-04T16:07:37.723Z</time></trkpt><trkpt lat="42.2856583" lon="12.4434767"><ele>127.66666666666667</ele><time>2026-04-04T16:07:38.725Z</time></trkpt><trkpt lat="42.2855083" lon="12.4433717"><ele>131.33333333333334</ele><time>2026-04-04T16:07:39.728Z</time></trkpt><trkpt lat="42.2853483" lon="12.443275"><ele>135.0</ele><time>2026-04-04T16:07:40.733Z</time></trkpt><trkpt lat="42.2851983" lon="12.443185"><ele>135.0</ele><time>2026-04-04T16:07:41.727Z</time></trkpt><trkpt lat="42.2850817" lon="12.4430867"><ele>135.0</ele><time>2026-04-04T16:07:42.723Z</time></trkpt><trkpt lat="42.2849967" lon="12.4429783"><ele>135.0</ele><time>2026-04-04T16:07:43.726Z</time></trkpt><trkpt lat="42.2849383" lon="12.442865"><ele>135.0</ele><time>2026-04-04T16:07:44.731Z</time></trkpt><trkpt lat="42.28489" lon="12.4427517"><ele>136.0</ele><time>2026-04-04T16:07:45.723Z</time></trkpt><trkpt lat="42.2848417" lon="12.442635"><ele>137.0</ele><time>2026-04-04T16:07:46.725Z</time></trkpt><trkpt lat="42.2848" lon="12.4425133"><ele>138.0</ele><time>2026-04-04T16:07:47.725Z</time></trkpt><trkpt lat="42.284765" lon="12.442395"><ele>139.0</ele><time>2026-04-04T16:07:48.724Z</time></trkpt><trkpt lat="42.2847317" lon="12.4423017"><ele>140.0</ele><time>2026-04-04T16:07:49.723Z</time></trkpt><trkpt lat="42.28469" lon="12.442195"><ele>140.0</ele><time>2026-04-04T16:07:51.722Z</time></trkpt></trkseg></trk></gpx>